Date StartTime U_cm/s V_cm/s W_cm/s Ustd_cm/s Vstd_cm/s Wstd_cm/s Uvar_(cm/s)^2 Vvar_(cm/s)^2 Wvar_(cm/s)^2 KE_(m/s)^2 TurbulentKE_(m/s)^2 HorizWindSpeed_cm/s FrictionSpeec_cm/s DragCoef SpeedOfSound_m/s SonicTemperature_C Pressure_mb 
12/22/2013  00:00:00      -37.422       -6.766       -8.181        6.651        7.091        5.785       44.231       50.285       33.471        0.082        0.006       38.029        5.498        0.021      332.299        0.871      865.107
12/22/2013  00:01:00      -28.634       -5.962       -3.733        7.086        6.068        3.294       50.217       36.825       10.854        0.048        0.005       29.248        2.969        0.010      332.315        0.895      865.117
12/22/2013  00:02:00      -14.956      -12.492       -3.429        5.713        3.412        3.090       32.638       11.642        9.546        0.022        0.003       19.487        1.976        0.010      332.369        0.984      865.128
12/22/2013  00:03:00       -9.366        0.261        1.078        7.919        7.368        5.604       62.707       54.284       31.408        0.012        0.007        9.370        6.286        0.450      332.401        1.041      865.121
12/22/2013  00:04:00       21.646       18.919       10.703        6.213        4.775        7.424       38.604       22.805       55.116        0.053        0.006       28.749        3.318        0.013      332.305        0.880      865.099
12/22/2013  00:05:00       10.879       16.753        1.694        5.168        3.561        5.553       26.709       12.682       30.836        0.024        0.004       19.975        4.253        0.045      332.415        1.062      865.074
12/22/2013  00:06:00       17.243       14.083       11.887        6.068        4.020        3.603       36.817       16.157       12.979        0.035        0.003       22.264        1.581        0.005      332.369        0.986      865.064
12/22/2013  00:07:00       14.962       33.190        6.602        6.448        8.931       10.202       41.574       79.763      104.087        0.080        0.011       36.407        8.283        0.052      332.524        1.240      865.082
12/22/2013  00:08:00       16.656       42.102       -7.612        2.871        2.623        2.139        8.242        6.879        4.574        0.106        0.001       45.277        1.644        0.001      332.535        1.257      865.106
12/22/2013  00:09:00       17.095       25.767       -3.761       10.245       15.519        8.880      104.952      240.845       78.856        0.070        0.021       30.923        9.234        0.089      332.466        1.148      865.094
12/22/2013  00:10:00       14.048       16.189       -0.844        8.413       12.566        8.036       70.775      157.911       64.578        0.038        0.015       21.435        7.974        0.138      332.582        1.340      865.057
12/22/2013  00:11:00       29.752        9.607       -5.067        6.091        5.222        4.443       37.105       27.265       19.737        0.054        0.004       31.264        1.370        0.002      332.697        1.527      865.014
12/22/2013  00:12:00       23.504        4.868       -0.978        9.529        7.088        8.683       90.795       50.235       75.396        0.040        0.011       24.003        4.201        0.031      332.660        1.468      864.976
12/22/2013  00:13:00       -2.993        1.676        6.429        7.200        3.085        4.921       51.842        9.515       24.217        0.007        0.004        3.431        3.482        1.030      332.533        1.257      864.949
12/22/2013  00:14:00      -36.233      -16.171       -5.337        7.773        9.019        6.304       60.426       81.348       39.742        0.089        0.009       39.678        6.093        0.024      332.221        0.744      864.928
12/22/2013  00:15:00      -42.583      -26.050       -5.559        4.631        6.886        3.982       21.449       47.423       15.853        0.130        0.004       49.919        2.721        0.003      332.393        1.025      864.926
12/22/2013  00:16:00      -47.735       -7.650       -5.484        5.073        6.628        4.170       25.731       43.924       17.385        0.123        0.004       48.344        3.458        0.005      332.384        1.012      864.938
12/22/2013  00:17:00      -40.533        2.244       -4.253        5.926        4.045        3.400       35.120       16.360       11.560        0.086        0.003       40.595        1.805        0.002      332.495        1.195      864.953
12/22/2013  00:18:00      -31.206       -4.599       -3.791        6.092        5.522        4.393       37.118       30.492       19.296        0.055        0.004       31.543        2.183        0.005      332.328        0.917      864.962
12/22/2013  00:19:00      -24.759       -6.344       -3.466        6.200        5.100        3.500       38.434       26.014       12.250        0.037        0.004       25.559        2.878        0.013      332.260        0.810      864.966
12/22/2013  00:20:00      -15.504      -11.479       -2.164        5.876        3.874        3.430       34.527       15.012       11.762        0.022        0.003       19.291        2.783        0.021      332.292        0.859      864.970
12/22/2013  00:21:00        0.927       -2.898        3.493        3.448        6.902        3.184       11.886       47.640       10.140        0.005        0.003        3.042        0.746        0.060      332.291        0.856      864.976
12/22/2013  00:22:00       -2.727        0.197        8.005        3.143        3.435        4.325        9.877       11.798       18.709        0.006        0.002        2.734        2.279        0.695      332.315        0.898      864.983
12/22/2013  00:23:00       -0.118       -9.651       11.396        5.203        7.534        8.508       27.072       56.764       72.385        0.019        0.008        9.651        3.811        0.156      332.387        1.017      864.988
12/22/2013  00:24:00        0.673      -15.677       -0.530        7.932        9.516        9.764       62.919       90.547       95.334        0.025        0.012       15.691        6.678        0.181      332.349        0.954      864.990
12/22/2013  00:25:00      -22.322        6.000        3.692       11.811        7.459        4.583      139.500       55.643       21.008        0.038        0.011       23.115        3.080        0.018      332.346        0.948      864.993
12/22/2013  00:26:00      -34.622        9.186        6.375        7.636        6.854        7.474       58.315       46.972       55.862        0.074        0.008       35.820        6.512        0.033      332.340        0.939      865.009
12/22/2013  00:27:00      -24.098        9.063        0.797        8.353       10.012        8.683       69.775      100.238       75.402        0.045        0.012       25.746        7.095        0.076      332.103        0.548      865.031
12/22/2013  00:28:00      -23.712        5.733       -5.468        6.906       10.254       10.764       47.694      105.143      115.859        0.045        0.013       24.395        6.696        0.075      332.132        0.597      865.057
12/22/2013  00:29:00       -9.212       18.932        0.237       14.592       10.094       16.192      212.928      101.897      262.175        0.051        0.029       21.055       12.228        0.337      332.095        0.535      865.071
12/22/2013  00:30:00      -31.172       -0.586        0.635       28.422       15.824       15.116      807.838      250.392      228.481        0.113        0.064       31.177       16.017        0.264      332.044        0.451      865.084
12/22/2013  00:31:00      -34.858      -11.296       -1.852       14.351       13.002       12.232      205.943      169.040      149.622        0.094        0.026       36.642       10.809        0.087      331.987        0.358      865.083
12/22/2013  00:32:00      -36.541      -12.860       -4.473       13.277       18.435        7.650      176.270      339.853       58.524        0.105        0.029       38.738        9.154        0.056      332.005        0.388      865.086
12/22/2013  00:33:00      -47.426       -0.207       -5.374       13.318       17.006        9.311      177.364      289.217       86.689        0.142        0.028       47.427        7.915        0.028      331.946        0.289      865.089
12/22/2013  00:34:00      -50.705        2.715       -3.418       10.836       11.085        9.364      117.409      122.879       87.693        0.146        0.016       50.778        8.023        0.025      331.950        0.294      865.104
12/22/2013  00:35:00      -28.076       -8.814       -1.394        9.796       11.242        7.230       95.959      126.385       52.273        0.057        0.014       29.427        4.594        0.024      331.898        0.209      865.117
12/22/2013  00:36:00       -4.152      -22.682       -0.955        9.147        8.682       12.036       83.676       75.379      144.856        0.042        0.015       23.059        6.033        0.068      331.897        0.209      865.118
12/22/2013  00:37:00      -37.199      -32.774       -5.696       18.736       10.452        6.899      351.028      109.251       47.599        0.150        0.025       49.577        7.576        0.023      331.921        0.248      865.120
12/22/2013  00:38:00      -61.910      -14.974       -6.622       13.062       12.356        7.463      170.605      152.673       55.701        0.224        0.019       63.695        4.977        0.006      331.852        0.134      865.115
12/22/2013  00:39:00      -82.960      -21.042       -0.400       20.761       14.961       10.502      431.025      223.836      110.290        0.405        0.038       85.587        6.677        0.006      331.740       -0.050      865.113
12/22/2013  00:40:00      -38.239      -32.000       12.068       41.921       20.015       15.010     1757.334      400.588      225.287        0.251        0.119       49.862       13.949        0.078      331.779        0.014      865.108
12/22/2013  00:41:00      -67.620      -83.804       -2.378       41.026       53.762       17.214     1683.096     2890.375      296.307        0.823        0.243      107.683       17.070        0.025      331.888        0.193      865.103
12/22/2013  00:42:00      -88.519      -60.970       -3.942       38.801       29.738       14.881     1505.497      884.337      221.452        0.709        0.131      107.484       17.370        0.026      331.869        0.163      865.094
12/22/2013  00:43:00      -95.480      -41.374       -1.580       27.272       21.723       16.008      743.751      471.902      256.272        0.615        0.074      104.059       15.695        0.023      331.870        0.162      865.097
12/22/2013  00:44:00      -57.342      -58.479        5.821       33.859       55.452       20.444     1146.413     3074.928      417.964        0.569        0.232       81.902       13.488        0.027      331.880        0.181      865.107
12/22/2013  00:45:00      -90.590      -56.464       -2.004       36.035       23.081       13.556     1298.525      532.740      183.767        0.671        0.101      106.746        5.901        0.003      331.876        0.174      865.118
12/22/2013  00:46:00     -103.322      -85.181       -3.986       42.703       33.080       20.906     1823.537     1094.270      437.078        1.065        0.168      133.908       20.341        0.023      331.918        0.243      865.144
12/22/2013  00:47:00      -67.574      -49.537        8.006       64.438       46.904       26.883     4152.227     2199.957      722.708        0.708        0.354       83.787       29.927        0.128      331.915        0.237      865.174
12/22/2013  00:48:00     -111.229      -90.311       -4.560       47.282       37.760       29.463     2235.549     1425.780      868.056        1.254        0.226      143.276       24.391        0.029      331.924        0.252      865.198
12/22/2013  00:49:00      -88.407      -81.000        1.566       47.867       42.955       29.226     2291.287     1845.145      854.160        0.968        0.250      119.903       29.049        0.059      331.929        0.260      865.202
12/22/2013  00:50:00     -131.026     -105.423       -3.404       46.084       45.433       30.243     2123.759     2064.172      914.634        1.670        0.255      168.172       27.352        0.026      331.901        0.213      865.196
12/22/2013  00:51:00     -138.319     -104.416       -9.695       37.039       47.571       25.106     1371.913     2263.038      630.293        1.720        0.213      173.306       21.785        0.016      331.952        0.299      865.172
12/22/2013  00:52:00     -104.739      -61.582        3.956       44.288       30.981       29.331     1961.450      959.826      860.305        0.928        0.189      121.501       27.953        0.053      331.957        0.308      865.139
12/22/2013  00:53:00     -117.041      -47.411        6.734       48.974       38.648       25.352     2398.468     1493.706      642.713        1.026        0.227      126.280       22.255        0.031      331.898        0.210      865.121
12/22/2013  00:54:00      -95.560      -43.177       -0.305       39.252       26.978       19.760     1540.736      727.828      390.476        0.683        0.133      104.862       12.087        0.013      331.906        0.222      865.099
12/22/2013  00:55:00      -62.854      -83.754        3.787       42.560       42.857       26.859     1811.313     1836.682      721.430        0.767        0.218      104.715       24.613        0.055      332.106        0.553      865.083
12/22/2013  00:56:00      -48.587      -70.887       10.891       45.652       31.929       22.887     2084.129     1019.473      523.811        0.557        0.181       85.940       27.033        0.099      332.090        0.525      865.079
12/22/2013  00:57:00      -46.375      -66.196        0.294       41.787       36.924       22.182     1746.175     1363.399      492.023        0.507        0.180       80.825       12.620        0.024      332.065        0.486      865.084
12/22/2013  00:58:00      -65.693     -119.629       -3.469       30.348       43.894       21.355      921.010     1926.726      456.025        1.097        0.165      136.479       14.163        0.011      332.136        0.602      865.093
12/22/2013  00:59:00      -99.987      -99.297       -4.209       40.857       38.905       28.655     1669.271     1513.585      821.097        1.194        0.200      140.916       24.861        0.031      331.987        0.357      865.104
12/22/2013  01:00:00     -111.971      -62.097       -9.258       52.258       28.108       19.748     2730.876      790.064      389.975        1.019        0.196      128.038       12.299        0.009      331.983        0.348      865.104
12/22/2013  01:01:00     -115.791      -68.679       -3.886       40.941       50.759       26.789     1676.190     2576.467      717.624        1.155        0.249      134.627       29.340        0.047      331.967        0.324      865.104
12/22/2013  01:02:00      -61.944      -18.890       10.955       52.522       23.931       17.967     2758.524      572.703      322.800        0.398        0.183       64.760       21.673        0.112      331.934        0.269      865.098
12/22/2013  01:03:00      -83.232      -25.659        1.549       45.070       22.516       18.165     2031.288      506.983      329.958        0.523        0.143       87.097       23.844        0.075      331.871        0.165      865.084
12/22/2013  01:04:00     -100.553      -31.202       -7.316       21.612       14.325       15.447      467.076      205.216      238.601        0.602        0.046      105.283        4.275        0.002      331.900        0.214      865.084
12/22/2013  01:05:00      -73.067      -14.739        1.289       31.584       16.411       14.927      997.547      269.315      222.819        0.352        0.074       74.539       16.744        0.050      331.834        0.104      865.090
12/22/2013  01:06:00      -89.754      -15.654       -3.847       28.922       18.961       13.220      836.491      359.528      174.755        0.484        0.069       91.109        7.843        0.007      331.847        0.126      865.101
12/22/2013  01:07:00      -71.280      -23.895        2.133       33.668       24.322       13.852     1133.501      591.555      191.876        0.379        0.096       75.178       14.190        0.036      331.867        0.159      865.110
12/22/2013  01:08:00      -62.210      -13.449        3.878       27.953       23.282       12.345      781.368      542.047      152.388        0.277        0.074       63.648       11.611        0.033      331.724       -0.077      865.095
12/22/2013  01:09:00      -99.153      -34.743      -10.905       22.808       21.016       13.040      520.207      441.653      170.033        0.614        0.057      105.064       11.145        0.011      331.536       -0.387      865.065
12/22/2013  01:10:00      -85.121       -9.123       -1.460       41.638       26.899       20.356     1733.719      723.533      414.386        0.510        0.144       85.608       19.330        0.051      331.573       -0.325      865.027
12/22/2013  01:11:00     -101.153      -38.200        1.216       29.678       22.639       13.242      880.795      512.511      175.341        0.663        0.078      108.126       11.934        0.012      331.610       -0.264      865.021
12/22/2013  01:12:00      -91.939      -33.121       -0.769       29.631       14.194       11.818      877.971      201.481      139.658        0.538        0.061       97.723       12.620        0.017      331.629       -0.231      865.034
12/22/2013  01:13:00      -88.136      -28.638       -3.427       18.296       16.090       11.729      334.754      258.884      137.571        0.467        0.037       92.672        4.086        0.002      331.768       -0.003      865.049
12/22/2013  01:14:00      -54.533      -16.438        7.783       36.695       23.561       15.714     1346.540      555.122      246.924        0.273        0.107       56.956       16.177        0.081      331.740       -0.049      865.083
12/22/2013  01:15:00      -58.022       -2.090        1.462       26.592       20.928       16.446      707.147      437.983      270.473        0.239        0.071       58.060       13.905        0.057      331.745       -0.042      865.131
12/22/2013  01:16:00      -94.006       -6.910       -7.152       23.435       19.782       13.768      549.215      391.333      189.549        0.503        0.057       94.259        8.899        0.009      331.684       -0.142      865.189
12/22/2013  01:17:00      -55.887      -43.786        4.395       24.514       27.691       17.364      600.930      766.807      301.525        0.336        0.083       70.997       15.994        0.051      331.626       -0.238      865.244
12/22/2013  01:18:00      -49.640      -26.210       -3.920       19.114       21.011       12.194      365.344      441.454      148.700        0.206        0.048       56.135       11.128        0.039      331.546       -0.369      865.269
12/22/2013  01:19:00      -61.559       -8.369        2.690       31.208       15.669       16.711      973.943      245.508      279.248        0.268        0.075       62.126       18.577        0.089      331.545       -0.371      865.285
12/22/2013  01:20:00      -42.108      -24.001        2.086       28.608       25.205       11.284      818.391      635.307      127.324        0.197        0.079       48.468       10.020        0.043      331.547       -0.369      865.296
12/22/2013  01:21:00      -83.353      -25.392      -10.451       22.360       20.969       13.075      499.951      439.719      170.968        0.441        0.056       87.134       12.190        0.020      331.448       -0.531      865.325
12/22/2013  01:22:00      -71.847      -30.679       -7.521       24.106       18.732       11.248      581.100      350.869      126.520        0.361        0.053       78.123        7.707        0.010      331.386       -0.633      865.354
12/22/2013  01:23:00      -53.299      -20.187       -4.549       17.579       19.804       11.787      309.024      392.186      138.935        0.205        0.042       56.994        8.536        0.022      331.284       -0.800      865.382
12/22/2013  01:24:00      -25.354        8.181       -7.648       14.998       17.051        8.518      224.928      290.738       72.554        0.068        0.029       26.641        6.580        0.061      331.425       -0.567      865.398
12/22/2013  01:25:00      -40.520      -19.838       -6.210       12.723       15.720       11.271      161.867      247.108      127.032        0.130        0.027       45.116        5.023        0.012      331.579       -0.315      865.411
12/22/2013  01:26:00      -47.976       -4.502       -7.938       15.380       16.739       11.340      236.547      280.198      128.603        0.152        0.032       48.187        6.636        0.019      331.727       -0.072      865.412
12/22/2013  01:27:00      -15.255      -24.320       -2.543       14.321       12.887       12.767      205.101      166.075      163.000        0.068        0.027       28.709        9.842        0.118      331.509       -0.432      865.410
12/22/2013  01:28:00       -8.532      -32.529        0.711       10.952       15.020       10.872      119.939      225.595      118.199        0.080        0.023       33.629        8.177        0.059      331.635       -0.222      865.403
12/22/2013  01:29:00      -20.477       -2.324       -2.988       10.376        7.689        8.265      107.672       59.122       68.307        0.033        0.012       20.609        5.263        0.065      331.834        0.105      865.399
12/22/2013  01:30:00      -40.146      -23.133       -4.646       11.104       11.016        5.767      123.291      121.345       33.259        0.122        0.014       46.334        3.673        0.006      331.673       -0.160      865.389
12/22/2013  01:31:00      -48.298      -30.971       -6.894       10.042        7.205        5.185      100.849       51.913       26.882        0.176        0.009       57.375        3.812        0.004      331.416       -0.583      865.365
12/22/2013  01:32:00      -51.013      -28.862       -7.002        8.616        8.333        5.519       74.234       69.433       30.456        0.183        0.009       58.611        3.834        0.004      331.503       -0.439      865.340
12/22/2013  01:33:00      -70.632      -10.342      -13.199        9.056        7.943        6.152       82.003       63.095       37.853        0.273        0.009       71.385        3.382        0.002      331.494       -0.456      865.320
12/22/2013  01:34:00      -78.309      -18.544      -13.892       11.808       13.763        7.321      139.435      189.422       53.595        0.353        0.019       80.475        4.062        0.003      331.417       -0.582      865.301
12/22/2013  01:35:00      -82.102       -9.917       -8.632       20.933       20.467       12.395      438.180      418.902      153.643        0.396        0.051       82.699       10.002        0.015      331.366       -0.665      865.291
12/22/2013  01:36:00     -110.433       14.383      -13.605       20.124       16.784       10.707      404.987      281.691      114.632        0.669        0.040      111.366        6.821        0.004      331.541       -0.378      865.285
12/22/2013  01:37:00      -67.178       -7.206       -9.199       19.920       18.196       12.018      396.799      331.082      144.442        0.276        0.044       67.564       12.418        0.034      331.473       -0.490      865.291
12/22/2013  01:38:00      -70.471       -9.010      -15.636        9.672        7.639        6.386       93.547       58.351       40.787        0.274        0.010       71.044        5.649        0.006      331.519       -0.413      865.292
12/22/2013  01:39:00      -76.393      -18.050      -12.031       19.545       14.274        9.173      382.011      203.749       84.139        0.349        0.033       78.496        7.795        0.010      331.472       -0.490      865.306
12/22/2013  01:40:00      -72.740       -5.664      -12.450       10.715       12.706       10.538      114.820      161.453      111.040        0.293        0.019       72.960        5.267        0.005      331.367       -0.664      865.346
12/22/2013  01:41:00      -59.320      -12.215      -11.869        9.538        9.169        6.996       90.981       84.068       48.945        0.202        0.011       60.565        3.929        0.004      331.443       -0.540      865.371
12/22/2013  01:42:00      -82.825        2.371      -14.454       28.972       18.256       15.793      839.372      333.266      249.417        0.425        0.071       82.859        9.987        0.015      331.319       -0.741      865.414
12/22/2013  01:43:00      -94.826       20.935      -13.400       24.441       16.327       14.408      597.340      266.576      207.577        0.534        0.054       97.109        9.513        0.010      331.369       -0.660      865.456
12/22/2013  01:44:00      -57.533        5.105      -14.601       18.967       13.838        7.240      359.751      191.482       52.411        0.208        0.030       57.759        7.223        0.016      331.435       -0.553      865.487
12/22/2013  01:45:00      -40.338       -1.451      -10.013       12.525       16.713        9.558      156.869      279.324       91.357        0.113        0.026       40.364        6.380        0.025      331.596       -0.289      865.496
12/22/2013  01:46:00      -43.537       -4.604       -5.373       13.408       11.304        9.074      179.771      127.791       82.342        0.117        0.019       43.780        3.116        0.005      331.504       -0.439      865.500
12/22/2013  01:47:00      -50.737      -14.334       -5.021       12.491       16.429       11.723      156.036      269.915      137.427        0.168        0.028       52.723        8.046        0.023      331.418       -0.581      865.506
12/22/2013  01:48:00      -59.260      -26.786       -6.962       21.419       12.161        9.033      458.760      147.888       81.598        0.248        0.034       65.033        5.848        0.008      331.372       -0.656      865.510
12/22/2013  01:49:00      -64.868      -20.470       -8.351       13.349       10.550        8.338      178.185      111.297       69.529        0.253        0.018       68.021        7.008        0.011      331.413       -0.587      865.523
12/22/2013  01:50:00      -58.409      -30.966       -8.726       13.434        8.225        8.032      180.464       67.655       64.506        0.238        0.016       66.110        6.353        0.009      331.551       -0.360      865.535
12/22/2013  01:51:00      -72.835      -13.671       -4.587        8.607        8.250        6.972       74.077       68.060       48.613        0.285        0.010       74.107        5.591        0.006      331.498       -0.450      865.552
12/22/2013  01:52:00      -58.616      -14.716      -11.745        8.537        7.043        5.714       72.881       49.605       32.653        0.197        0.008       60.435        1.935        0.001      331.514       -0.421      865.578
12/22/2013  01:53:00      -49.225      -15.742       -9.696        8.400        7.883        5.756       70.566       62.149       33.128        0.147        0.008       51.681        3.402        0.004      331.526       -0.403      865.613
12/22/2013  01:54:00      -20.857       -3.602       -1.869        8.543        5.800        4.954       72.974       33.641       24.541        0.029        0.007       21.166        2.347        0.012      331.574       -0.323      865.632
12/22/2013  01:55:00       -4.994       -1.141       -2.771        3.986        5.712        4.251       15.891       32.624       18.071        0.005        0.003        5.122        2.277        0.198      331.589       -0.298      865.649
12/22/2013  01:56:00        4.315       12.755       22.515        9.895       12.540       13.673       97.908      157.240      186.945        0.057        0.022       13.465       10.325        0.588      331.591       -0.295      865.659
12/22/2013  01:57:00       -1.765       33.417       50.493       11.126       18.519       11.642      123.794      342.942      135.534        0.214        0.030       33.464       10.564        0.100      331.551       -0.361      865.684
12/22/2013  01:58:00       24.873       18.377       19.452       14.492       19.757       17.865      210.006      390.342      319.161        0.113        0.046       30.925       16.936        0.300      331.543       -0.374      865.706
12/22/2013  01:59:00        7.035      -14.458        2.720        9.309       14.885        8.265       86.662      221.563       68.307        0.032        0.019       16.079        8.399        0.273      331.626       -0.237      865.713
12/22/2013  02:00:00      -20.334      -15.805       -0.540       13.770       10.080        8.878      189.625      101.610       78.825        0.052        0.019       25.754        8.454        0.108      331.550       -0.363      865.715
12/22/2013  02:01:00      -25.298      -15.684       -4.687        9.391        8.204        7.118       88.199       67.310       50.672        0.056        0.010       29.765        2.381        0.006      331.486       -0.470      865.722
12/22/2013  02:02:00      -23.538       -6.837       -5.994        4.925        6.599        5.423       24.259       43.545       29.408        0.037        0.005       24.511        2.493        0.010      331.524       -0.405      865.736
12/22/2013  02:03:00      -25.014       -8.173        1.635        7.365        4.825        4.581       54.249       23.282       20.984        0.040        0.005       26.316        2.136        0.007      331.596       -0.288      865.753
12/22/2013  02:04:00      -31.879       -7.204       -3.993        5.974        4.849        4.130       35.686       23.514       17.058        0.058        0.004       32.683        2.341        0.005      331.577       -0.318      865.769
12/22/2013  02:05:00      -21.229       -3.687       -1.489        6.153        4.624        3.843       37.860       21.380       14.771        0.027        0.004       21.547        1.892        0.008      331.517       -0.419      865.786
12/22/2013  02:06:00       -1.071       10.205        4.323        7.928        6.795        6.029       62.861       46.175       36.346        0.013        0.007       10.261        5.326        0.269      331.598       -0.283      865.806
12/22/2013  02:07:00        1.409        7.591        6.232        6.098        6.761        5.178       37.183       45.711       26.809        0.010        0.005        7.721        1.938        0.063      331.686       -0.138      865.817
12/22/2013  02:08:00      -28.853        5.728        0.789       12.398        5.737        5.908      153.720       32.917       34.904        0.054        0.011       29.416        3.268        0.012      331.672       -0.160      865.811
12/22/2013  02:09:00      -38.572        4.615       -2.263        6.939        7.999        5.334       48.148       63.979       28.447        0.083        0.007       38.848        3.105        0.006      331.509       -0.431      865.821
12/22/2013  02:10:00      -57.457       -2.947       -9.915       13.279        5.701        5.016      176.343       32.503       25.160        0.182        0.012       57.533        3.392        0.003      331.470       -0.496      865.848
12/22/2013  02:11:00      -66.238        2.907       -9.868       11.279        8.518        6.693      127.213       72.560       44.790        0.237        0.012       66.302        4.265        0.004      331.461       -0.511      865.882
12/22/2013  02:12:00      -57.905       -0.821       -3.374       14.136       12.093       12.035      199.831      146.229      144.837        0.193        0.025       57.910       11.087        0.037      331.455       -0.519      865.916
12/22/2013  02:13:00      -14.729       -5.368       -1.144        6.072        7.790        5.909       36.872       60.689       34.911        0.019        0.007       15.676        3.349        0.046      331.530       -0.396      865.937
12/22/2013  02:14:00        3.205        1.245        0.390        9.387        9.586        9.971       88.115       91.885       99.419        0.015        0.014        3.439        4.887        2.020      331.648       -0.203      865.918
12/22/2013  02:15:00        2.821      -26.562       -0.541        9.097       15.666        8.634       82.749      245.419       74.548        0.056        0.020       26.712        7.741        0.084      331.731       -0.066      865.898
12/22/2013  02:16:00      -18.337      -16.611        5.894       35.547       11.781       16.840     1263.573      138.781      283.586        0.117        0.084       24.742        8.346        0.114      331.476       -0.485      865.898
12/22/2013  02:17:00      -86.672        5.922      -10.577       12.430       11.318        9.653      154.509      128.102       93.175        0.402        0.019       86.874        8.546        0.010      331.253       -0.851      865.928
12/22/2013  02:18:00      -53.010        7.456       -6.260       18.177        7.185        6.572      330.411       51.628       43.186        0.166        0.021       53.531        8.045        0.023      331.279       -0.807      865.976
12/22/2013  02:19:00        3.689       22.903       -0.655       21.892        6.918        4.645      479.244       47.865       21.572        0.054        0.027       23.198        5.725        0.061      331.709       -0.100      866.023
12/22/2013  02:20:00       23.736       -0.115        4.550        6.708       11.332        6.970       44.992      128.404       48.575        0.040        0.011       23.736        3.148        0.018      331.928        0.261      866.051
12/22/2013  02:21:00        3.811      -10.367       14.302        8.816       12.767        8.191       77.723      163.008       67.100        0.032        0.015       11.045        6.026        0.298      331.901        0.216      866.063
12/22/2013  02:22:00        2.780       -6.705       15.324       10.736       14.530       10.418      115.267      211.107      108.544        0.036        0.022        7.259        4.127        0.323      331.899        0.212      866.059
12/22/2013  02:23:00       11.755      -16.040       11.532       17.035       22.231       17.196      290.205      494.211      295.690        0.080        0.054       19.886        8.577        0.186      331.837        0.110      866.053
12/22/2013  02:24:00       17.164      -18.579       13.774       22.045       23.214       20.367      485.995      538.903      414.828        0.113        0.072       25.294       15.015        0.352      331.839        0.113      866.050
12/22/2013  02:25:00       29.166      -38.341        2.250       23.472       29.752       15.803      550.918      885.177      249.732        0.201        0.084       48.173       17.907        0.138      331.914        0.236      866.052
12/22/2013  02:26:00       43.801      -59.090        2.883       15.713       19.497       14.086      246.910      380.125      198.419        0.312        0.041       73.554       10.642        0.021      332.139        0.608      866.056
12/22/2013  02:27:00       12.883      -38.344        4.696       44.582       19.702       21.627     1987.510      388.172      467.743        0.225        0.142       40.450       17.549        0.188      332.065        0.486      866.074
12/22/2013  02:28:00      -33.072       -9.667        7.972       20.864       17.949       13.196      435.314      322.164      174.126        0.109        0.047       34.456       12.232        0.126      331.659       -0.182      866.108
12/22/2013  02:29:00      -46.407      -19.877       -7.911       22.034        9.438        7.282      485.509       89.081       53.021        0.162        0.031       50.485        5.553        0.012      331.405       -0.603      866.134
12/22/2013  02:30:00      -53.233      -21.399       -5.774       29.498       19.268        9.078      870.153      371.262       82.406        0.232        0.066       57.373        5.214        0.008      331.377       -0.648      866.135
12/22/2013  02:31:00      -49.880      -30.424        5.462       14.483       13.971       15.156      209.760      195.179      229.696        0.204        0.032       58.427        8.833        0.023      331.491       -0.459      866.129
12/22/2013  02:32:00      -27.915      -40.185       -3.652       24.490       25.027       19.092      599.748      626.342      364.520        0.200        0.080       48.930       12.694        0.067      331.636       -0.222      866.149
12/22/2013  02:33:00      -48.227       -3.378        2.698       14.900       12.266        9.275      222.023      150.466       86.017        0.140        0.023       48.345        7.116        0.022      331.465       -0.502      866.191
12/22/2013  02:34:00      -67.708      -23.502       -5.914       17.505       14.847        7.958      306.410      220.444       63.323        0.288        0.030       71.671        7.560        0.011      331.352       -0.687      866.239
12/22/2013  02:35:00      -83.869      -28.656       -1.619       24.853       29.886       16.590      617.651      893.192      275.225        0.482        0.089       88.629       13.692        0.024      331.343       -0.702      866.287
12/22/2013  02:36:00      -41.965      -64.370        6.116       49.283       41.985       24.220     2428.814     1762.736      586.622        0.536        0.239       76.841       24.872        0.105      331.546       -0.369      866.325
12/22/2013  02:37:00      -40.683      -37.519        9.147       46.138       43.406       27.385     2128.760     1884.076      749.933        0.395        0.238       55.343       27.057        0.239      331.490       -0.461      866.350
12/22/2013  02:38:00      -70.537      -43.065        0.436       54.723       39.360       27.757     2994.552     1549.182      770.468        0.607        0.266       82.644       17.029        0.042      331.469       -0.495      866.360
12/22/2013  02:39:00     -102.964      -81.256        2.193       62.997       53.343       36.220     3968.620     2845.430     1311.872        1.267        0.406      131.164       36.291        0.077      331.427       -0.566      866.366
12/22/2013  02:40:00     -114.478     -112.189       -6.788       44.842       39.812       24.053     2010.777     1584.958      578.562        1.496        0.209      160.286       19.170        0.014      331.418       -0.581      866.368
12/22/2013  02:41:00      -94.016      -71.673        0.768       42.533       34.365       25.718     1809.041     1180.923      661.393        0.881        0.183      118.220       20.998        0.032      331.408       -0.598      866.344
12/22/2013  02:42:00     -132.016     -110.518        0.757       63.896       58.926       36.731     4082.648     3472.321     1349.192        1.927        0.445      172.170       36.568        0.045      331.440       -0.546      866.311
12/22/2013  02:43:00     -127.261     -107.112       -8.751       48.185       44.027       26.696     2321.841     1938.358      712.680        1.636        0.249      166.339       19.623        0.014      331.502       -0.443      866.284
12/22/2013  02:44:00     -118.811      -66.780        5.760       57.161       37.493       28.740     3267.337     1405.751      825.985        1.205        0.275      136.293       26.124        0.037      331.537       -0.385      866.279
12/22/2013  02:45:00     -138.660      -79.587       -4.372       55.440       44.173       33.494     3073.609     1951.248     1121.816        1.586        0.307      159.878       32.184        0.041      331.613       -0.259      866.304
12/22/2013  02:46:00     -112.007      -45.086       -1.732       46.847       30.921       22.410     2194.650      956.137      502.230        0.912        0.183      120.741       21.001        0.030      331.605       -0.272      866.355
12/22/2013  02:47:00     -122.627      -19.786       -5.857       36.630       28.570       22.210     1341.759      816.252      493.288        0.906        0.133      124.213       17.376        0.020      331.479       -0.479      866.413
12/22/2013  02:48:00     -118.305      -28.162       -2.225       34.971       30.668       21.716     1222.991      940.553      471.587        0.871        0.132      121.611       18.575        0.023      331.416       -0.585      866.457
12/22/2013  02:49:00     -142.006      -18.496       -8.233       41.080       37.104       20.151     1687.568     1376.686      406.056        1.202        0.174      143.205       19.394        0.018      331.380       -0.642      866.458
12/22/2013  02:50:00     -103.543      -21.424       -5.960       35.113       21.796       14.807     1232.893      475.058      219.260        0.657        0.096      105.736       14.139        0.018      331.419       -0.579      866.448
12/22/2013  02:51:00      -88.386      -13.131       -6.681       31.044       24.450       17.058      963.713      597.807      290.985        0.494        0.093       89.356       16.143        0.033      331.448       -0.532      866.441
12/22/2013  02:52:00      -77.379      -21.292      -10.540       23.983       26.913       10.880      575.193      724.292      118.372        0.398        0.071       80.255        9.355        0.014      331.465       -0.503      866.444
12/22/2013  02:53:00      -64.005      -38.125       -5.140       21.278       21.145       16.269      452.761      447.113      264.668        0.337        0.058       74.499       13.472        0.033      331.431       -0.559      866.437
12/22/2013  02:54:00      -28.145      -14.301       -2.892       16.351       14.263       10.963      267.358      203.446      120.181        0.080        0.030       31.569        8.844        0.078      331.386       -0.632      866.456
12/22/2013  02:55:00      -50.432       -6.434      -10.371       13.740       17.922        9.978      188.797      321.211       99.558        0.165        0.030       50.841        9.811        0.037      331.359       -0.676      866.478
12/22/2013  02:56:00      -86.732        7.071       -8.896       31.379       21.930       13.788      984.668      480.930      190.103        0.465        0.083       87.020        7.034        0.007      331.429       -0.562      866.499
12/22/2013  02:57:00      -92.352        2.795       -3.821       37.785       26.928       16.880     1427.719      725.119      284.927        0.549        0.122       92.394       16.457        0.032      331.457       -0.517      866.511
12/22/2013  02:58:00      -90.467      -17.692       -1.095       21.408       31.012       12.271      458.302      961.735      150.584        0.503        0.079       92.181        7.465        0.007      331.401       -0.609      866.515
12/22/2013  02:59:00      -69.920      -16.189       -0.090       20.364       27.073       18.583      414.694      732.925      345.330        0.332        0.075       71.769       12.842        0.032      331.421       -0.574      866.515
12/22/2013  03:00:00      -54.073      -43.787       -1.797       20.799       18.993       11.581      432.582      360.719      134.129        0.289        0.046       69.579        8.243        0.014      331.408       -0.598      866.509
12/22/2013  03:01:00      -54.622      -35.746       -6.222       21.479       17.951       11.699      461.328      322.228      136.872        0.261        0.046       65.279        5.757        0.008      331.306       -0.765      866.508
12/22/2013  03:02:00     -107.301      -46.071       -9.570       18.227       11.709        6.889      332.241      137.097       47.456        0.712        0.026      116.773        4.513        0.001      331.253       -0.851      866.510
12/22/2013  03:03:00     -133.571      -33.347      -13.916       19.374       17.897       13.717      375.364      320.312      188.162        1.002        0.044      137.671       10.123        0.005      331.231       -0.887      866.518
12/22/2013  03:04:00     -125.651      -45.306      -11.144       19.610       20.110       10.686      384.547      404.406      114.189        0.943        0.045      133.570       10.982        0.007      331.254       -0.849      866.508
12/22/2013  03:05:00      -69.097      -47.045       -0.857       36.407       23.588       19.607     1325.449      556.383      384.435        0.463        0.113       83.592       16.663        0.040      331.233       -0.883      866.485
12/22/2013  03:06:00      -55.173      -43.552       -6.569       28.242       25.117       17.114      797.585      630.844      292.884        0.335        0.086       70.291       14.012        0.040      331.344       -0.702      866.468
12/22/2013  03:07:00      -57.748      -24.948       -0.675       11.612       17.106       11.853      134.848      292.601      140.492        0.226        0.028       62.907        9.178        0.021      331.423       -0.573      866.461
12/22/2013  03:08:00      -32.614       -6.000        0.426        9.204        8.792        5.874       84.716       77.307       34.506        0.065        0.010       33.161        5.092        0.024      331.505       -0.437      866.452
12/22/2013  03:09:00       -3.958       -7.500        1.363        5.235        8.035        5.458       27.404       64.560       29.790        0.010        0.006        8.480        3.865        0.208      331.508       -0.432      866.446
12/22/2013  03:10:00        0.400       15.395       17.573       11.579       11.014       13.198      134.062      121.299      174.200        0.049        0.021       15.400       11.253        0.534      331.551       -0.362      866.437
12/22/2013  03:11:00        0.159       15.947       22.127        8.197       13.521        6.462       67.190      182.820       41.754        0.052        0.015       15.948        6.351        0.159      331.508       -0.431      866.413
12/22/2013  03:12:00        0.887       -3.385       23.171        9.376       16.543        9.258       87.907      273.665       85.712        0.050        0.022        3.499        5.792        2.740      331.566       -0.337      866.378
12/22/2013  03:13:00      -10.396      -36.903        3.143       15.809       19.032       15.640      249.937      362.207      244.599        0.117        0.043       38.340        9.825        0.066      331.627       -0.235      866.350
12/22/2013  03:14:00      -35.934      -16.970       -7.345       13.194       13.146       10.384      174.072      172.826      107.819        0.104        0.023       39.740        8.366        0.044      331.440       -0.545      866.332
12/22/2013  03:15:00      -20.751       -7.433        1.075       19.275       14.148       14.581      371.526      200.172      212.603        0.064        0.039       22.042        9.681        0.193      331.459       -0.512      866.332
12/22/2013  03:16:00      -30.993        1.139       -0.237       26.531       10.790       13.924      703.905      116.417      193.870        0.099        0.051       31.014       15.723        0.257      331.518       -0.415      866.353
12/22/2013  03:17:00      -59.533       -1.664       -4.801       21.279       18.516       12.492      452.800      342.842      156.054        0.226        0.048       59.556        9.420        0.025      331.500       -0.447      866.356
12/22/2013  03:18:00      -59.513       -7.009       -5.359       14.008       11.983        8.282      196.224      143.595       68.597        0.201        0.020       59.924        7.687        0.016      331.472       -0.492      866.343
12/22/2013  03:19:00      -72.520      -18.785       -8.046       10.936       13.138        9.351      119.588      172.594       87.433        0.303        0.019       74.913        6.506        0.008      331.491       -0.461      866.335
12/22/2013  03:20:00      -84.582      -30.385       -6.400       16.271       18.150       12.571      264.749      329.407      158.026        0.444        0.038       89.874        7.692        0.007      331.482       -0.476      866.339
12/22/2013  03:21:00      -38.524      -31.942        8.834       31.924       19.381       16.075     1019.140      375.642      258.404        0.212        0.083       50.044       16.891        0.114      331.421       -0.576      866.329
12/22/2013  03:22:00      -25.298      -13.624       -1.875       25.772       20.387       16.885      664.204      415.634      285.108        0.110        0.068       28.733       16.303        0.322      331.439       -0.548      866.314
12/22/2013  03:23:00      -31.384        3.618       -0.903       14.183       15.555        8.675      201.146      241.949       75.257        0.076        0.026       31.592        7.311        0.054      331.311       -0.756      866.296
12/22/2013  03:24:00      -30.715        9.537       -3.840        6.946        5.228        5.620       48.248       27.336       31.581        0.058        0.005       32.162        4.042        0.016      331.327       -0.729      866.300
12/22/2013  03:25:00      -49.237        0.431       -6.697        9.515        9.058        5.881       90.542       82.049       34.591        0.134        0.010       49.239        2.426        0.002      331.408       -0.597      866.317
12/22/2013  03:26:00      -47.845        7.365       -8.075        8.882       11.979        6.930       78.885      143.503       48.020        0.134        0.014       48.409        2.879        0.004      331.334       -0.718      866.345
12/22/2013  03:27:00      -37.747        9.241       -5.726       10.159       11.767        8.832      103.214      138.455       78.008        0.093        0.016       38.862        7.716        0.039      331.324       -0.734      866.371
12/22/2013  03:28:00      -49.546        0.204       -3.586       10.245       19.286        7.568      104.959      371.967       57.277        0.150        0.027       49.547        5.441        0.012      331.306       -0.764      866.389
12/22/2013  03:29:00      -43.426      -27.822        1.322       17.865       12.565        8.658      319.141      157.887       74.964        0.161        0.028       51.574        2.838        0.003      331.224       -0.899      866.411
12/22/2013  03:30:00      -44.568      -25.925       -0.254       19.915       12.736        9.262      396.624      162.194       85.780        0.165        0.032       51.560        3.326        0.004      331.174       -0.981      866.427
12/22/2013  03:31:00      -35.071       -6.330       -2.381       15.959       12.714        8.942      254.702      161.652       79.963        0.089        0.025       35.638        4.613        0.017      331.155       -1.013      866.462
12/22/2013  03:32:00      -35.934      -16.533       -0.351       16.752       15.373       10.135      280.625      236.327      102.709        0.109        0.031       39.554        9.287        0.055      331.220       -0.904      866.473
12/22/2013  03:33:00        3.840       -6.172       10.663       26.913       15.464       13.173      724.324      239.139      173.541        0.065        0.057        7.269        8.973        1.524      331.314       -0.749      866.471
12/22/2013  03:34:00      -27.514       -9.891       14.725       32.124       28.977       19.231     1031.973      839.695      369.826        0.166        0.112       29.237       21.337        0.533      331.325       -0.733      866.469
12/22/2013  03:35:00      -46.122      -29.785        7.995       29.109       32.562       15.602      847.357     1060.312      243.432        0.261        0.108       54.903       12.263        0.050      331.337       -0.713      866.469
12/22/2013  03:36:00      -74.683      -39.558        1.932       26.976       31.275       18.020      727.678      978.132      324.737        0.459        0.102       84.512       16.031        0.036      331.304       -0.767      866.471
12/22/2013  03:37:00      -18.580      -32.180       -1.057       34.001       28.158       17.101     1156.068      792.899      292.450        0.181        0.112       37.159       16.118        0.188      331.369       -0.660      866.476
12/22/2013  03:38:00      -22.777      -21.169        3.738       35.810       24.079       20.825     1282.343      579.775      433.661        0.164        0.115       31.096       16.191        0.271      331.375       -0.651      866.492
12/22/2013  03:39:00      -15.946        0.932       14.334       22.882       18.567       15.735      523.583      344.725      247.585        0.079        0.056       15.973       10.582        0.439      331.340       -0.708      866.498
12/22/2013  03:40:00        1.679       11.090       10.737       21.229        9.800       12.235      450.686       96.038      149.685        0.047        0.035       11.217       13.550        1.459      331.374       -0.652      866.505
12/22/2013  03:41:00      -23.548        6.122        1.811       24.305       13.302       15.514      590.744      176.937      240.672        0.080        0.050       24.331       13.279        0.298      331.394       -0.619      866.510
12/22/2013  03:42:00      -35.786       -3.324       -3.766       30.198       10.919        9.920      911.908      119.218       98.407        0.122        0.056       35.940        7.121        0.039      331.429       -0.562      866.507
12/22/2013  03:43:00      -42.245      -23.468        1.059       21.528       20.981       11.849      463.456      440.188      140.398        0.169        0.052       48.325       11.394        0.056      331.349       -0.693      866.506
12/22/2013  03:44:00      -21.187      -21.178        6.252       32.789       15.879       12.442     1075.121      252.145      154.794        0.121        0.074       29.957       16.540        0.305      331.338       -0.710      866.498
12/22/2013  03:45:00       -8.354      -14.052        3.783       25.480       16.817       14.974      649.246      282.824      224.235        0.072        0.058       16.348       12.181        0.555      331.417       -0.582      866.499
12/22/2013  03:46:00      -46.012      -24.989        7.661       45.737       33.753       20.720     2091.844     1139.271      429.320        0.323        0.183       52.360       19.301        0.136      331.462       -0.509      866.498
12/22/2013  03:47:00      -60.651      -36.065        4.142       49.262       26.950       19.963     2426.790      726.283      398.502        0.427        0.178       70.563       23.700        0.113      331.458       -0.514      866.505
12/22/2013  03:48:00      -89.332      -44.684        2.196       31.112       34.012       19.601      967.984     1156.838      384.189        0.624        0.125       99.884       17.095        0.029      331.419       -0.580      866.511
12/22/2013  03:49:00      -51.527       -7.840        2.200       27.554       22.949       13.087      759.241      526.644      171.262        0.209        0.073       52.120        9.714        0.035      331.368       -0.661      866.514
12/22/2013  03:50:00      -45.429      -24.196        2.247       28.547       14.463       15.331      814.931      209.184      235.054        0.196        0.063       51.470       15.989        0.097      331.386       -0.633      866.512
12/22/2013  03:51:00      -52.168      -30.627        1.919       34.137       26.043       16.526     1165.345      678.244      273.109        0.289        0.106       60.494       16.049        0.070      331.361       -0.673      866.514
12/22/2013  03:52:00      -57.175      -62.277       -6.743       32.276       26.049       19.646     1041.754      678.527      385.955        0.465        0.105       84.542       22.254        0.069      331.498       -0.448      866.518
12/22/2013  03:53:00      -78.983      -21.361       -6.852       19.790       26.578       11.588      391.658      706.364      134.283        0.399        0.062       81.820        9.845        0.014      331.437       -0.549      866.525
12/22/2013  03:54:00      -67.901       -7.627       -4.062       26.293       17.340       12.186      691.340      300.677      148.493        0.291        0.057       68.328       11.126        0.027      331.328       -0.726      866.539
12/22/2013  03:55:00      -76.588      -18.036       -3.705       23.062       20.254       13.616      531.845      410.229      185.393        0.367        0.056       78.683       12.194        0.024      331.275       -0.813      866.543
12/22/2013  03:56:00      -75.587      -22.200       -1.310       27.691       24.364       15.751      766.785      593.603      248.100        0.391        0.080       78.780       12.812        0.026      331.242       -0.868      866.537
12/22/2013  03:57:00     -128.927      -13.110       -7.006       20.982       17.247       13.028      440.225      297.474      169.723        0.888        0.045      129.592        5.562        0.002      331.222       -0.901      866.548
12/22/2013  03:58:00     -106.051       -2.923       -5.547       33.671       23.810       18.754     1133.711      566.898      351.706        0.667        0.103      106.091       18.421        0.030      331.123       -1.065      866.571
12/22/2013  03:59:00     -101.724       -6.805       -3.988       36.648       25.389       18.341     1343.110      644.616      336.378        0.637        0.116      101.951       17.544        0.030      331.038       -1.206      866.594
12/22/2013  04:00:00     -108.484      -32.133       -0.818       34.402       29.167       20.108     1183.521      850.697      404.317        0.762        0.122      113.143       18.652        0.027      331.102       -1.100      866.598
12/22/2013  04:01:00     -138.017      -24.707       -0.991       46.304       20.775       21.373     2144.075      431.615      456.823        1.135        0.152      140.211       25.650        0.033      331.079       -1.139      866.603
12/22/2013  04:02:00     -149.641        1.512       -7.317       46.807       27.743       22.997     2190.911      769.663      528.877        1.297        0.174      149.648       24.281        0.026      331.005       -1.258      866.625
12/22/2013  04:03:00      -99.635      -22.219       -5.621       51.909       27.056       23.362     2694.526      732.025      545.794        0.721        0.199      102.082       21.443        0.044      330.955       -1.341      866.634
12/22/2013  04:04:00      -86.651      -32.428       -3.631       49.342       40.290       20.490     2434.598     1623.305      419.826        0.652        0.224       92.520       17.718        0.037      330.976       -1.307      866.629
12/22/2013  04:05:00     -120.351      -34.199       -5.713       31.744       21.594       14.684     1007.708      466.303      215.629        0.869        0.084      125.116       13.749        0.012      330.981       -1.298      866.609
12/22/2013  04:06:00     -126.589      -33.668       -8.314       36.554       20.343       15.517     1336.177      413.820      240.773        0.961        0.100      130.990       19.762        0.023      331.097       -1.108      866.599
12/22/2013  04:07:00     -116.889      -32.642       -1.895       26.935       25.036       16.219      725.478      626.805      263.042        0.817        0.081      121.362       14.780        0.015      331.150       -1.021      866.609
12/22/2013  04:08:00     -113.177      -17.624       -6.819       26.870       24.656       17.930      721.971      607.925      321.476        0.741        0.083      114.541       17.558        0.023      331.128       -1.057      866.621
12/22/2013  04:09:00     -130.036      -18.930      -10.491       19.192       19.884       13.338      368.325      395.370      177.910        0.916        0.047      131.407       10.451        0.006      331.127       -1.057      866.628
12/22/2013  04:10:00     -100.199      -30.176        1.909       37.447       27.463       21.719     1402.269      754.201      471.709        0.679        0.131      104.644       21.431        0.042      331.081       -1.134      866.622
12/22/2013  04:11:00      -95.345      -46.302       -3.797       31.269       28.651       20.812      977.766      820.902      433.142        0.674        0.112      105.993       17.497        0.027      331.069       -1.155      866.623
12/22/2013  04:12:00      -93.379      -38.579       -4.432       28.534       25.606       14.378      814.211      655.659      206.723        0.595        0.084      101.035       10.344        0.010      331.121       -1.069      866.617
12/22/2013  04:13:00     -104.324      -28.444       -8.178       20.879       18.137       14.677      435.942      328.938      215.415        0.637        0.049      108.132       10.014        0.009      331.073       -1.147      866.619
12/22/2013  04:14:00      -98.823      -40.157       -6.489       20.018       26.075       14.578      400.729      679.921      212.513        0.636        0.065      106.670       11.105        0.011      331.102       -1.101      866.619
12/22/2013  04:15:00      -92.415      -38.110       -5.301       32.021       25.534       12.080     1025.356      651.995      145.934        0.592        0.091       99.965       14.108        0.020      331.068       -1.155      866.602
12/22/2013  04:16:00     -100.074      -27.934       -2.921       29.031       21.076       14.849      842.822      444.214      220.500        0.616        0.075      103.900       15.439        0.022      331.106       -1.094      866.593
12/22/2013  04:17:00     -102.062      -36.967       -7.336       19.137       20.393       11.353      366.238      415.858      128.899        0.637        0.046      108.551        8.046        0.005      331.234       -0.881      866.590
12/22/2013  04:18:00      -97.868      -35.544       -1.455       18.896       18.823       12.941      357.073      354.304      167.466        0.586        0.044      104.123        5.715        0.003      331.345       -0.699      866.599
12/22/2013  04:19:00      -83.825      -20.743        1.730       25.709       21.858       15.404      660.945      477.754      237.289        0.442        0.069       86.353       14.710        0.029      331.363       -0.671      866.621
12/22/2013  04:20:00      -68.536       -3.229        2.798       30.695       20.766       15.457      942.197      431.220      238.924        0.316        0.081       68.612       14.537        0.045      331.312       -0.754      866.642
12/22/2013  04:21:00      -73.491       -7.423       -1.553       27.281       19.868       11.859      744.250      394.726      140.641        0.337        0.064       73.865       10.079        0.019      331.374       -0.652      866.662
12/22/2013  04:22:00      -43.206      -13.990        3.892       24.042       21.466       12.826      578.001      460.806      164.507        0.164        0.060       45.415       13.808        0.092      331.359       -0.677      866.675
12/22/2013  04:23:00      -25.155       -9.785        2.403       16.627       13.869        6.131      276.468      192.358       37.586        0.062        0.025       26.991        7.044        0.068      331.395       -0.618      866.675
12/22/2013  04:24:00        0.013        1.004        5.780        8.300        6.473        6.242       68.887       41.898       38.962        0.009        0.007        1.004        3.328       10.985      331.447       -0.530      866.698
12/22/2013  04:25:00       -5.130       -1.489        4.790        8.063        5.343        6.724       65.019       28.546       45.212        0.010        0.007        5.342        4.931        0.852      331.500       -0.447      866.718
12/22/2013  04:26:00      -25.887      -18.758        0.959       11.468       10.318        6.819      131.509      106.466       46.497        0.065        0.014       31.969        3.299        0.011      331.353       -0.688      866.717
12/22/2013  04:27:00       -8.655      -10.784        2.939        8.162       10.620        8.143       66.615      112.786       66.309        0.022        0.012       13.828        6.076        0.193      331.389       -0.628      866.697
12/22/2013  04:28:00      -13.678       -0.994        3.906       10.839        2.951        4.423      117.486        8.710       19.566        0.017        0.007       13.714        4.750        0.120      331.423       -0.571      866.673
12/22/2013  04:29:00      -40.962       -4.868       -6.080       12.572        7.744        7.967      158.060       59.970       63.469        0.101        0.014       41.250        5.658        0.019      331.482       -0.476      866.636
12/22/2013  04:30:00      -73.295      -40.636       -4.695       15.889       18.511       12.773      252.460      342.674      163.142        0.390        0.038       83.806        7.925        0.009      331.283       -0.801      866.583
12/22/2013  04:31:00      -62.668      -40.844        0.196       33.601       23.304       18.997     1129.060      543.083      360.895        0.381        0.102       74.803       17.613        0.055      331.189       -0.956      866.531
12/22/2013  04:32:00      -59.617      -38.850        6.121       33.446       33.447       21.267     1118.623     1118.727      452.300        0.389        0.134       71.158       20.098        0.080      331.156       -1.009      866.496
12/22/2013  04:33:00      -86.752      -22.512        0.925       22.336       31.686       12.029      498.875     1004.008      144.707        0.484        0.082       89.626        8.105        0.008      331.159       -1.005      866.492
12/22/2013  04:34:00     -101.033       30.225       -2.741       28.441       17.822       13.446      808.884      317.638      180.782        0.622        0.065      105.457       12.467        0.014      331.086       -1.125      866.525
12/22/2013  04:35:00     -119.813        5.130      -14.037       38.185       31.573       20.423     1458.113      996.828      417.090        0.872        0.144      119.923        5.764        0.002      331.097       -1.108      866.563
12/22/2013  04:36:00     -110.128      -60.093      -10.657       41.190       35.047       20.244     1696.636     1228.309      409.838        0.959        0.167      125.457       17.211        0.019      331.030       -1.217      866.562
12/22/2013  04:37:00      -11.464      -30.827       16.946       47.009       26.962       22.929     2209.868      726.923      525.726        0.242        0.173       32.889       27.262        0.687      331.102       -1.102      866.542
12/22/2013  04:38:00      -31.810      -18.381        4.498       36.846       16.673       17.688     1357.597      277.985      312.849        0.166        0.097       36.738       22.782        0.385      331.211       -0.921      866.540
12/22/2013  04:39:00      -98.056       15.832       -4.546       34.227       14.320       15.044     1171.459      205.049      226.315        0.574        0.080       99.326       19.119        0.037      331.166       -0.993      866.581
12/22/2013  04:40:00     -112.307       -7.808      -19.157       20.018       17.769       10.725      400.710      315.728      115.035        0.694        0.042      112.578        9.740        0.007      331.125       -1.061      866.613
12/22/2013  04:41:00      -78.810      -20.346        1.297       43.107       27.072       21.460     1858.199      732.892      460.550        0.484        0.153       81.394       25.147        0.095      331.128       -1.056      866.603
12/22/2013  04:42:00      -23.161      -28.728        7.954       32.704       21.687       15.981     1069.564      470.318      255.403        0.161        0.090       36.901       15.493        0.176      331.124       -1.064      866.575
12/22/2013  04:43:00      -73.353       15.229       -2.564       15.700       18.193        8.681      246.475      330.976       75.367        0.314        0.033       74.917        8.157        0.012      331.163       -0.999      866.585
12/22/2013  04:44:00      -60.927       46.466      -17.397       12.010       12.006        6.748      144.243      144.142       45.537        0.325        0.017       76.624        4.177        0.003      331.199       -0.940      866.620
12/22/2013  04:45:00      -13.703       55.649       -4.650       38.542       32.969       20.214     1485.492     1086.954      408.603        0.314        0.149       57.311       21.164        0.136      331.312       -0.754      866.647
12/22/2013  04:46:00       18.896       41.042       -2.732       16.784       27.503       15.554      281.696      756.422      241.933        0.166        0.064       45.183       11.866        0.069      331.210       -0.921      866.655
12/22/2013  04:47:00        7.808        9.035       -5.814       12.716       11.977        6.002      161.695      143.456       36.024        0.026        0.017       11.942        5.198        0.189      331.227       -0.893      866.663
12/22/2013  04:48:00       -8.718       -3.635       -0.079        5.545        6.756        5.886       30.751       45.644       34.642        0.010        0.006        9.446        4.454        0.222      331.329       -0.724      866.690
12/22/2013  04:49:00        4.935       14.218       -1.588       10.476       14.292        7.239      109.746      204.248       52.404        0.030        0.018       15.050        4.333        0.083      331.289       -0.792      866.715
12/22/2013  04:50:00       32.814       20.922        1.063        8.802        7.959        6.061       77.480       63.342       36.737        0.085        0.009       38.917        3.666        0.009      331.234       -0.882      866.734
12/22/2013  04:51:00       27.295        4.469       -4.162        8.719       10.768        3.355       76.029      115.959       11.255        0.049        0.010       27.658        2.034        0.005      331.332       -0.722      866.747
12/22/2013  04:52:00       -8.914      -11.056        5.066        6.746        6.235        5.093       45.508       38.871       25.937        0.017        0.006       14.202        3.099        0.048      331.376       -0.647      866.750
12/22/2013  04:53:00      -27.578        7.796       -1.194       10.307       13.230        5.926      106.239      175.032       35.115        0.057        0.016       28.659        6.316        0.049      331.291       -0.790      866.764
12/22/2013  04:54:00      -16.535        7.039       -2.520       10.326        7.500        4.888      106.634       56.257       23.895        0.026        0.009       17.971        3.819        0.045      331.281       -0.804      866.784
12/22/2013  04:55:00       -1.839        1.211        2.351        5.690        4.148        3.261       32.381       17.209       10.631        0.004        0.003        2.202        2.638        1.436      331.356       -0.680      866.793
12/22/2013  04:56:00      -20.850      -12.334       -2.117       20.119        7.989        7.334      404.786       63.832       53.791        0.056        0.026       24.225        4.505        0.035      331.340       -0.706      866.793
12/22/2013  04:57:00      -57.255      -17.928       -7.139        5.172        7.744        4.193       26.750       59.964       17.582        0.188        0.005       59.996        2.392        0.002      331.221       -0.903      866.791
12/22/2013  04:58:00      -42.893      -21.534       -5.756       10.489        5.163        5.801      110.023       26.657       33.653        0.125        0.009       47.995        4.858        0.010      331.311       -0.755      866.779
12/22/2013  04:59:00        3.227      -12.816        4.063       15.271       13.070        6.365      233.215      170.824       40.516        0.032        0.022       13.216        5.294        0.160      331.351       -0.691      866.784
12/22/2013  05:00:00       49.143       27.035        6.912       18.086        9.812       12.634      327.107       96.281      159.618        0.189        0.029       56.089       11.723        0.044      331.331       -0.722      866.800
12/22/2013  05:01:00       54.057       24.314       -1.725        6.171       10.801        6.848       38.077      116.658       46.897        0.186        0.010       59.273        3.498        0.003      331.307       -0.762      866.814
12/22/2013  05:02:00       33.589       11.901        7.965       18.733        8.616       12.103      350.917       74.243      146.480        0.095        0.029       35.635       13.563        0.145      331.381       -0.641      866.806
12/22/2013  05:03:00       16.053       38.269       37.091       13.501       17.632       14.998      182.267      310.880      224.939        0.191        0.036       41.499       11.446        0.076      331.387       -0.630      866.786
12/22/2013  05:04:00       -1.126       24.448       43.684        9.319       21.420        9.050       86.848      458.806       81.895        0.157        0.031       24.474       12.131        0.246      331.422       -0.574      866.772
12/22/2013  05:05:00        0.940       23.778       42.031       15.099       16.861       12.785      227.980      284.291      163.446        0.150        0.034       23.797       11.997        0.254      331.327       -0.730      866.772
12/22/2013  05:06:00       14.838       41.237       51.734       28.059       19.192       12.663      787.279      368.320      160.343        0.296        0.066       43.826       12.970        0.088      331.247       -0.861      866.780
12/22/2013  05:07:00       63.895       46.433       -0.965       22.167       17.310       17.230      491.391      299.622      296.885        0.366        0.054       78.985       11.018        0.019      331.119       -1.072      866.801
12/22/2013  05:08:00       52.157       36.551       -3.667       27.232       19.520       17.313      741.593      381.012      299.754        0.275        0.071       63.690       10.467        0.027      331.040       -1.203      866.820
12/22/2013  05:09:00       37.955       23.811        4.666       21.446       21.705       12.957      459.937      471.115      167.892        0.156        0.055       44.805       13.620        0.092      331.061       -1.168      866.832
12/22/2013  05:10:00        2.556       -9.207       21.368       12.217       29.422       14.798      149.251      865.675      218.992        0.089        0.062        9.556       14.867        2.421      331.127       -1.058      866.826
12/22/2013  05:11:00      -25.909      -51.233       -9.537       17.255       11.510       12.059      297.718      132.484      145.429        0.198        0.029       57.412        9.179        0.026      331.215       -0.914      866.820
12/22/2013  05:12:00      -21.019      -28.731       -0.905       13.804       22.294       10.918      190.554      497.025      119.198        0.104        0.040       35.599        5.754        0.026      331.352       -0.687      866.840
12/22/2013  05:13:00       -3.976       13.022       10.105       13.043       14.297        7.755      170.130      204.392       60.138        0.036        0.022       13.616        5.340        0.154      331.256       -0.845      866.888
12/22/2013  05:14:00       43.815       41.013        6.109       17.416       14.904       16.539      303.312      222.137      273.531        0.222        0.040       60.015       11.106        0.034      331.129       -1.056      866.935
12/22/2013  05:15:00       66.580       48.868        9.886       27.682       23.252       16.706      766.268      540.646      279.096        0.425        0.079       82.589        8.586        0.011      331.024       -1.228      866.974
12/22/2013  05:16:00       63.873       55.563       41.117       25.665       16.045       21.057      658.678      257.443      443.408        0.511        0.068       84.658       14.586        0.030      331.020       -1.233      866.982
12/22/2013  05:17:00       21.535       32.876       36.904       22.889       22.326       15.108      523.884      498.446      228.266        0.208        0.063       39.301       11.364        0.084      331.089       -1.121      866.999
12/22/2013  05:18:00       -3.326        1.811       16.685        8.208        7.898        7.495       67.372       62.380       56.182        0.024        0.009        3.787        5.131        1.835      331.178       -0.974      867.022
12/22/2013  05:19:00       -8.330        1.335       12.364        6.525        8.461        5.953       42.577       71.583       35.439        0.019        0.007        8.436        5.741        0.463      331.146       -1.027      867.043
12/22/2013  05:20:00       24.083       16.990        8.562       13.946        8.327        8.745      194.484       69.346       76.471        0.064        0.017       29.473        5.488        0.035      331.144       -1.034      867.053
12/22/2013  05:21:00       38.615       39.091       12.464       13.490       16.280       12.018      181.977      265.039      144.440        0.188        0.030       54.948        8.358        0.023      331.038       -1.203      867.063
12/22/2013  05:22:00       27.873       31.474        0.144       23.411       23.182       16.340      548.061      537.421      266.988        0.156        0.068       42.042       13.540        0.104      330.966       -1.322      867.079
12/22/2013  05:23:00       44.261       38.392        1.221       33.399       23.488       22.760     1115.493      551.693      518.019        0.281        0.109       58.591       20.314        0.120      330.936       -1.371      867.084
12/22/2013  05:24:00       20.431       48.130       -9.337       14.317       16.092        9.375      204.971      258.941       87.883        0.169        0.028       52.287        5.585        0.011      330.914       -1.408      867.075
12/22/2013  05:25:00       11.083       49.721       -8.911        6.883        6.962        5.223       47.370       48.465       27.275        0.140        0.006       50.941        4.005        0.006      331.013       -1.242      867.059
12/22/2013  05:26:00        2.019       45.475       -5.245        4.635        8.933        3.003       21.479       79.802        9.018        0.110        0.006       45.519        2.736        0.004      331.066       -1.159      867.051
12/22/2013  05:27:00       12.445       77.322       -7.362        7.610       11.082        5.576       57.919      122.810       31.092        0.320        0.011       78.317        5.307        0.005      331.091       -1.116      867.046
12/22/2013  05:28:00       22.898       47.138       -2.638       11.988       27.698       13.903      143.716      767.193      193.299        0.193        0.055       52.405       13.263        0.064      331.023       -1.229      867.043
12/22/2013  05:29:00       26.009       32.985       -5.976       15.324       19.495       10.677      234.825      380.048      113.988        0.126        0.036       42.005        8.113        0.037      330.993       -1.278      867.027
12/22/2013  05:30:00       25.392        8.666       -3.415        8.792        6.651        5.902       77.298       44.238       34.828        0.044        0.008       26.830        3.545        0.017      331.033       -1.215      867.012
12/22/2013  05:31:00        3.949        1.007       -1.544        5.463        6.442        7.494       29.847       41.500       56.155        0.007        0.006        4.076        5.560        1.861      331.105       -1.095      867.011
12/22/2013  05:32:00        7.674        7.688       14.894        7.074        7.446        4.884       50.045       55.450       23.855        0.023        0.006       10.862        4.018        0.137      331.132       -1.051      867.034
12/22/2013  05:33:00       38.026       23.462       11.906       12.389        5.706        9.219      153.498       32.555       84.994        0.120        0.014       44.681        8.160        0.033      331.142       -1.034      867.077
12/22/2013  05:34:00       34.115       26.965        3.606       10.443        8.667        7.715      109.059       75.116       59.514        0.107        0.012       43.485        3.623        0.007      331.069       -1.156      867.121
12/22/2013  05:35:00       35.221       31.861       10.256        8.554        6.639        6.123       73.165       44.074       37.490        0.126        0.008       47.494        4.856        0.010      331.045       -1.194      867.147
12/22/2013  05:36:00       23.241       30.015       27.373       17.912       10.349        9.240      320.849      107.112       85.374        0.135        0.026       37.961       10.789        0.081      331.089       -1.121      867.153
12/22/2013  05:37:00       18.255       25.554       32.322       15.275       12.495        7.336      233.320      156.130       53.824        0.124        0.022       31.405        5.968        0.036      331.074       -1.147      867.139
12/22/2013  05:38:00       -3.506       12.914       30.025        6.840       14.061        9.417       46.782      197.716       88.687        0.071        0.017       13.381       10.120        0.572      331.126       -1.061      867.130
12/22/2013  05:39:00       -2.659      -12.296        4.064        9.918       11.972       10.686       98.368      143.329      114.195        0.027        0.018       12.580        6.527        0.269      331.177       -0.976      867.126
12/22/2013  05:40:00      -20.890      -10.107        1.013       19.046        8.003        8.100      362.767       64.054       65.611        0.052        0.025       23.207        2.897        0.016      330.974       -1.309      867.133
12/22/2013  05:41:00      -11.973      -11.804       -2.354       16.946       10.756       10.554      287.166      115.682      111.382        0.040        0.026       16.813        8.228        0.239      331.106       -1.093      867.140
12/22/2013  05:42:00      -13.818      -18.597        2.455        9.462       10.341        9.675       89.536      106.934       93.602        0.042        0.015       23.169        3.653        0.025      331.149       -1.022      867.143
12/22/2013  05:43:00      -67.235      -16.486       -5.994       26.578       17.490       13.061      706.368      305.883      170.580        0.301        0.059       69.227       15.728        0.052      331.221       -0.902      867.136
12/22/2013  05:44:00      -58.086      -33.995        4.209       42.545       20.119       14.591     1810.054      404.762      212.904        0.349        0.121       67.302       15.084        0.050      331.240       -0.873      867.131
12/22/2013  05:45:00      -64.902      -47.632        4.572       37.321       26.413       20.733     1392.860      697.662      429.878        0.451        0.126       80.505       19.997        0.062      331.273       -0.818      867.131
12/22/2013  05:46:00     -129.058      -46.006       -5.558       21.284       20.263       13.821      453.008      410.577      191.015        0.993        0.053      137.013        9.253        0.005      331.205       -0.929      867.133
12/22/2013  05:47:00      -97.470      -21.328        1.050       36.562       21.388       19.622     1336.802      457.433      385.029        0.607        0.109       99.776       19.742        0.039      331.208       -0.923      867.145
12/22/2013  05:48:00      -97.155      -11.973       -2.678       28.535       22.743       17.128      814.268      517.263      293.377        0.561        0.081       97.890       14.133        0.021      331.154       -1.013      867.149
12/22/2013  05:49:00      -97.046       -6.048       -5.148       29.726       20.051       20.259      883.627      402.045      410.444        0.559        0.085       97.234       20.235        0.043      331.106       -1.094      867.154
12/22/2013  05:50:00      -84.766       -3.296       -6.262       37.761       24.057       17.937     1425.917      578.715      321.731        0.478        0.116       84.830       18.485        0.047      331.129       -1.054      867.166
12/22/2013  05:51:00      -99.786       -6.196       -6.435       33.399       20.760       17.138     1115.526      430.985      293.715        0.594        0.092       99.978       17.428        0.030      331.056       -1.176      867.193
12/22/2013  05:52:00     -122.064      -21.008      -11.803       27.933       19.731       15.443      780.240      389.302      238.490        0.844        0.070      123.859       11.283        0.008      331.100       -1.103      867.205
12/22/2013  05:53:00     -120.509      -39.294      -13.639       18.299       14.796        9.086      334.849      218.918       82.556        0.844        0.032      126.753        3.586        0.001      331.012       -1.248      867.201
12/22/2013  05:54:00     -101.600      -50.719      -15.486       18.037       17.727       10.463      325.335      314.232      109.481        0.694        0.037      113.556        6.269        0.003      330.966       -1.321      867.186
12/22/2013  05:55:00      -90.109      -26.078      -10.047       19.527       22.332       13.675      381.319      498.713      187.018        0.498        0.053       93.807        5.366        0.003      330.938       -1.368      867.187
12/22/2013  05:56:00     -101.480      -16.074      -10.629       22.734       17.312       12.581      516.849      299.702      158.282        0.582        0.049      102.745       13.218        0.017      330.939       -1.367      867.197
12/22/2013  05:57:00      -69.367      -16.188       -9.039       25.995       22.714       10.968      675.738      515.908      120.290        0.323        0.066       71.231        5.549        0.006      330.976       -1.305      867.234
12/22/2013  05:58:00      -59.615       -9.182      -13.444       16.448       15.070       10.028      270.537      227.100      100.565        0.221        0.030       60.318        5.794        0.009      330.949       -1.351      867.282
12/22/2013  05:59:00      -46.401      -17.990      -10.700       15.243       11.204        9.365      232.344      125.530       87.703        0.152        0.022       49.766        5.699        0.013      330.988       -1.288      867.319
12/22/2013  06:00:00      -26.307       -8.675       -9.521       19.135        8.532        9.983      366.146       72.796       99.657        0.070        0.027       27.700       10.986        0.157      331.146       -1.027      867.345
12/22/2013  06:01:00        0.525       -4.102        8.564        8.915        9.254        7.586       79.477       85.636       57.545        0.016        0.011        4.135        5.956        2.074      331.211       -0.921      867.372
12/22/2013  06:02:00        1.173       -1.445        5.569       14.694       13.690       10.019      215.921      187.425      100.389        0.027        0.025        1.861        6.790       13.321      331.231       -0.887      867.392
12/22/2013  06:03:00      -36.069      -15.195       -0.629       17.374       12.162       12.082      301.842      147.911      145.965        0.106        0.030       39.139        8.994        0.053      331.282       -0.803      867.406
12/22/2013  06:04:00      -48.941      -22.525       -2.210       12.000       10.693       11.404      144.009      114.342      130.057        0.165        0.019       53.876        8.185        0.023      331.076       -1.141      867.425
12/22/2013  06:05:00      -38.145      -22.294       -1.151       16.768       12.596        7.667      281.157      158.651       58.781        0.123        0.025       44.182        4.328        0.010      331.014       -1.245      867.446
12/22/2013  06:06:00       -5.251      -13.970        4.884       16.461        9.110       11.308      270.978       82.996      127.862        0.036        0.024       14.924        8.645        0.336      331.019       -1.235      867.451
12/22/2013  06:07:00       -7.359       -7.021        3.535        9.726       11.911        9.251       94.589      141.866       85.572        0.022        0.016       10.171        5.930        0.340      331.100       -1.104      867.457
12/22/2013  06:08:00       -0.244       -6.953       -3.249        9.023        6.556        5.306       81.409       42.978       28.152        0.011        0.008        6.958        4.269        0.376      331.222       -0.900      867.486
12/22/2013  06:09:00      -16.241       -4.683       -3.225        7.016        6.186        4.806       49.224       38.262       23.094        0.020        0.006       16.903        4.433        0.069      331.260       -0.837      867.509
12/22/2013  06:10:00      -22.678      -17.878       -3.070       10.309        9.103        5.700      106.282       82.856       32.488        0.053        0.011       28.878        4.817        0.028      331.244       -0.864      867.533
12/22/2013  06:11:00      -21.443      -10.048       -6.228        7.106        8.982        5.490       50.491       80.669       30.145        0.038        0.008       23.680        2.930        0.015      331.265       -0.830      867.555
12/22/2013  06:12:00      -30.965        4.937       -3.275        7.906        6.059        4.589       62.499       36.716       21.057        0.056        0.006       31.356        1.906        0.004      331.316       -0.747      867.581
12/22/2013  06:13:00      -43.678       -1.335       -5.747        7.455        6.538        8.375       55.573       42.741       70.135        0.106        0.008       43.698        4.988        0.013      331.147       -1.026      867.619
12/22/2013  06:14:00      -50.816       -1.941       -3.588       17.751       15.537       10.307      315.091      241.409      106.226        0.163        0.033       50.853        9.530        0.035      331.138       -1.042      867.648
12/22/2013  06:15:00      -71.967      -19.047       -9.024       17.917       15.584       11.104      321.025      242.847      123.309        0.316        0.034       74.445        8.158        0.012      331.003       -1.262      867.667
12/22/2013  06:16:00      -75.402       -6.872       -5.341       24.742       21.456       15.383      612.153      460.350      236.648        0.353        0.065       75.714       15.156        0.040      330.971       -1.314      867.695
12/22/2013  06:17:00      -50.586        2.411       -4.829       20.158       20.881       13.343      406.336      436.033      178.038        0.180        0.051       50.643        9.380        0.034      330.988       -1.285      867.719
12/22/2013  06:18:00      -33.427       -3.224       -0.738       11.881       12.909       11.099      141.157      166.642      123.190        0.078        0.022       33.583        6.873        0.042      331.155       -1.012      867.733
12/22/2013  06:19:00      -36.485       -5.720       -1.570       13.493       10.026        9.025      182.069      100.525       81.456        0.087        0.018       36.931        5.106        0.019      331.233       -0.883      867.738
12/22/2013  06:20:00      -29.433      -18.677       -4.637       10.517        5.046        6.480      110.618       25.463       41.986        0.071        0.009       34.859        4.740        0.018      331.183       -0.965      867.746
12/22/2013  06:21:00      -37.316      -19.554       -3.216        9.281       11.545        7.490       86.132      133.291       56.106        0.103        0.014       42.129        4.782        0.013      331.218       -0.908      867.750
12/22/2013  06:22:00      -53.036      -29.908      -14.848       15.250       14.216       11.023      232.550      202.083      121.514        0.224        0.028       60.888        6.341        0.011      331.190       -0.954      867.748
12/22/2013  06:23:00      -70.542      -39.365      -13.804       13.265       14.151        8.428      175.954      200.241       71.030        0.358        0.022       80.782        2.133        0.001      331.004       -1.261      867.755
12/22/2013  06:24:00      -52.754      -42.248       -5.119       18.552       15.259       13.832      344.163      232.830      191.316        0.268        0.038       67.586        4.756        0.005      330.971       -1.316      867.762
12/22/2013  06:25:00      -73.430      -12.925      -14.726       14.199       14.676       11.824      201.616      215.373      139.816        0.317        0.028       74.559        7.069        0.009      330.957       -1.338      867.766
12/22/2013  06:26:00      -40.338      -23.771      -10.613       16.570       14.729       10.186      274.561      216.950      103.757        0.145        0.030       46.821       10.272        0.048      330.919       -1.399      867.767
12/22/2013  06:27:00      -81.207      -21.746      -12.452       15.226       12.955        6.871      231.832      167.835       47.206        0.383        0.022       84.068        5.965        0.005      330.921       -1.396      867.773
12/22/2013  06:28:00      -73.769      -30.610      -10.329       13.437       13.427       10.258      180.563      180.297      105.223        0.348        0.023       79.868        4.874        0.004      330.952       -1.346      867.785
12/22/2013  06:29:00      -56.794      -36.220       -8.399       18.113       22.525       12.067      328.070      507.364      145.623        0.279        0.049       67.361        7.095        0.011      330.936       -1.372      867.818
12/22/2013  06:30:00      -49.505       -6.956        2.523       30.565       25.411       15.556      934.211      645.712      241.993        0.216        0.091       49.992       15.070        0.091      330.936       -1.373      867.855
12/22/2013  06:31:00     -107.550       26.706      -12.018       52.746       27.551       17.618     2782.134      759.070      310.404        0.814        0.193      110.816       17.526        0.025      331.191       -0.953      867.884
12/22/2013  06:32:00     -134.675       33.807      -17.946       41.347       30.949       24.354     1709.609      957.829      593.094        1.143        0.163      138.854       20.481        0.022      331.208       -0.924      867.899
12/22/2013  06:33:00     -133.826        5.191      -16.916       34.342       33.460       19.809     1179.375     1119.604      392.415        1.046        0.135      133.927       13.329        0.010      331.135       -1.046      867.915
12/22/2013  06:34:00      -96.214       14.404       -4.227       34.523       27.836       16.559     1191.821      774.852      274.210        0.586        0.112       97.287       13.238        0.019      331.088       -1.123      867.941
12/22/2013  06:35:00     -114.802       -4.987      -13.967       24.082       24.141       16.219      579.945      582.800      263.050        0.741        0.071      114.910       13.211        0.013      331.011       -1.251      867.965
12/22/2013  06:36:00     -109.052       -8.943      -12.056       32.209       24.291       12.852     1037.406      590.058      165.164        0.695        0.090      109.418       14.987        0.019      331.043       -1.196      867.985
12/22/2013  06:37:00      -87.542      -24.154       -8.187       20.861       17.612       11.840      435.176      310.172      140.194        0.460        0.044       90.813       12.492        0.019      330.990       -1.285      868.005
12/22/2013  06:38:00      -97.030      -33.120       -7.104       17.101       14.026       10.045      292.443      196.715      100.900        0.558        0.030      102.527        8.754        0.007      331.077       -1.140      868.012
12/22/2013  06:39:00     -112.183      -40.448       -7.979       10.309        9.621        8.062      106.280       92.572       65.003        0.727        0.013      119.252        4.788        0.002      331.150       -1.020      868.019
12/22/2013  06:40:00     -110.133      -56.349       -7.752       13.297       16.927       11.639      176.807      286.511      135.474        0.798        0.030      123.711        9.020        0.005      331.073       -1.148      868.018
12/22/2013  06:41:00      -88.935      -52.182       -1.684       28.773       20.151       15.799      827.869      406.062      249.608        0.606        0.074      103.114       16.010        0.024      331.080       -1.137      868.009
12/22/2013  06:42:00      -75.654      -41.539        2.179       29.593       18.129       13.662      875.728      328.657      186.661        0.442        0.070       86.308       12.062        0.020      331.139       -1.039      868.016
12/22/2013  06:43:00      -69.214      -53.471        6.619       36.512       23.635       19.711     1333.096      558.605      388.529        0.499        0.114       87.463       19.621        0.050      331.268       -0.827      868.040
12/22/2013  06:44:00      -15.403      -22.009       12.460       29.081       19.291       14.371      845.687      372.153      206.521        0.115        0.071       26.864       13.340        0.247      331.276       -0.811      868.068
12/22/2013  06:45:00       -2.185      -11.425       13.242       16.722       19.787       10.945      279.612      391.526      119.786        0.055        0.040       11.632       10.742        0.853      331.287       -0.795      868.088
12/22/2013  06:46:00      -54.501      -47.268        0.043       30.671       19.702       14.327      940.682      388.174      205.254        0.337        0.077       72.143       12.800        0.031      331.275       -0.814      868.106
12/22/2013  06:47:00      -80.673      -55.759       -2.444       41.266       22.397       20.274     1702.863      501.633      411.036        0.612        0.131       98.067       19.346        0.039      331.377       -0.645      868.116
12/22/2013  06:48:00      -67.390      -63.261        1.511       45.067       33.802       19.261     2031.063     1142.563      371.000        0.604        0.177       92.431        9.576        0.011      331.294       -0.783      868.121
12/22/2013  06:49:00      -54.212      -35.059        9.666       64.076       39.103       29.976     4105.718     1529.070      898.552        0.540        0.327       64.561       32.148        0.248      331.200       -0.938      868.110
12/22/2013  06:50:00      -32.965      -59.442       10.135       67.392       41.871       33.944     4541.687     1753.145     1152.222        0.608        0.372       67.971       31.670        0.217      331.179       -0.975      868.100
12/22/2013  06:51:00      -67.186      -50.062        7.695       82.144       54.826       41.117     6747.675     3005.839     1690.615        0.926        0.572       83.786       43.171        0.265      331.130       -1.053      868.085
12/22/2013  06:52:00     -100.506      -69.693        5.014       73.206       40.327       33.834     5359.110     1626.232     1144.737        1.156        0.407      122.305       25.660        0.044      331.095       -1.111      868.075
12/22/2013  06:53:00      -14.810      -56.001       -1.993       42.720       38.521       23.461     1825.033     1483.833      550.409        0.361        0.193       57.926       13.259        0.052      331.166       -0.996      868.074
12/22/2013  06:54:00      -36.783      -62.326        4.925       39.038       38.925       27.451     1523.935     1515.179      753.564        0.453        0.190       72.371       18.800        0.067      331.232       -0.884      868.092
12/22/2013  06:55:00      -54.065      -57.730       -3.052       44.633       43.746       30.654     1992.071     1913.738      939.653        0.555        0.242       79.094       28.627        0.131      331.237       -0.877      868.095
12/22/2013  06:56:00      -86.568      -77.398        2.365       65.290       40.884       35.371     4262.722     1671.461     1251.131        1.034        0.359      116.123       38.541        0.110      331.308       -0.759      868.091
12/22/2013  06:57:00      -42.716      -47.763       10.113       63.346       35.901       29.878     4012.658     1288.887      892.709        0.520        0.310       64.078       28.411        0.197      331.331       -0.723      868.075
12/22/2013  06:58:00      -48.347      -62.544       15.116       61.124       36.463       33.611     3736.110     1329.543     1129.711        0.634        0.310       79.052       30.091        0.145      331.327       -0.728      868.071
12/22/2013  06:59:00      -65.933      -72.312        7.501       47.288       42.891       25.696     2236.176     1839.618      660.265        0.718        0.237       97.858       20.719        0.045      331.355       -0.683      868.064
12/22/2013  07:00:00      -35.054      -30.699       11.129       50.997       30.345       23.946     2600.711      920.848      573.414        0.319        0.205       46.596       21.158        0.206      331.358       -0.678      868.041
12/22/2013  07:01:00      -57.557      -34.595        7.123       52.128       35.742       18.780     2717.314     1277.505      352.690        0.445        0.217       67.154       22.544        0.113      331.352       -0.689      868.038
12/22/2013  07:02:00      -70.526      -43.931        2.303       31.852       31.786       22.217     1014.524     1010.339      493.598        0.471        0.126       83.089       17.567        0.045      331.299       -0.774      868.047
12/22/2013  07:03:00      -74.767      -44.986        1.928       31.377       21.600       20.101      984.535      466.545      404.043        0.474        0.093       87.258       18.132        0.043      331.299       -0.775      868.052
12/22/2013  07:04:00      -53.924      -40.628        2.229       29.702       27.350       17.728      882.211      748.049      314.274        0.325        0.097       67.517       14.323        0.045      331.378       -0.645      868.038
12/22/2013  07:05:00      -39.667      -35.880        6.538       25.050       24.207       16.493      627.481      585.988      272.018        0.219        0.074       53.487       13.840        0.067      331.457       -0.516      868.019
12/22/2013  07:06:00      -32.649      -33.899       13.821       25.555       26.730       17.356      653.039      714.488      301.228        0.204        0.083       47.065       12.190        0.067      331.443       -0.538      867.991
12/22/2013  07:07:00      -36.991      -22.897        7.310       24.519       11.953       12.617      601.185      142.873      159.190        0.142        0.045       43.504       10.215        0.055      331.429       -0.561      867.980
12/22/2013  07:08:00      -22.507      -22.910        7.975       25.682       20.227       12.598      659.583      409.142      158.700        0.116        0.061       32.116        7.224        0.051      331.410       -0.593      867.972
12/22/2013  07:09:00       -1.193      -19.091        6.826       25.177       19.493       15.668      633.871      379.984      245.471        0.084        0.063       19.128       17.685        0.855      331.492       -0.460      867.967
12/22/2013  07:10:00       34.221       26.038        3.085       17.210       13.669       12.213      296.175      186.840      149.160        0.125        0.032       43.000       11.935        0.077      331.251       -0.854      867.962
12/22/2013  07:11:00       53.305       38.209        7.329       19.664       16.336       17.427      386.688      266.869      303.708        0.266        0.048       65.585       12.179        0.034      331.114       -1.079      867.959
12/22/2013  07:12:00       86.756       48.159       -3.214       24.090       21.201       20.411      580.316      449.469      416.594        0.565        0.072       99.227       11.065        0.012      330.935       -1.373      867.956
12/22/2013  07:13:00       67.338       32.943        4.226       30.707       30.241       21.968      942.938      914.497      482.604        0.399        0.117       74.965       17.578        0.055      330.882       -1.460      867.968
12/22/2013  07:14:00       43.972       13.398        7.565       24.644       20.425       18.853      607.323      417.194      355.423        0.177        0.069       45.967       10.900        0.056      330.835       -1.538      868.003
12/22/2013  07:15:00        6.277        0.394       -4.772       12.279       20.565       11.610      150.766      422.908      134.783        0.039        0.035        6.289       11.614        3.410      330.838       -1.534      868.054
12/22/2013  07:16:00      -11.637        2.180       -2.828       10.051       17.715       18.874      101.030      313.833      356.217        0.046        0.039       11.839       15.861        1.795      330.981       -1.298      868.080
12/22/2013  07:17:00        9.584       17.147       -0.179        8.130       13.702       15.272       66.101      187.735      233.222        0.044        0.024       19.644       12.860        0.429      331.060       -1.169      868.111
12/22/2013  07:18:00        5.197      -16.479        5.721        5.346        7.151        7.843       28.577       51.137       61.509        0.024        0.007       17.279        3.920        0.051      331.140       -1.038      868.136
12/22/2013  07:19:00        3.366      -21.157        8.558        5.829       18.151        7.147       33.977      329.446       51.073        0.047        0.021       21.423        6.195        0.084      331.118       -1.074      868.153
12/22/2013  07:20:00       16.980       21.082       17.094        9.723       12.491        6.308       94.538      156.019       39.792        0.066        0.015       27.070        4.826        0.032      330.949       -1.349      868.172
12/22/2013  07:21:00        4.773       11.961        1.086        7.905        5.467        4.262       62.486       29.893       18.166        0.014        0.006       12.878        2.476        0.037      330.984       -1.294      868.184
12/22/2013  07:22:00      -10.509       12.079       -4.281        8.044        9.661        6.506       64.710       93.331       42.331        0.024        0.010       16.011        4.709        0.087      331.066       -1.158      868.173
12/22/2013  07:23:00      -14.543        5.594       -1.203        5.099        4.940        3.142       25.995       24.404        9.871        0.015        0.003       15.582        1.758        0.013      331.088       -1.123      868.153
12/22/2013  07:24:00       -6.951       12.292        1.555        6.902        8.587        7.262       47.642       73.738       52.733        0.019        0.009       14.121        5.222        0.137      331.083       -1.132      868.129
12/22/2013  07:25:00       11.514        9.635       14.210        7.260        8.875        9.931       52.705       78.765       98.627        0.033        0.012       15.014        6.476        0.186      331.030       -1.220      868.112
12/22/2013  07:26:00       21.129       26.633        2.837       14.561       11.412       12.090      212.014      130.244      146.164        0.083        0.024       33.996        7.514        0.049      331.137       -1.041      868.105
12/22/2013  07:27:00       35.154       27.580       -1.474        9.880        7.740        8.119       97.614       59.902       65.915        0.111        0.011       44.682        4.138        0.009      331.176       -0.979      868.103
12/22/2013  07:28:00       10.755       12.300       -3.228        7.799        7.968        6.929       60.830       63.482       48.016        0.022        0.009       16.339        6.059        0.138      331.172       -0.986      868.114
12/22/2013  07:29:00       -3.479       13.612       -0.839       11.643        9.239        7.315      135.568       85.350       53.515        0.024        0.014       14.049        7.770        0.306      331.200       -0.936      868.136
12/22/2013  07:30:00      -41.929       20.796       -2.479       16.280       11.704        7.530      265.025      136.980       56.703        0.133        0.023       46.802        8.397        0.032      331.180       -0.972      868.159
12/22/2013  07:31:00      -26.503       39.779       -0.887       11.192       17.247       14.364      125.259      297.458      206.322        0.146        0.031       47.800        9.910        0.043      331.157       -1.010      868.207
12/22/2013  07:32:00      -17.571       39.131        6.490       23.894       22.468       10.353      570.908      504.798      107.193        0.153        0.059       42.895       12.389        0.083      331.236       -0.879      868.277
12/22/2013  07:33:00       19.782       78.738       -8.923       15.875       30.387       15.387      252.021      923.372      236.767        0.404        0.071       81.185       17.869        0.048      331.188       -0.958      868.341
12/22/2013  07:34:00       26.977       66.226      -13.626       15.262       18.677        9.815      232.918      348.833       96.343        0.299        0.034       71.510        8.314        0.014      331.123       -1.067      868.379
12/22/2013  07:35:00       25.548       84.907      -14.739       23.033       28.071       15.086      530.504      787.992      227.589        0.481        0.077       88.668       16.148        0.033      331.129       -1.057      868.420
12/22/2013  07:36:00        1.275      106.368      -17.489        4.326       12.315        6.298       18.715      151.668       39.665        0.592        0.011      106.376        4.880        0.002      331.134       -1.050      868.453
12/22/2013  07:37:00       10.384       94.037      -13.903       12.235       12.045        6.720      149.694      145.080       45.164        0.474        0.017       94.608        5.179        0.003      331.114       -1.081      868.484
12/22/2013  07:38:00       19.896       43.689        0.210       22.145       27.187       17.645      490.405      739.131      311.353        0.192        0.077       48.006       14.348        0.089      331.053       -1.181      868.501
12/22/2013  07:39:00       49.158       40.188        3.825       28.757       20.164       19.519      826.975      406.597      380.998        0.283        0.081       63.495       14.283        0.051      331.054       -1.180      868.520
12/22/2013  07:40:00       51.246       39.579        0.682       26.377       26.000       24.521      695.760      676.017      601.257        0.308        0.099       64.751       15.454        0.057      331.033       -1.214      868.547
12/22/2013  07:41:00       43.427       40.327       -4.850       25.570       20.299       17.754      653.805      412.043      315.221        0.246        0.069       59.264       10.668        0.032      331.025       -1.228      868.576
12/22/2013  07:42:00       16.812       17.189        1.838       15.934       17.875       11.987      253.877      319.507      143.696        0.065        0.036       24.044        4.614        0.037      331.039       -1.205      868.604
12/22/2013  07:43:00       54.416       35.893        3.912       23.635       17.592       17.571      558.637      309.492      308.755        0.272        0.059       65.187       11.996        0.034      331.052       -1.183      868.626
12/22/2013  07:44:00       37.606       34.449       11.380       25.655       16.610       17.044      658.157      275.889      290.495        0.198        0.061       51.000       11.271        0.049      331.069       -1.157      868.644
12/22/2013  07:45:00       26.653       52.199       -5.447       24.782       19.583       14.774      614.160      383.512      218.280        0.234        0.061       58.610       14.462        0.061      331.087       -1.122      868.664
12/22/2013  07:46:00        3.195       57.512       -8.712       12.803       12.715        7.281      163.916      161.659       53.007        0.189        0.019       57.600        4.214        0.005      331.155       -1.011      868.696
12/22/2013  07:47:00       -4.983        9.724        4.032       14.391       13.782        8.475      207.108      189.938       71.832        0.030        0.023       10.926        6.640        0.369      331.199       -0.940      868.728
12/22/2013  07:48:00       -7.032       22.086        5.398       12.133       14.405        7.678      147.209      207.500       58.951        0.049        0.021       23.179        7.915        0.117      331.346       -0.698      868.744
12/22/2013  07:49:00       19.736       42.766       -7.506       12.425       11.663        8.959      154.377      136.024       80.260        0.132        0.019       47.100        6.570        0.019      331.347       -0.697      868.751
12/22/2013  07:50:00      -24.340        7.134       -2.354       13.006       13.511       11.052      169.160      182.538      122.143        0.056        0.024       25.364        7.990        0.099      331.244       -0.865      868.757
12/22/2013  07:51:00      -76.319       -1.192      -11.821       17.498       14.103        8.596      306.173      198.889       73.886        0.327        0.029       76.328        3.629        0.002      331.146       -1.026      868.761
12/22/2013  07:52:00      -98.520       -2.816       -9.579       12.067        9.501       12.070      145.602       90.269      145.674        0.509        0.019       98.560        8.243        0.007      331.137       -1.042      868.778
12/22/2013  07:53:00      -92.187      -17.287      -13.972       10.305       14.823        8.015      106.183      219.725       64.246        0.469        0.020       93.793        4.828        0.003      331.162       -1.000      868.793
12/22/2013  07:54:00      -92.224      -31.085      -11.355       11.095        7.744        7.486      123.109       59.975       56.040        0.492        0.012       97.322        4.381        0.002      331.206       -0.928      868.805
12/22/2013  07:55:00      -66.013      -28.754       -1.852       11.646       12.636        8.096      135.640      159.661       65.538        0.277        0.018       72.003        4.681        0.004      331.276       -0.812      868.806
12/22/2013  07:56:00      -66.623       -3.734       -5.950       10.940       10.480        8.805      119.687      109.828       77.529        0.240        0.015       66.728        6.008        0.008      331.235       -0.880      868.798
12/22/2013  07:57:00      -42.882      -17.529        0.212       12.785        9.277       10.032      163.458       86.063      100.645        0.125        0.018       46.326        9.258        0.040      331.288       -0.794      868.794
12/22/2013  07:58:00      -42.687      -22.502       -1.486       13.918        8.562        5.172      193.702       73.301       26.748        0.131        0.015       48.254        4.193        0.008      331.354       -0.686      868.787
12/22/2013  07:59:00      -37.993      -26.935       -3.329       16.868       12.872        8.885      284.541      165.677       78.939        0.135        0.026       46.572        7.790        0.028      331.386       -0.631      868.791
12/22/2013  08:00:00      -26.543      -20.552        5.202       30.038       13.628       16.455      902.263      185.711      270.773        0.126        0.068       33.569       15.240        0.206      331.375       -0.650      868.807
12/22/2013  08:01:00      -10.824      -28.551        1.472       14.797       17.715        9.000      218.960      313.828       81.002        0.077        0.031       30.534        5.593        0.034      331.534       -0.389      868.822
12/22/2013  08:02:00      -33.358      -30.792        0.920       26.912       16.564        9.396      724.271      274.368       88.283        0.157        0.054       45.397       10.595        0.054      331.571       -0.325      868.819
12/22/2013  08:03:00      -38.890      -38.017        5.671       34.185       16.996       14.792     1168.616      288.879      218.816        0.233        0.084       54.385       19.015        0.122      331.618       -0.250      868.829
12/22/2013  08:04:00      -47.819      -19.604        6.673       35.517       23.895       18.686     1261.431      570.959      349.162        0.245        0.109       51.681       12.437        0.058      331.591       -0.295      868.826
12/22/2013  08:05:00      -67.966      -51.549       -4.141       47.067       28.948       23.630     2215.339      837.991      558.360        0.545        0.181       85.304       29.812        0.122      331.609       -0.264      868.817
12/22/2013  08:06:00      -86.096      -71.801       -3.602       29.802       35.087       19.003      888.160     1231.080      361.113        0.753        0.124      112.107       13.020        0.013      331.608       -0.266      868.813
12/22/2013  08:07:00     -103.582      -75.660       -1.987       35.853       21.477       20.099     1285.473      461.242      403.968        0.930        0.108      128.271       15.057        0.014      331.591       -0.295      868.826
12/22/2013  08:08:00      -75.479      -62.929       -8.247       43.964       27.236       16.879     1932.799      741.810      284.905        0.634        0.148       98.271       15.974        0.026      331.665       -0.173      868.842
12/22/2013  08:09:00      -60.092      -31.633       -2.729       30.280       22.912       14.923      916.905      524.944      222.701        0.314        0.083       67.910       13.201        0.038      331.677       -0.150      868.844
12/22/2013  08:10:00      -25.848       -7.647       10.563       23.315       20.677       12.462      543.607      427.533      155.307        0.098        0.056       26.956        9.575        0.126      331.689       -0.133      868.865
12/22/2013  08:11:00      -22.039       14.515        6.961       18.113        9.615       18.709      328.081       92.454      350.033        0.076        0.039       26.389       16.754        0.403      331.734       -0.058      868.897
12/22/2013  08:12:00       31.807       23.851        6.309       25.332       12.348       16.501      641.693      152.473      272.277        0.134        0.053       39.757        3.912        0.010      331.666       -0.172      868.906
12/22/2013  08:13:00       39.164       25.130        9.442       22.839       14.281       18.730      521.627      203.957      350.813        0.167        0.054       46.533        9.714        0.044      331.636       -0.222      868.890
12/22/2013  08:14:00       45.262       35.079       12.696       21.500       26.544       18.357      462.268      704.579      336.993        0.247        0.075       57.265       17.219        0.090      331.539       -0.382      868.905
12/22/2013  08:15:00       27.287       41.162        1.556       19.453       24.361       14.143      378.401      593.465      200.027        0.181        0.059       49.385        9.174        0.035      331.514       -0.423      868.933
12/22/2013  08:16:00       29.616      104.126      -17.347       22.260       27.223       18.800      495.503      741.066      353.437        0.680        0.080      108.256       12.262        0.013      331.447       -0.532      868.963
12/22/2013  08:17:00       17.978      122.159      -14.038       14.502       18.821       14.687      210.302      354.223      215.703        0.811        0.039      123.475        9.167        0.006      331.489       -0.463      868.994
12/22/2013  08:18:00       20.252      128.216      -14.846       17.351       25.123       21.145      301.074      631.168      447.098        0.922        0.069      129.805       17.431        0.018      331.445       -0.535      869.026
12/22/2013  08:19:00       24.855      113.609      -17.616       27.278       35.481       16.851      744.082     1258.904      283.943        0.806        0.114      116.296       15.807        0.018      331.477       -0.485      869.038
12/22/2013  08:20:00       15.554       77.259       -7.820       19.850       35.239       20.963      394.037     1241.791      439.431        0.417        0.104       78.809       21.038        0.071      331.540       -0.379      869.029
12/22/2013  08:21:00       12.980       98.851      -13.081       10.667       30.197       13.981      113.776      911.854      195.463        0.567        0.061       99.699       14.333        0.021      331.613       -0.259      869.030
12/22/2013  08:22:00       28.838       43.099        0.142       25.304       25.480       19.651      640.283      649.231      386.174        0.218        0.084       51.857       16.757        0.104      331.717       -0.087      869.034
12/22/2013  08:23:00       20.936       65.902       -1.571       23.409       28.845       20.706      547.974      832.022      428.733        0.330        0.090       69.147       16.818        0.059      331.693       -0.128      869.030
12/22/2013  08:24:00       15.446      102.691      -14.083       16.677       26.523       15.194      278.125      703.459      230.872        0.610        0.061      103.846       12.306        0.014      331.604       -0.273      869.016
12/22/2013  08:25:00       13.881       78.317       -2.594       15.478       47.024       21.545      239.560     2211.290      464.196        0.462        0.146       79.537       28.008        0.124      331.678       -0.154      869.009
12/22/2013  08:26:00       17.313       61.537       -9.618       22.047       32.648       16.352      486.069     1065.911      267.396        0.300        0.091       63.926       13.123        0.042      331.683       -0.143      869.009
12/22/2013  08:27:00       28.792       24.064        0.675       16.751       15.402       15.849      280.598      237.210      251.192        0.109        0.038       37.524       10.882        0.084      331.709       -0.100      869.018
12/22/2013  08:28:00       11.470        6.448        8.048       22.865       14.832       14.143      522.801      219.996      200.012        0.059        0.047       13.158       14.028        1.137      331.843        0.117      869.029
12/22/2013  08:29:00        1.806        4.868        2.465       20.426       19.355       14.145      417.229      374.632      200.071        0.051        0.050        5.192       12.535        5.829      331.733       -0.062      869.033
12/22/2013  08:30:00        4.680       25.117        3.635       12.983       13.936       14.693      168.553      194.213      215.882        0.062        0.029       25.550        4.432        0.030      331.769       -0.002      869.032
12/22/2013  08:31:00       22.186       20.988       -0.285       17.024       14.268       11.018      289.802      203.586      121.389        0.077        0.031       30.540        8.755        0.082      331.694       -0.125      869.035
12/22/2013  08:32:00       17.613       31.223       -5.701       11.603       17.460        8.463      134.633      304.853       71.621        0.091        0.026       35.848        8.929        0.062      331.655       -0.189      869.029
12/22/2013  08:33:00       26.407       31.851        0.142        7.625        8.512        7.773       58.147       72.454       60.418        0.095        0.010       41.374        4.329        0.011      331.706       -0.103      869.021
12/22/2013  08:34:00       17.384       29.821       21.041       11.868       12.335       11.591      140.853      152.143      134.348        0.103        0.021       34.518        6.360        0.034      331.712       -0.096      869.027
12/22/2013  08:35:00       19.583       23.386       10.302       10.094        7.398       13.954      101.884       54.734      194.706        0.069        0.018       30.503        6.020        0.039      331.700       -0.115      869.038
12/22/2013  08:36:00        8.371       10.588       -5.552        6.156        7.916        7.595       37.893       62.662       57.683        0.019        0.008       13.497        3.329        0.061      331.729       -0.068      869.054
12/22/2013  08:37:00        4.571       15.035       18.539        9.351       13.188       18.421       87.438      173.931      339.333        0.060        0.030       15.714       12.536        0.636      331.801        0.051      869.041
12/22/2013  08:38:00       15.227       41.636       46.766       16.311       17.100       11.934      266.042      292.412      142.430        0.243        0.035       44.333        9.423        0.045      331.815        0.072      869.023
12/22/2013  08:39:00        5.989       36.822       48.858       16.788       28.912       11.684      281.850      835.923      136.509        0.252        0.063       37.306       12.536        0.113      331.833        0.102      869.015
12/22/2013  08:40:00        6.035       34.870       47.924       20.242       28.889       13.814      409.747      834.600      190.833        0.249        0.072       35.388       11.254        0.101      331.870        0.163      869.023
12/22/2013  08:41:00       20.613       37.268       53.486       33.680       22.221       14.821     1134.332      493.756      219.660        0.326        0.092       42.588       10.395        0.060      331.779        0.014      869.034
12/22/2013  08:42:00       38.926       61.506       54.935       31.723       29.651       31.200     1006.373      879.171      973.433        0.559        0.143       72.789       17.934        0.061      331.732       -0.063      869.072
12/22/2013  08:43:00       -3.441       54.079       72.387       22.373       29.017       18.312      500.542      841.957      335.324        0.493        0.084       54.188       17.530        0.105      331.756       -0.024      869.114
12/22/2013  08:44:00       14.077       52.497       59.584       25.117       32.403       20.503      630.855     1049.954      420.387        0.430        0.105       54.352       18.072        0.111      331.726       -0.072      869.157
12/22/2013  08:45:00       85.719       55.713       37.458       45.776       26.472       35.182     2095.406      700.771     1237.767        0.794        0.202      102.233       16.878        0.027      331.660       -0.182      869.198
12/22/2013  08:46:00       97.784       64.525       61.670       35.648       36.660       34.774     1270.747     1343.922     1209.205        1.068        0.191      117.154       25.846        0.049      331.587       -0.303      869.250
12/22/2013  08:47:00       87.635       64.900       47.890       44.310       28.728       40.762     1963.395      825.278     1661.568        0.932        0.223      109.051       30.715        0.079      331.523       -0.407      869.309
12/22/2013  08:48:00       56.189       72.279       62.988       55.866       37.347       24.757     3121.014     1394.818      612.923        0.874        0.256       91.550       28.003        0.094      331.484       -0.471      869.340
12/22/2013  08:49:00       91.766       55.848       57.739       43.541       38.917       38.353     1895.844     1514.497     1470.964        0.988        0.244      107.424       28.223        0.069      331.447       -0.532      869.331
12/22/2013  08:50:00       77.531       97.557       77.437       48.832       30.365       32.356     2384.562      922.036     1046.913        1.294        0.218      124.613       31.401        0.063      331.477       -0.485      869.307
12/22/2013  08:51:00       49.935       63.682       67.096       37.314       31.882       23.060     1392.302     1016.493      531.741        0.700        0.147       80.925        9.749        0.015      331.573       -0.325      869.286
12/22/2013  08:52:00       51.085       53.785       49.716       49.160       32.625       35.118     2416.698     1064.401     1233.251        0.634        0.236       74.178       21.885        0.087      331.615       -0.255      869.271
12/22/2013  08:53:00       25.152       34.388       52.063       29.781       30.212       19.472      886.884      912.764      379.152        0.335        0.109       42.605       11.176        0.069      331.804        0.055      869.280
12/22/2013  08:54:00       26.796       29.394       34.046       29.160       22.625       20.937      850.310      511.898      438.348        0.227        0.090       39.775       16.809        0.179      331.873        0.170      869.290
12/22/2013  08:55:00       85.096       27.022       27.387       39.285       24.888       39.449     1543.318      619.428     1556.241        0.622        0.186       89.283       29.390        0.108      331.654       -0.191      869.293
12/22/2013  08:56:00       95.496       54.242       39.724       43.300       43.010       37.769     1874.869     1849.872     1426.515        0.939        0.258      109.826       33.245        0.092      331.560       -0.347      869.281
12/22/2013  08:57:00       50.637       52.482       52.986       26.277       18.965       20.213      690.472      359.673      408.559        0.479        0.073       72.928       13.296        0.033      331.659       -0.183      869.249
12/22/2013  08:58:00       54.801       46.069       44.935       25.501       19.308       13.533      650.303      372.809      183.153        0.418        0.060       71.593       10.398        0.021      331.689       -0.134      869.228
12/22/2013  08:59:00       42.392       25.441       47.732       31.010       26.642       23.235      961.631      709.799      539.865        0.347        0.111       49.440       20.680        0.175      331.968        0.325      869.201
12/22/2013  09:00:00       39.947       -4.568       24.972       34.102       23.471       28.718     1162.916      550.903      824.733        0.239        0.127       40.208       26.003        0.418      332.041        0.446      869.188
12/22/2013  09:01:00        2.001       24.972       26.520       14.981       22.963       32.007      224.421      527.285     1024.448        0.155        0.089       25.052       21.208        0.717      332.191        0.694      869.171
12/22/2013  09:02:00        6.017       10.006       20.325       15.067       13.442       14.440      227.003      180.689      208.504        0.058        0.031       11.676        8.654        0.549      332.323        0.912      869.145
12/22/2013  09:03:00      -30.777      -12.068        8.383       38.273       24.628       17.309     1464.852      606.562      299.586        0.177        0.119       33.059       18.809        0.324      332.109        0.558      869.118
12/22/2013  09:04:00      -38.940      -18.591        6.042       35.647       24.107       13.307     1270.700      581.146      177.070        0.196        0.101       43.150       15.366        0.127      332.158        0.638      869.070
12/22/2013  09:05:00      -32.402      -25.849        5.584       40.219       34.870       20.572     1617.547     1215.913      423.211        0.250        0.163       41.450       23.862        0.331      332.379        1.004      869.038
12/22/2013  09:06:00      -46.133      -48.774       -4.887       36.645       33.089       22.864     1342.848     1094.866      522.777        0.375        0.148       67.136       19.059        0.081      332.125        0.585      869.003
12/22/2013  09:07:00      -56.468      -31.496       10.969       39.302       24.041       24.244     1544.626      577.954      587.778        0.351        0.136       64.658       21.809        0.114      332.204        0.716      868.988
12/22/2013  09:08:00      -84.713      -33.608       -1.438       57.328       41.417       26.768     3286.449     1715.346      716.517        0.701        0.286       91.136       35.618        0.153      332.268        0.821      868.963
12/22/2013  09:09:00      -90.163      -55.558       -0.113       48.035       30.128       24.252     2307.341      907.685      588.145        0.751        0.190      105.905       26.175        0.061      332.156        0.635      868.944
12/22/2013  09:10:00      -80.496      -58.007      -11.159       23.418       23.532       14.010      548.414      553.756      196.294        0.563        0.065       99.219       14.379        0.021      332.092        0.530      868.926
12/22/2013  09:11:00      -59.452      -43.051      -13.809       19.391       20.350       15.496      376.004      414.129      240.112        0.330        0.052       73.402       10.412        0.020      332.149        0.624      868.930
12/22/2013  09:12:00      -20.712      -20.561       -7.033        7.831       13.796        6.111       61.329      190.337       37.339        0.060        0.014       29.185        3.485        0.014      332.141        0.611      868.943
12/22/2013  09:13:00      -42.412       -9.906      -12.000        9.467       14.377       12.274       89.618      206.687      150.650        0.124        0.022       43.554        8.096        0.035      332.176        0.669      868.948
12/22/2013  09:14:00      -27.272       -2.489       -6.654       18.199       13.048        9.442      331.208      170.246       89.154        0.069        0.030       27.386       10.492        0.147      332.355        0.964      868.959
12/22/2013  09:15:00      -65.319       -0.284       -9.569       12.399       12.913       15.667      153.740      166.753      245.459        0.246        0.028       65.320        4.490        0.005      332.208        0.722      868.967
12/22/2013  09:16:00      -73.795      -26.066       -2.788       31.901       23.578       19.037     1017.655      555.921      362.402        0.403        0.097       78.263       20.057        0.066      332.298        0.871      868.998
12/22/2013  09:17:00      -66.424      -44.135        7.258       39.323       33.525       18.670     1546.323     1123.907      348.552        0.472        0.151       79.750       20.067        0.063      332.402        1.040      869.049
12/22/2013  09:18:00     -113.593      -49.668      -15.349       32.371       24.975       23.076     1047.868      623.754      532.486        0.890        0.110      123.978       22.101        0.032      332.285        0.848      869.109
12/22/2013  09:19:00     -113.424      -65.834       -2.321       47.525       27.972       23.584     2258.585      782.424      556.184        1.040        0.180      131.145       17.123        0.017      332.282        0.842      869.140
12/22/2013  09:20:00      -87.819      -35.808       -2.780       38.156       17.738       17.890     1455.866      314.645      320.037        0.555        0.105       94.839       13.546        0.020      332.303        0.878      869.166
12/22/2013  09:21:00      -57.329      -31.307        7.026       35.426       24.072       16.043     1255.029      579.462      257.365        0.320        0.105       65.320       15.782        0.058      332.468        1.150      869.203
12/22/2013  09:22:00      -68.089      -29.873       -9.176       17.815       18.848       16.865      317.377      355.255      284.428        0.328        0.048       74.354        7.382        0.010      332.402        1.039      869.252
12/22/2013  09:23:00      -37.691       30.997       -3.143       24.875       25.971       11.562      618.755      674.492      133.676        0.191        0.071       48.800       10.991        0.051      332.568        1.315      869.302
12/22/2013  09:24:00      -27.244       48.553        5.029       38.980       46.391       22.027     1519.460     2152.139      485.183        0.364        0.208       55.674       23.259        0.175      332.912        1.884      869.349
12/22/2013  09:25:00      -34.195       71.520       -8.292       31.830       53.044       27.278     1013.179     2813.703      744.095        0.546        0.229       79.274       33.204        0.175      332.880        1.831      869.378
12/22/2013  09:26:00      -52.581       95.060       -8.911       21.263       54.409       24.720      452.136     2960.298      611.088        0.795        0.201      108.633       25.612        0.056      332.609        1.383      869.401
12/22/2013  09:27:00        2.973       51.126        4.893       25.423       32.475       24.141      646.345     1054.643      582.786        0.246        0.114       51.212       20.972        0.168      332.994        2.019      869.405
12/22/2013  09:28:00       20.618       43.379       13.435       27.395       37.366       27.143      750.461     1396.231      736.720        0.268        0.144       48.029       24.046        0.251      333.012        2.048      869.409
12/22/2013  09:29:00       20.209       45.283       -2.003       32.255       21.320       26.745     1040.354      454.532      715.275        0.234        0.111       49.587       15.155        0.093      333.014        2.052      869.399
12/22/2013  09:30:00       77.257       50.462       -0.165       49.139       20.331       23.493     2414.630      413.355      551.929        0.595        0.169       92.277       12.391        0.018      332.827        1.743      869.395
12/22/2013  09:31:00       97.892       73.762       -6.807       34.306       25.829       26.051     1176.872      667.112      678.661        0.880        0.126      122.571       10.396        0.007      332.711        1.551      869.395
12/22/2013  09:32:00      111.010       77.522        3.727       35.698       22.467       22.838     1274.381      504.753      521.576        1.032        0.115      135.399        8.242        0.004      332.771        1.650      869.383
12/22/2013  09:33:00      102.844       83.407       20.385       22.272       19.635       28.306      496.061      385.520      801.224        0.982        0.084      132.415       16.395        0.015      332.639        1.434      869.381
12/22/2013  09:34:00       27.786       54.527       60.764       39.229       42.870       38.716     1538.941     1837.845     1498.918        0.616        0.244       61.198       34.358        0.315      333.066        2.138      869.384
12/22/2013  09:35:00       69.425       70.202       34.208       34.347       27.767       30.090     1179.723      771.024      905.410        0.689        0.143       98.733       16.931        0.029      332.917        1.893      869.386
12/22/2013  09:36:00       44.691       41.971       18.168       24.964       17.725       23.361      623.211      314.174      545.732        0.279        0.074       61.309       16.482        0.072      333.134        2.249      869.378
12/22/2013  09:37:00       29.256       26.539       17.778       22.969       28.371       20.772      527.577      804.922      431.459        0.182        0.088       39.499       11.332        0.082      333.319        2.557      869.373
12/22/2013  09:38:00      105.735       47.745       14.563       45.031       39.252       28.539     2027.756     1540.698      814.481        0.903        0.219      116.015       14.308        0.015      333.062        2.132      869.391
12/22/2013  09:39:00      147.199       78.411       -4.254       29.204       31.940       32.194      852.874     1020.189     1036.469        1.537        0.145      166.781       20.572        0.015      332.822        1.735      869.391
12/22/2013  09:40:00      105.881       71.986        5.700       22.904       25.699       25.000      524.579      660.429      624.980        0.912        0.090      128.034        7.499        0.003      332.970        1.980      869.392
12/22/2013  09:41:00      112.904       71.046       18.077       51.359       35.908       35.568     2637.738     1289.361     1265.075        1.166        0.260      133.397       22.021        0.027      333.099        2.192      869.378
12/22/2013  09:42:00      113.987       99.245       53.307       60.204       40.841       45.043     3624.486     1668.000     2028.835        1.650        0.366      151.137       30.725        0.041      333.124        2.235      869.376
12/22/2013  09:43:00      117.207       85.090       60.985       60.715       48.706       43.550     3686.252     2372.304     1896.612        1.632        0.398      144.837       33.270        0.053      333.116        2.220      869.389
12/22/2013  09:44:00      152.219       87.990       31.626       67.515       48.971       53.208     4558.219     2398.166     2831.097        2.085        0.489      175.821       31.817        0.033      333.009        2.041      869.405
12/22/2013  09:45:00      107.758       29.047       10.724       56.969       44.248       35.129     3245.504     1957.912     1234.043        0.950        0.322      111.604       24.860        0.050      333.181        2.326      869.420
12/22/2013  09:46:00       80.161       54.460       44.319       56.494       51.168       40.375     3191.540     2618.130     1630.127        0.940        0.372       96.911       29.557        0.093      333.520        2.889      869.428
12/22/2013  09:47:00       83.901       95.549       85.426       51.966       55.765       42.895     2700.450     3109.717     1839.940        1.556        0.383      127.158       23.592        0.034      333.230        2.409      869.451
12/22/2013  09:48:00       39.729       47.456       62.333       53.361       46.572       42.515     2847.369     2168.956     1807.527        0.727        0.341       61.891       34.838        0.317      333.622        3.058      869.472
12/22/2013  09:49:00       15.652       70.171       84.920       38.129       42.748       41.475     1453.791     1827.431     1720.155        0.869        0.250       71.895       35.759        0.247      333.708        3.199      869.490
12/22/2013  09:50:00        8.827       68.620       93.580       37.705       47.881       35.029     1421.650     2292.589     1227.053        0.924        0.247       69.186       29.028        0.176      333.745        3.262      869.515
12/22/2013  09:51:00       65.470       95.058      106.168       71.979       57.979       44.485     5181.031     3361.559     1978.939        1.756        0.526      115.423       43.481        0.142      333.365        2.632      869.556
12/22/2013  09:52:00      141.360      138.450       84.349       60.203       51.641       56.465     3624.385     2666.794     3188.259        2.787        0.474      197.866       39.744        0.040      333.214        2.379      869.607
12/22/2013  09:53:00      121.501       62.675       49.368       61.141       57.961       56.152     3738.220     3359.438     3153.082        1.569        0.513      136.714       42.869        0.098      333.312        2.544      869.666
12/22/2013  09:54:00       87.043       99.459       89.832       61.209       49.066       46.088     3746.515     2407.479     2124.135        1.691        0.414      132.169       21.625        0.027      333.349        2.605      869.688
12/22/2013  09:55:00      113.499       92.177       81.922       67.840       70.099       61.717     4602.303     4913.816     3808.989        2.071        0.666      146.214       52.655        0.130      333.161        2.292      869.694
12/22/2013  09:56:00       55.177       82.100       59.547       45.515       33.872       34.183     2071.578     1147.285     1168.492        0.886        0.219       98.919       31.487        0.101      333.332        2.577      869.675
12/22/2013  09:57:00       66.924       -8.794       39.044       56.485       51.338       36.412     3190.536     2635.621     1325.806        0.662        0.358       67.499       32.756        0.235      333.262        2.462      869.652
12/22/2013  09:58:00      109.925       57.038       40.485       41.561       37.487       38.390     1727.314     1405.283     1473.815        1.079        0.230      123.842       28.782        0.054      333.148        2.272      869.637
12/22/2013  09:59:00       74.937       37.477       49.195       47.214       37.162       48.692     2229.155     1381.026     2370.890        0.771        0.299       83.785       26.740        0.102      333.308        2.537      869.629
12/22/2013  10:00:00       65.270      114.427      108.420       61.535       56.970       45.441     3786.605     3245.572     2064.920        1.910        0.455      131.733       44.146        0.112      333.311        2.542      869.629
12/22/2013  10:01:00      114.309       84.863       57.024       58.098       49.358       54.413     3375.435     2436.236     2960.738        1.614        0.439      142.366       43.401        0.093      333.226        2.401      869.640
12/22/2013  10:02:00       96.300       89.231       85.572       79.250       71.739       52.953     6280.492     5146.457     2804.019        1.939        0.712      131.285       48.304        0.135      333.306        2.533      869.636
12/22/2013  10:03:00      122.737       82.107       74.954       57.550       51.216       43.431     3311.946     2623.056     1886.214        1.762        0.391      147.668       36.254        0.060      333.257        2.453      869.621
12/22/2013  10:04:00      119.402      114.192       78.891       63.392       44.981       52.629     4018.577     2023.248     2769.840        2.116        0.441      165.217       42.025        0.065      333.209        2.372      869.595
12/22/2013  10:05:00      119.890       92.250       55.060       43.164       41.270       42.216     1863.165     1703.231     1782.218        1.563        0.267      151.273       33.277        0.048      333.210        2.376      869.584
12/22/2013  10:06:00      114.516       80.833       47.319       42.349       40.421       38.987     1793.455     1633.895     1519.950        1.342        0.247      140.171       22.749        0.026      333.258        2.456      869.591
12/22/2013  10:07:00       21.797       52.157       61.150       34.807       41.028       24.084     1211.518     1683.268      580.055        0.520        0.174       56.528       20.291        0.129      333.486        2.832      869.607
12/22/2013  10:08:00       54.436       61.184       55.703       49.048       34.352       45.173     2405.674     1180.028     2040.584        0.772        0.281       81.895       40.965        0.250      333.339        2.588      869.630
12/22/2013  10:09:00       71.312       31.509       54.149       33.201       37.236       29.576     1102.327     1386.493      874.740        0.619        0.168       77.963       22.433        0.083      333.309        2.539      869.640
12/22/2013  10:10:00       48.319       48.034       47.984       32.980       40.203       28.887     1087.699     1616.252      834.432        0.524        0.177       68.132       20.156        0.088      333.402        2.692      869.649
12/22/2013  10:11:00       15.783       30.506       48.893       33.281       35.198       27.221     1107.604     1238.910      740.991        0.333        0.154       34.347       28.945        0.710      333.570        2.971      869.648
12/22/2013  10:12:00       47.487       50.903       56.409       27.825       29.061       17.819      774.251      844.550      317.534        0.498        0.097       69.615       11.247        0.026      333.487        2.835      869.669
12/22/2013  10:13:00       39.894        9.860       19.914       47.233       20.250       30.258     2230.918      410.043      915.550        0.282        0.178       41.095       19.069        0.215      333.512        2.875      869.684
12/22/2013  10:14:00       43.517       10.125       25.827       44.536       32.175       32.766     1983.481     1035.223     1073.639        0.338        0.205       44.679       30.019        0.451      333.525        2.896      869.683
12/22/2013  10:15:00       21.403      -23.145       19.200       31.720       26.544       28.112     1006.131      704.571      790.268        0.193        0.125       31.524       14.782        0.220      333.819        3.384      869.676
12/22/2013  10:16:00       20.120      -26.035       16.696       38.170       66.232       30.773     1456.975     4386.692      946.972        0.407        0.340       32.904       30.722        0.872      333.794        3.342      869.673
12/22/2013  10:17:00       12.669       24.697       58.183       35.684       40.170       31.341     1273.350     1613.606      982.276        0.401        0.193       27.757       28.452        1.051      333.907        3.530      869.688
12/22/2013  10:18:00       46.609       48.786       39.772       23.081       20.476       23.180      532.749      419.254      537.311        0.381        0.074       67.472       15.552        0.053      333.543        2.926      869.715
12/22/2013  10:19:00       63.755       55.740       20.531       21.996       11.428       21.859      483.815      130.605      477.830        0.434        0.055       84.685        8.254        0.009      333.409        2.705      869.750
12/22/2013  10:20:00       36.873       39.746       35.883       22.341       22.107       19.557      499.109      488.740      382.496        0.280        0.069       54.216       15.456        0.081      333.632        3.074      869.771
12/22/2013  10:21:00        4.376       -4.386       26.452       27.047       40.604       19.337      731.538     1648.663      373.919        0.175        0.138        6.196       21.573       12.124      334.053        3.773      869.772
12/22/2013  10:22:00       36.551      -25.196        2.077       41.212       43.114       26.638     1698.400     1858.832      709.605        0.312        0.213       44.394       21.374        0.232      333.864        3.459      869.774
12/22/2013  10:23:00       20.467       -9.141       21.011       36.415       34.164       32.432     1326.076     1167.201     1051.863        0.224        0.177       22.415       24.202        1.166      334.080        3.816      869.785
12/22/2013  10:24:00       19.453       30.965       44.975       32.489       21.217       20.468     1055.535      450.166      418.942        0.264        0.096       36.569       12.383        0.115      334.157        3.945      869.824
12/22/2013  10:25:00       96.335       63.017       10.168       26.722       34.091       28.156      714.049     1162.174      792.735        0.801        0.133      115.116       21.637        0.035      333.575        2.976      869.862
12/22/2013  10:26:00       94.526       63.336       19.427       28.145       21.080       31.190      792.146      444.351      972.819        0.777        0.110      113.783       21.331        0.035      333.831        3.404      869.895
12/22/2013  10:27:00       21.270       15.168       38.989       31.244       20.613       22.867      976.178      424.909      522.919        0.206        0.096       26.124       20.886        0.639      334.181        3.984      869.919
12/22/2013  10:28:00        4.311       -4.117       21.483       26.863       21.543       21.370      721.622      464.113      456.656        0.107        0.082        5.961       18.193        9.313      334.275        4.140      869.926
12/22/2013  10:29:00        9.343       -2.083       29.175       21.193       23.908       13.667      449.163      571.605      186.790        0.107        0.060        9.572        3.627        0.144      334.404        4.354      869.907
12/22/2013  10:30:00       13.035       12.491       12.720       17.579       17.747       15.241      309.015      314.969      232.275        0.067        0.043       18.054       12.384        0.470      334.568        4.627      869.893
12/22/2013  10:31:00      -10.658      -25.266       -0.233       23.403       46.448       17.833      547.720     2157.403      318.007        0.189        0.151       27.422       16.290        0.353      334.244        4.089      869.865
12/22/2013  10:32:00       28.404      -60.300       -7.707       37.551       27.624       16.536     1410.082      763.090      273.425        0.347        0.122       66.655        9.652        0.021      334.042        3.755      869.864
12/22/2013  10:33:00       42.807      -98.465       -2.407       46.821       38.820       28.918     2192.184     1507.020      836.259        0.803        0.227      107.367       18.167        0.029      334.148        3.930      869.841
12/22/2013  10:34:00       39.737      -25.435       12.346       35.205       36.600       34.913     1239.400     1339.563     1218.916        0.309        0.190       47.180       29.977        0.404      334.225        4.058      869.823
12/22/2013  10:35:00       -7.274       11.755       57.791       22.297       57.834       31.684      497.150     3344.764     1003.866        0.419        0.242       13.824       34.552        6.247      334.569        4.629      869.825
12/22/2013  10:36:00       45.364      -43.769       41.176       37.064       50.942       36.461     1373.705     2595.090     1329.430        0.548        0.265       63.037       35.062        0.309      334.384        4.322      869.840
12/22/2013  10:37:00        1.586       22.876       43.711       16.464       32.917       26.786      271.068     1083.562      717.502        0.225        0.104       22.931       16.892        0.543      334.755        4.937      869.853
12/22/2013  10:38:00       51.134       50.472       23.510       45.028       39.468       43.870     2027.528     1557.689     1924.578        0.561        0.275       71.847       21.183        0.087      334.539        4.579      869.845
12/22/2013  10:39:00       87.388      117.394       -7.113       40.825       36.152       35.758     1666.657     1306.967     1278.600        1.286        0.213      146.349       22.987        0.025      334.227        4.062      869.833
12/22/2013  10:40:00       19.846       38.654       38.273       26.580       38.492       28.064      706.517     1481.660      787.612        0.316        0.149       43.451       14.044        0.104      334.786        4.988      869.814
12/22/2013  10:41:00       10.807       -0.136       28.748       37.507       50.374       23.159     1406.777     2537.526      536.341        0.271        0.224       10.808       23.911        4.894      334.680        4.812      869.805
12/22/2013  10:42:00       57.785        9.427       37.112       54.722       49.005       51.636     2994.507     2401.458     2666.274        0.643        0.403       58.549       49.784        0.723      334.356        4.274      869.804
12/22/2013  10:43:00      112.031       -5.775       18.769       30.969       29.076       33.182      959.085      845.427     1101.022        0.792        0.145      112.180       17.818        0.025      333.993        3.673      869.819
12/22/2013  10:44:00       57.176       46.866       28.359       47.769       38.998       25.373     2281.907     1520.817      643.794        0.536        0.222       73.929        5.204        0.005      334.311        4.200      869.827
12/22/2013  10:45:00      144.671       96.375       22.969       40.512       35.114       33.906     1641.201     1232.978     1149.618        1.738        0.201      173.832       19.791        0.013      334.216        4.040      869.816
12/22/2013  10:46:00       58.644       55.662       45.508       50.322       27.467       35.242     2532.272      754.445     1241.979        0.657        0.226       80.854       33.095        0.168      334.381        4.317      869.781
12/22/2013  10:47:00      -18.624       -3.778       38.572       34.328       49.921       27.842     1178.425     2492.057      775.184        0.315        0.222       19.004       27.541        2.100      334.792        4.999      869.733
12/22/2013  10:48:00       17.906      -37.106       34.069       37.286       63.284       45.250     1390.259     4004.825     2047.549        0.515        0.372       41.200       40.812        0.981      334.865        5.120      869.703
12/22/2013  10:49:00       54.653       40.739       62.498       77.911       63.347       42.750     6070.075     4012.798     1827.549        1.023        0.596       68.166       38.718        0.323      334.769        4.960      869.689
12/22/2013  10:50:00      113.517       93.435       51.681       64.418       59.681       44.524     4149.686     3561.880     1982.409        1.699        0.485      147.024       25.362        0.030      334.372        4.299      869.719
12/22/2013  10:51:00       67.152       53.473       53.605       67.805       79.766       41.296     4597.512     6362.578     1705.362        1.145        0.633       85.841       34.476        0.161      334.588        4.659      869.745
12/22/2013  10:52:00       39.734       75.522       78.818       54.666       66.320       44.013     2988.369     4398.289     1937.106        1.141        0.466       85.337       41.506        0.237      334.558        4.609      869.744
12/22/2013  10:53:00      131.150       91.557       51.437       66.827       65.645       52.038     4465.841     4309.270     2707.907        1.985        0.574      159.946       39.676        0.062      334.133        3.903      869.709
12/22/2013  10:54:00       37.937       34.230       29.216       33.811       28.883       24.210     1143.177      834.244      586.131        0.301        0.128       51.098       15.329        0.090      334.383        4.320      869.697
12/22/2013  10:55:00       47.698       73.438       59.095       67.394       37.931       46.488     4541.968     1438.740     2161.119        0.965        0.407       87.568       47.711        0.297      334.717        4.875      869.696
12/22/2013  10:56:00       14.088       68.706       90.118       37.074       47.314       34.297     1374.497     2238.590     1176.291        0.891        0.239       70.136       27.725        0.156      334.677        4.807      869.730
12/22/2013  10:57:00       65.782      -31.971       36.219       50.030       98.972       43.300     2503.006     9795.387     1874.866        1.041        0.709       73.140       55.630        0.579      334.648        4.759      869.767
12/22/2013  10:58:00       47.190       82.128       82.931       49.281       65.730       33.143     2428.594     4320.456     1098.433        1.185        0.392       94.721       38.373        0.164      334.472        4.467      869.793
12/22/2013  10:59:00       26.934      -17.729       34.107       34.857       77.886       42.370     1215.033     6066.303     1795.223        0.564        0.454       32.245       54.146        2.820      334.680        4.813      869.800
12/22/2013  11:00:00       33.368      -11.525       22.942       34.790       30.595       30.507     1210.372      936.044      930.684        0.242        0.154       35.303       20.741        0.345      334.838        5.074      869.779
12/22/2013  11:01:00       35.351      -61.981       -2.743       58.181       70.506       32.267     3385.039     4971.135     1041.144        0.725        0.470       71.354       25.785        0.131      334.673        4.801      869.757
12/22/2013  11:02:00       19.884       10.790       50.852       33.001       36.464       31.534     1089.081     1329.595      994.374        0.325        0.171       22.623       25.891        1.310      334.920        5.211      869.762
12/22/2013  11:03:00       24.004       33.534       41.301       30.456       25.266       32.726      927.566      638.349     1070.990        0.302        0.132       41.239       15.327        0.138      334.742        4.917      869.768
12/22/2013  11:04:00       46.924       66.903       57.599       40.485       42.539       30.344     1638.997     1809.569      920.761        0.718        0.218       81.719       24.080        0.087      334.805        5.019      869.772
12/22/2013  11:05:00      108.512       74.648       75.293       55.997       55.103       38.329     3135.621     3036.384     1469.113        1.533        0.382      131.709       27.853        0.045      334.687        4.824      869.773
12/22/2013  11:06:00       71.392       54.637       50.336       74.601       42.797       44.814     5565.279     1831.546     2008.287        1.001        0.470       89.900       41.223        0.210      334.767        4.956      869.759
12/22/2013  11:07:00       56.100       51.645        9.594       37.674       32.040       30.041     1419.342     1026.582      902.486        0.463        0.167       76.252       21.867        0.082      334.780        4.979      869.736
12/22/2013  11:08:00       17.691       87.192      -13.951       40.075       45.613       32.378     1605.996     2080.523     1048.317        0.642        0.237       88.968       28.947        0.106      334.798        5.007      869.727
12/22/2013  11:09:00       34.259       79.579       73.229       39.992       40.119       47.930     1599.337     1609.554     2297.249        0.919        0.275       86.640       33.924        0.153      334.924        5.218      869.706
12/22/2013  11:10:00       53.829       77.028       75.411       42.105       53.154       38.485     1772.820     2825.388     1481.093        1.030        0.304       93.973       37.494        0.159      334.707        4.858      869.709
12/22/2013  11:11:00       33.043       47.886       20.907       17.789       21.331       20.517      316.448      455.012      420.965        0.251        0.060       58.180       10.484        0.032      334.674        4.802      869.695
12/22/2013  11:12:00       -8.444        7.569       16.722       11.360       14.301        9.336      129.051      204.531       87.162        0.041        0.021       11.340        3.318        0.086      335.211        5.694      869.686
12/22/2013  11:13:00       -9.506        5.879        9.418       13.651        9.932       15.646      186.357       98.648      244.803        0.037        0.026       11.177        9.639        0.744      335.326        5.887      869.657
12/22/2013  11:14:00       -6.964       -1.124       14.990        9.132       11.510       19.149       83.400      132.471      366.669        0.043        0.029        7.055        9.416        1.782      335.599        6.341      869.615
12/22/2013  11:15:00      -20.340       27.094       38.107       28.979       19.521       16.845      839.765      381.066      283.769        0.205        0.075       33.879       18.011        0.283      335.199        5.675      869.583
12/22/2013  11:16:00      -14.030       18.451       38.557       19.202       18.076       16.154      368.717      326.733      260.962        0.149        0.048       23.180       10.669        0.212      335.417        6.037      869.548
12/22/2013  11:17:00       -0.427       37.283       64.062       12.735       25.125       18.278      162.173      631.264      334.098        0.331        0.056       37.286       17.373        0.217      335.272        5.796      869.536
12/22/2013  11:18:00       10.904       54.235       67.212       25.102       25.048       13.125      630.104      627.402      172.276        0.450        0.071       55.321        8.564        0.024      335.148        5.589      869.549
12/22/2013  11:19:00       18.128       62.785       80.709       24.369       30.074       14.302      593.848      904.419      204.537        0.624        0.085       65.349       16.502        0.064      335.134        5.565      869.562
12/22/2013  11:20:00       12.537       56.743       58.015       29.336       30.209       26.956      860.579      912.611      726.632        0.462        0.125       58.112       14.093        0.059      335.322        5.879      869.561
12/22/2013  11:21:00       27.788       38.698       21.653       29.867       32.241       24.276      892.011     1039.450      589.340        0.263        0.126       47.641        8.919        0.035      335.445        6.084      869.558
12/22/2013  11:22:00       91.461       58.037       21.076       38.752       29.641       30.113     1501.733      878.585      906.808        0.773        0.164      108.321       22.584        0.043      335.063        5.450      869.537
12/22/2013  11:23:00       30.081       46.784       -3.431       27.377       36.212       24.934      749.512     1311.283      621.707        0.289        0.134       55.620       25.221        0.206      335.204        5.682      869.522
12/22/2013  11:24:00        3.681       82.146       -6.408       20.584       32.591       18.775      423.699     1062.204      352.519        0.432        0.092       82.229       17.580        0.046      335.206        5.687      869.501
12/22/2013  11:25:00       16.256       58.256        8.510       23.549       36.491       27.763      554.540     1331.602      770.804        0.319        0.133       60.481       22.982        0.144      335.268        5.789      869.479
12/22/2013  11:26:00       12.591       41.112        9.174       29.648       38.280       28.819      879.000     1465.327      830.513        0.255        0.159       42.997       24.593        0.327      335.412        6.029      869.458
12/22/2013  11:27:00       53.557       90.775        1.686       43.367       41.998       37.132     1880.727     1763.873     1378.766        0.807        0.251      105.397       27.448        0.068      335.161        5.611      869.448
12/22/2013  11:28:00       45.432       47.774        8.746       44.298       31.152       31.189     1962.305      970.416      972.764        0.416        0.195       65.928       24.769        0.141      335.379        5.975      869.434
12/22/2013  11:29:00       85.645       62.647       17.779       35.900       34.004       32.042     1288.785     1156.239     1026.667        0.752        0.174      106.111       11.082        0.011      335.380        5.976      869.427
12/22/2013  11:30:00       45.961       43.714       13.024       51.524       28.403       30.799     2654.762      806.711      948.576        0.430        0.221       63.430       14.273        0.051      335.435        6.066      869.438
12/22/2013  11:31:00      103.751       65.754       41.213       40.366       57.716       39.491     1629.428     3331.170     1559.530        1.165        0.326      122.832       28.527        0.054      335.374        5.964      869.445
12/22/2013  11:32:00       74.244      113.868       91.822       69.684       44.516       45.563     4855.856     1981.675     2075.982        1.791        0.446      135.934       40.431        0.088      335.421        6.044      869.419
12/22/2013  11:33:00      131.609       89.049       25.219       35.447       33.283       32.067     1256.478     1107.787     1028.304        1.464        0.170      158.904       18.008        0.013      334.865        5.120      869.419
12/22/2013  11:34:00       58.273       74.558       56.011       45.367       33.414       41.866     2058.164     1116.504     1752.762        0.851        0.246       94.629       35.315        0.139      335.277        5.805      869.398
12/22/2013  11:35:00       15.481      -15.048       45.908       31.171       60.133       24.254      971.619     3616.008      588.261        0.387        0.259       21.589       26.109        1.463      335.563        6.281      869.399
12/22/2013  11:36:00       72.755       75.565       62.458       35.488       26.483       28.278     1259.366      701.337      799.658        0.883        0.138      104.897       23.466        0.050      335.269        5.790      869.396
12/22/2013  11:37:00       38.707       54.339       52.351       49.668       25.590       32.666     2466.917      654.868     1067.071        0.569        0.209       66.715       35.858        0.289      335.396        6.002      869.393
12/22/2013  11:38:00      102.970       85.947       68.006       43.583       51.397       38.838     1899.490     2641.630     1508.356        1.433        0.302      134.125       30.714        0.052      335.395        5.999      869.387
12/22/2013  11:39:00      134.168       99.439       51.258       48.399       27.129       44.080     2342.473      735.977     1943.023        1.777        0.251      167.001       37.203        0.050      335.263        5.780      869.389
12/22/2013  11:40:00       92.532       92.180       56.243       45.887       47.735       52.234     2105.594     2278.603     2728.390        1.367        0.356      130.611       42.981        0.108      335.314        5.865      869.394
12/22/2013  11:41:00       71.301      103.080       93.411       74.312       58.210       57.494     5522.319     3388.438     3305.596        1.832        0.611      125.337       58.145        0.215      335.545        6.248      869.371
12/22/2013  11:42:00       35.941      150.302      143.707       72.084       55.449       38.740     5196.079     3074.618     1500.821        2.715        0.489      154.539       31.234        0.041      335.327        5.885      869.348
12/22/2013  11:43:00       99.242       92.108       85.315       53.912       61.827       53.903     2906.490     3822.527     2905.533        1.762        0.482      135.399       48.304        0.127      335.199        5.674      869.327
12/22/2013  11:44:00      121.406       99.037       62.541       54.498       34.400       40.498     2969.998     1183.341     1640.123        1.713        0.290      156.677       26.017        0.028      335.278        5.805      869.306
12/22/2013  11:45:00       95.490       41.205       47.579       42.906       41.856       35.836     1840.897     1751.955     1284.203        0.898        0.244      104.001       30.567        0.086      335.232        5.730      869.284
12/22/2013  11:46:00       51.494      106.478       97.265       73.507       54.887       43.421     5403.257     3012.573     1885.344        1.687        0.515      118.276       39.894        0.114      335.524        6.215      869.246
12/22/2013  11:47:00       32.082       89.197       90.074       37.176       44.738       29.099     1382.031     2001.520      846.763        1.066        0.212       94.791       25.877        0.075      335.575        6.301      869.216
12/22/2013  11:48:00       57.699       72.884       30.281       59.240       38.758       39.968     3509.373     1502.166     1597.458        0.808        0.330       92.958       38.156        0.168      335.482        6.145      869.199
12/22/2013  11:49:00       33.400       83.741       65.503       45.675       39.004       28.110     2086.190     1521.310      790.174        0.841        0.220       90.156       26.668        0.087      335.586        6.318      869.179
12/22/2013  11:50:00       39.457       43.989      -11.320       25.649       28.532       24.670      657.895      814.085      608.606        0.285        0.104       59.092       21.693        0.135      335.272        5.795      869.185
12/22/2013  11:51:00       11.395       53.627       -0.670       27.249       20.697       21.740      742.486      428.350      472.640        0.232        0.082       54.824       16.043        0.086      335.585        6.317      869.185
12/22/2013  11:52:00       24.903       28.180        0.593       34.886       20.423       16.571     1217.015      417.079      274.589        0.166        0.095       37.607       11.877        0.100      335.664        6.449      869.203
12/22/2013  11:53:00      -15.771      139.382      -14.490       17.252       36.417       13.843      297.618     1326.213      191.636        1.085        0.091      140.271        9.623        0.005      335.454        6.098      869.205
12/22/2013  11:54:00       -1.959       52.036        7.063       20.782       35.824       26.703      431.894     1283.341      713.066        0.259        0.121       52.073       15.789        0.092      335.760        6.609      869.197
12/22/2013  11:55:00        7.418       -9.906       16.637       13.305       11.010       12.771      177.018      121.211      163.087        0.045        0.023       12.376        6.898        0.311      335.964        6.950      869.186
12/22/2013  11:56:00       55.248       22.343       23.762       27.477       25.649       20.876      755.012      657.866      435.806        0.298        0.092       59.595        8.643        0.021      335.602        6.346      869.164
12/22/2013  11:57:00       51.933       35.628       16.251       23.716       23.107       20.100      562.467      533.951      403.991        0.287        0.075       62.979       15.907        0.064      335.686        6.484      869.155
12/22/2013  11:58:00       36.193       34.736        5.924       25.549       19.603       14.418      652.765      384.275      207.880        0.190        0.062       50.165        9.613        0.037      335.748        6.588      869.140
12/22/2013  11:59:00       39.766       47.197       10.360       28.438       19.152       18.112      808.696      366.794      328.031        0.271        0.075       61.717       13.439        0.047      335.810        6.692      869.135
12/22/2013  12:00:00        8.957       29.773        2.036       14.802       17.544       23.385      219.107      307.802      546.842        0.102        0.054       31.091       13.238        0.181      335.866        6.785      869.126
12/22/2013  12:01:00       32.667       12.024       -5.883       12.180       11.664       16.435      148.362      136.056      270.098        0.090        0.028       34.810        7.005        0.040      335.714        6.533      869.112
12/22/2013  12:02:00       -2.006        7.962      -16.988       14.117       10.771        8.188      199.280      116.010       67.041        0.037        0.019        8.210        4.519        0.303      335.923        6.880      869.089
12/22/2013  12:03:00       -5.935       19.727       23.290       20.001       20.597       33.613      400.060      424.255     1129.857        0.146        0.098       20.600       23.612        1.314      336.067        7.119      869.054
12/22/2013  12:04:00      -11.556       18.063       55.973       20.506       54.171       35.521      420.502     2934.481     1261.760        0.410        0.231       21.443       35.817        2.790      336.379        7.641      869.037
12/22/2013  12:05:00       11.532       51.316       75.116       29.303       35.022       18.303      858.681     1226.564      335.006        0.541        0.121       52.596       15.408        0.086      336.297        7.504      869.022
12/22/2013  12:06:00       -4.245      105.833      105.958       31.935       44.734       40.396     1019.869     2001.096     1631.861        1.355        0.233      105.919       35.029        0.109      335.973        6.963      869.026
12/22/2013  12:07:00       28.075       74.283       94.232       48.293       45.214       36.045     2332.221     2044.265     1299.224        1.043        0.284       79.411       34.093        0.184      335.925        6.884      869.019
12/22/2013  12:08:00       56.517       67.246       76.013       58.112       54.169       38.381     3377.018     2934.311     1473.116        1.064        0.389       87.842       36.133        0.169      336.036        7.068      869.018
12/22/2013  12:09:00       44.935       69.871       48.450       36.937       28.901       30.631     1364.329      835.244      938.248        0.619        0.157       83.074       24.306        0.086      336.038        7.072      869.006
12/22/2013  12:10:00       20.262       17.794        2.287       20.793       32.142       26.574      432.329     1033.078      706.185        0.145        0.109       26.966       24.858        0.850      336.153        7.264      868.984
12/22/2013  12:11:00        1.525       41.422        8.951       22.970       43.376       17.977      527.636     1881.518      323.158        0.226        0.137       41.450       21.628        0.272      336.305        7.518      868.973
12/22/2013  12:12:00       42.349       66.854        4.621       42.468       33.622       27.811     1803.562     1130.448      773.465        0.500        0.185       79.138       20.830        0.069      336.164        7.282      868.975
12/22/2013  12:13:00       19.376       38.213       35.233       36.389       40.992       39.571     1324.138     1680.305     1565.863        0.382        0.229       42.844       25.506        0.354      336.274        7.466      868.998
12/22/2013  12:14:00      -12.696       75.334      101.173       29.419       46.005       38.007      865.458     2116.419     1444.513        1.025        0.221       76.397       30.179        0.156      336.381        7.644      868.993
12/22/2013  12:15:00      140.330       81.583       45.387       60.816       59.594       40.007     3698.637     3551.449     1600.568        1.863        0.443      162.322       37.105        0.052      335.735        6.568      869.002
12/22/2013  12:16:00       52.940        6.858        3.569       44.563       36.231       26.460     1985.836     1312.707      700.120        0.343        0.200       53.383       23.072        0.187      336.123        7.213      868.990
12/22/2013  12:17:00       51.680       77.425       78.472       67.957       49.191       52.096     4618.105     2419.801     2714.036        1.229        0.488       93.088       47.195        0.257      336.143        7.248      868.970
12/22/2013  12:18:00       87.361       59.644       20.775       42.300       22.025       30.464     1789.296      485.121      928.055        0.741        0.160      105.780       20.516        0.038      335.950        6.925      868.946
12/22/2013  12:19:00       31.854       26.647       19.303       24.146       23.485       23.568      583.027      551.555      555.464        0.189        0.085       41.530       14.069        0.115      336.232        7.396      868.925
12/22/2013  12:20:00       40.830       37.865       15.983       26.994       23.542       19.568      728.681      554.212      382.922        0.251        0.083       55.686        8.236        0.022      336.084        7.149      868.932
12/22/2013  12:21:00       53.212       43.151       16.530       43.378       30.171       29.173     1881.634      910.294      851.077        0.430        0.182       68.509       18.297        0.071      336.137        7.236      868.938
12/22/2013  12:22:00       79.302       45.278       39.248       46.005       48.787       44.300     2116.451     2380.202     1962.532        0.817        0.323       91.318       26.405        0.084      336.136        7.236      868.944
12/22/2013  12:23:00       67.662       62.564       40.128       39.260       31.098       45.303     1541.372      967.097     2052.391        0.733        0.228       92.154       32.903        0.127      336.223        7.381      868.933
12/22/2013  12:24:00       97.291       67.992       22.057       31.825       25.399       34.618     1012.854      645.087     1198.399        0.872        0.143      118.695       16.350        0.019      336.088        7.156      868.922
12/22/2013  12:25:00       41.242       27.850       33.338       48.387       56.599       47.568     2341.319     3203.479     2262.687        0.570        0.390       49.765       35.345        0.504      336.252        7.429      868.887
12/22/2013  12:26:00       57.482      102.585       90.793       52.694       53.449       47.530     2776.692     2856.782     2259.081        1.498        0.395      117.592       38.476        0.107      336.110        7.191      868.846
12/22/2013  12:27:00      101.958       77.528       41.636       43.488       31.522       29.087     1891.243      993.626      846.069        1.093        0.187      128.086       20.122        0.025      335.980        6.975      868.825
12/22/2013  12:28:00       69.901       47.603       31.509       48.618       33.675       29.024     2363.734     1134.013      842.383        0.624        0.217       84.571       15.542        0.034      336.353        7.597      868.806
12/22/2013  12:29:00       14.004       50.880       65.657       38.558       45.146       33.280     1486.724     2038.165     1107.570        0.586        0.232       52.772       20.926        0.157      336.606        8.020      868.813
12/22/2013  12:30:00       66.863       55.079       40.595       55.587       45.837       45.644     3089.902     2101.060     2083.342        0.821        0.364       86.628       42.593        0.242      336.325        7.550      868.814
12/22/2013  12:31:00       15.599       76.003       66.142       53.378       43.593       47.731     2849.159     1900.319     2278.271        0.871        0.351       77.587       36.965        0.227      336.483        7.814      868.813
12/22/2013  12:32:00       49.967       34.338       54.763       39.949       46.149       38.425     1595.895     2129.751     1476.501        0.594        0.260       60.628       36.094        0.354      336.397        7.672      868.815
12/22/2013  12:33:00       80.615       68.223       76.263       64.859       47.278       43.823     4206.742     2235.186     1920.471        1.266        0.418      105.608       33.938        0.103      336.354        7.598      868.796
12/22/2013  12:34:00      117.606      101.039       62.893       65.708       37.187       54.942     4317.499     1382.909     3018.664        1.836        0.436      155.049       39.844        0.066      336.089        7.156      868.779
12/22/2013  12:35:00       74.910      107.568      108.871       61.618       59.758       40.676     3796.767     3571.021     1654.554        1.903        0.451      131.081       40.826        0.097      336.196        7.333      868.766
12/22/2013  12:36:00       20.963       58.415       78.780       50.670       48.525       45.927     2567.472     2354.649     2109.248        0.854        0.352       62.062       42.180        0.462      336.554        7.934      868.755
12/22/2013  12:37:00       63.987       68.044       26.527       52.558       31.765       38.886     2762.309     1009.040     1512.124        0.735        0.264       93.404       36.427        0.152      336.278        7.472      868.755
12/22/2013  12:38:00       18.166       12.437       55.147       58.095       66.807       42.666     3374.977     4463.202     1820.376        0.659        0.483       22.016       26.063        1.401      336.572        7.962      868.732
12/22/2013  12:39:00      112.388       82.533       24.872       47.117       44.900       45.586     2220.059     2016.044     2078.128        1.319        0.316      139.437       17.889        0.016      336.378        7.640      868.735
12/22/2013  12:40:00       -8.853       57.430       84.276       33.411       45.756       55.683     1116.322     2093.622     3100.606        0.839        0.316       58.108       43.622        0.564      336.687        8.157      868.742
12/22/2013  12:41:00       88.697       77.742       43.677       52.818       36.302       46.473     2789.721     1317.841     2159.762        1.104        0.313      117.945       36.686        0.097      336.168        7.288      868.738
12/22/2013  12:42:00       63.797       21.698       13.086       41.184       32.961       34.130     1696.119     1086.397     1164.863        0.433        0.197       67.386       25.078        0.138      336.314        7.534      868.729
12/22/2013  12:43:00        1.098       22.863       42.910       34.963       43.941       31.235     1222.445     1930.778      975.638        0.325        0.206       22.890       29.851        1.701      336.800        8.345      868.717
12/22/2013  12:44:00       25.791       29.222       -4.438       37.325       33.738       31.263     1393.140     1138.241      977.361        0.252        0.175       38.975       14.736        0.143      336.506        7.852      868.706
12/22/2013  12:45:00        1.359       37.266      -12.811       37.278       38.556       24.806     1389.629     1486.538      615.352        0.252        0.175       37.291       14.759        0.157      336.635        8.068      868.710
12/22/2013  12:46:00       -1.719       66.058       -6.117       27.145       48.609       20.256      736.830     2362.877      410.292        0.396        0.175       66.080       13.127        0.039      336.476        7.804      868.707
12/22/2013  12:47:00       -8.366       10.564       26.536       13.042       32.920       15.910      170.089     1083.704      253.131        0.120        0.075       13.475        9.940        0.544      336.971        8.630      868.672
12/22/2013  12:48:00       88.866     -116.717        2.074       59.404       75.362       30.267     3528.880     5679.449      916.106        1.582        0.506      146.697       34.493        0.055      336.423        7.715      868.636
12/22/2013  12:49:00       29.917       45.482       44.619       36.159       28.033       24.939     1307.477      785.852      621.939        0.383        0.136       54.440       16.588        0.093      336.518        7.874      868.617
12/22/2013  12:50:00       21.624       31.943       26.479       21.107       15.833       15.265      445.498      250.685      233.018        0.156        0.046       38.573       12.845        0.111      336.642        8.082      868.598
12/22/2013  12:51:00       15.131       14.025       59.614       44.931       72.612       46.035     2018.778     5272.464     2119.225        0.669        0.471       20.631       47.935        5.398      336.861        8.447      868.592
12/22/2013  12:52:00      100.483       67.482       24.206       28.809       38.218       44.884      829.962     1460.590     2014.549        0.977        0.215      121.040       31.183        0.066      336.273        7.464      868.618
12/22/2013  12:53:00       51.185       -4.617       18.120       59.180       68.875       37.114     3502.283     4743.746     1377.469        0.629        0.481       51.393       44.489        0.749      336.670        8.128      868.640
12/22/2013  12:54:00       41.523      -30.346       11.918       48.306       47.411       29.033     2333.499     2247.778      842.933        0.410        0.271       51.430       30.278        0.347      336.693        8.166      868.653
12/22/2013  12:55:00       25.604       -1.825       34.148       38.819       57.635       43.479     1506.909     3321.765     1890.386        0.427        0.336       25.669       40.282        2.463      336.900        8.511      868.657
12/22/2013  12:56:00       54.876      -28.435       36.664       58.206       60.976       42.218     3387.932     3718.015     1782.391        0.702        0.444       61.806       45.665        0.546      336.874        8.468      868.655
12/22/2013  12:57:00       30.445      -22.269       33.940       47.591       95.764       42.278     2264.914     9170.775     1787.447        0.790        0.661       37.719       51.534        1.867      336.693        8.165      868.631
12/22/2013  12:58:00       41.811       10.982       51.496       51.931       78.369       64.613     2696.805     6141.730     4174.876        0.876        0.651       43.229       57.645        1.778      336.808        8.359      868.585
12/22/2013  12:59:00       14.493       13.299       50.278       31.945       54.245       37.998     1020.488     2942.522     1443.839        0.416        0.270       19.670       32.790        2.779      336.776        8.306      868.550
12/22/2013  13:00:00       24.451       76.459       72.019       36.913       50.013       40.831     1362.588     2501.273     1667.131        0.858        0.277       80.274       18.117        0.051      336.781        8.312      868.498
12/22/2013  13:01:00       11.896       60.635       72.635       38.593       43.131       53.800     1489.404     1860.307     2894.440        0.767        0.312       61.791       38.270        0.384      336.524        7.884      868.453
12/22/2013  13:02:00       32.624       44.645       28.352       39.000       36.563       34.268     1521.036     1336.883     1174.305        0.395        0.202       55.295       25.923        0.220      336.741        8.247      868.426
12/22/2013  13:03:00       45.219      -95.245       11.508       47.795       76.857       45.512     2284.350     5907.013     2071.307        1.075        0.513      105.434       45.359        0.185      336.668        8.123      868.436
12/22/2013  13:04:00       22.937       30.556       46.022       33.674       34.940       31.326     1133.919     1220.823      981.288        0.346        0.167       38.207       20.533        0.289      336.808        8.359      868.472
12/22/2013  13:05:00       64.389       30.779       -5.160       33.378       20.915       26.764     1114.124      437.455      716.334        0.369        0.113       71.368       15.961        0.050      336.400        7.676      868.473
12/22/2013  13:06:00       19.319       17.566       -6.580       18.005       17.759       14.100      324.172      315.378      198.805        0.078        0.042       26.111        9.379        0.129      336.636        8.071      868.475
12/22/2013  13:07:00       50.543       30.009       33.329       33.535       24.479       30.511     1124.576      599.198      930.902        0.361        0.133       58.780       18.234        0.096      336.700        8.177      868.464
12/22/2013  13:08:00       22.432       15.927        2.767       29.396       28.904       12.741      864.144      835.451      162.326        0.131        0.093       27.511       10.510        0.146      336.768        8.292      868.455
12/22/2013  13:09:00        0.198       29.746       44.992       30.089       34.551       24.339      905.366     1193.746      592.365        0.280        0.135       29.746       22.404        0.567      337.162        8.950      868.433
12/22/2013  13:10:00       47.359      -53.557       13.511       46.444       71.031       47.993     2157.016     5045.356     2303.360        0.740        0.475       71.493       51.345        0.516      336.927        8.558      868.432
12/22/2013  13:11:00       35.252      -27.801       25.396       41.270       77.585       38.106     1703.207     6019.429     1452.055        0.592        0.459       44.896       45.486        1.026      336.872        8.465      868.442
12/22/2013  13:12:00       26.969       23.309       61.547       46.844       71.536       39.143     2194.385     5117.349     1532.171        0.695        0.442       35.646       45.530        1.631      336.974        8.636      868.450
12/22/2013  13:13:00       55.511       90.070       67.282       39.679       36.034       37.716     1574.452     1298.463     1422.503        1.001        0.215      105.802       27.902        0.070      336.724        8.219      868.446
12/22/2013  13:14:00       63.477       69.531       69.294       47.098       40.515       34.630     2218.210     1641.452     1199.256        0.936        0.253       94.148       32.270        0.117      336.748        8.260      868.458
12/22/2013  13:15:00       59.897       42.848       12.505       45.465       48.151       33.956     2067.048     2318.566     1152.980        0.556        0.277       73.645       25.651        0.121      336.764        8.284      868.474
12/22/2013  13:16:00       11.357       -9.664        8.685       25.578       38.379       21.824      654.230     1472.941      476.295        0.145        0.130       14.912        7.027        0.222      337.141        8.914      868.489
12/22/2013  13:17:00       14.378       33.525       40.647       34.513       28.715       25.798     1191.173      824.539      665.528        0.283        0.134       36.478       13.740        0.142      337.193        9.002      868.504
12/22/2013  13:18:00       82.264       56.734       59.294       61.307       55.068       33.810     3758.512     3032.534     1143.118        1.072        0.397       99.930       25.286        0.064      336.873        8.466      868.538
12/22/2013  13:19:00      102.503       25.340       21.577       47.516       55.397       22.678     2257.757     3068.787      514.292        0.873        0.292      105.588       16.531        0.025      336.684        8.151      868.568
12/22/2013  13:20:00      104.698       70.517       50.939       67.100       40.391       45.949     4502.415     1631.425     2111.308        1.339        0.412      126.231       48.069        0.145      336.809        8.360      868.581
12/22/2013  13:21:00      111.065       45.120       28.147       46.826       66.616       48.323     2192.650     4437.704     2335.093        1.206        0.448      119.880       36.565        0.093      336.803        8.351      868.592
12/22/2013  13:22:00      108.388       82.027       25.366       44.598       34.886       41.165     1989.012     1217.028     1694.580        1.201        0.245      135.928       21.325        0.025      336.862        8.448      868.611
12/22/2013  13:23:00       50.068       64.883       15.697       47.460       34.477       37.074     2252.491     1188.648     1374.447        0.589        0.241       81.955       19.480        0.056      336.878        8.475      868.640
12/22/2013  13:24:00       70.062       86.017       55.112       52.170       35.351       41.950     2721.688     1249.679     1759.819        1.054        0.287      110.940       35.999        0.105      336.775        8.304      868.669
12/22/2013  13:25:00       36.159       36.483       41.956       37.635       30.767       33.656     1416.376      946.597     1132.741        0.395        0.175       51.366       27.246        0.281      336.980        8.646      868.690
12/22/2013  13:26:00       40.428       35.822       31.856       27.239       26.940       23.456      741.959      725.761      550.166        0.297        0.101       54.015       15.618        0.084      337.057        8.774      868.696
12/22/2013  13:27:00       39.291       37.981       28.435       27.743       31.264       25.419      769.650      977.435      646.141        0.309        0.120       54.647       23.026        0.178      337.124        8.886      868.703
12/22/2013  13:28:00       15.740       27.997       11.233       32.388       24.335       20.017     1048.979      592.190      400.674        0.160        0.102       32.118        9.421        0.086      337.176        8.973      868.701
12/22/2013  13:29:00        2.015       73.968       -4.821       17.308       29.026       21.573      299.557      842.527      465.397        0.355        0.080       73.995       18.860        0.065      336.945        8.587      868.711
12/22/2013  13:30:00        5.314       51.026      -13.734       19.087       22.012       17.102      364.295      484.533      292.493        0.198        0.057       51.302        6.105        0.014      336.884        8.485      868.722
12/22/2013  13:31:00        2.754       62.033       -7.598       15.183       28.291       17.603      230.516      800.379      309.850        0.263        0.067       62.095       10.619        0.029      336.978        8.643      868.723
12/22/2013  13:32:00      -18.104       69.343      -18.736       16.493       15.174       13.083      272.011      230.244      171.170        0.308        0.034       71.668       10.089        0.020      336.848        8.427      868.728
12/22/2013  13:33:00      -57.645       13.751      -12.978       34.627       27.337       21.502     1198.996      747.315      462.320        0.304        0.120       59.263        9.464        0.026      336.981        8.648      868.731
12/22/2013  13:34:00      -89.744        6.386      -15.159       21.190       25.546       19.061      449.035      652.596      363.317        0.489        0.073       89.971       13.474        0.022      336.940        8.578      868.718
12/22/2013  13:35:00      -26.487       -0.241      -16.112       21.431       15.489       24.516      459.278      239.898      601.047        0.113        0.065       26.488       19.846        0.561      337.217        9.042      868.689
12/22/2013  13:36:00      -20.659      -16.663       11.193       24.139       19.163       17.909      582.671      367.225      320.740        0.105        0.064       26.542       14.639        0.304      337.376        9.306      868.664
12/22/2013  13:37:00       -3.414       12.817       22.480        8.765       10.209       12.397       76.828      104.230      153.690        0.051        0.017       13.264        7.569        0.326      337.615        9.709      868.641
12/22/2013  13:38:00      -12.814      -14.486       14.370       19.061       29.674       22.956      363.332      880.530      526.957        0.118        0.089       19.340       19.286        0.994      337.756        9.946      868.616
12/22/2013  13:39:00       31.650       17.544       47.692       51.261       57.297       33.674     2627.718     3282.893     1133.906        0.531        0.352       36.187       32.339        0.799      337.377        9.311      868.596
12/22/2013  13:40:00       30.057       -7.807       23.505       46.619       67.528       33.004     2173.314     4560.002     1089.268        0.467        0.391       31.055       39.369        1.607      337.283        9.153      868.593
12/22/2013  13:41:00       52.001       -4.122       53.792       46.004       61.350       39.451     2116.343     3763.856     1556.391        0.652        0.372       52.164       36.283        0.484      337.335        9.239      868.576
12/22/2013  13:42:00       17.036       34.590       54.776       35.665       37.043       28.458     1271.960     1372.201      809.862        0.397        0.173       38.557       27.222        0.498      337.325        9.222      868.566
12/22/2013  13:43:00       56.722        6.817       33.988       50.532       58.023       43.236     2553.490     3366.687     1869.322        0.610        0.389       57.130       35.775        0.392      337.291        9.167      868.557
12/22/2013  13:44:00       14.252       20.547       23.143       26.337       39.028       28.106      693.618     1523.214      789.963        0.208        0.150       25.006       19.371        0.600      337.425        9.390      868.559
12/22/2013  13:45:00       16.404      -71.385       -2.850       40.940       64.428       33.051     1676.082     4150.990     1092.352        0.615        0.346       73.246       29.039        0.157      337.307        9.192      868.544
12/22/2013  13:46:00       74.940      -83.423      -11.817       46.306       36.626       30.519     2144.253     1341.481      931.382        0.857        0.221      112.140       22.312        0.040      337.028        8.726      868.540
12/22/2013  13:47:00       34.857      -72.954       -7.520       38.378       40.908       36.302     1472.850     1673.442     1317.848        0.553        0.223       80.853       30.490        0.142      337.294        9.170      868.529
12/22/2013  13:48:00       -4.859      -62.720        5.521       29.640       40.283       33.183      878.518     1622.732     1101.125        0.379        0.180       62.908       23.956        0.145      337.432        9.401      868.509
12/22/2013  13:49:00       31.871      -16.246       14.884       38.800       43.795       30.038     1505.451     1918.016      902.291        0.291        0.216       35.773       24.754        0.479      337.399        9.346      868.505
12/22/2013  13:50:00       53.888      -54.508       -5.763       39.703       41.040       26.916     1576.293     1684.321      724.496        0.495        0.199       76.649       28.871        0.142      337.204        9.019      868.518
12/22/2013  13:51:00       26.340      -20.370       13.069       15.365       23.007       23.151      236.097      529.312      535.989        0.129        0.065       33.298       19.800        0.354      337.543        9.588      868.532
12/22/2013  13:52:00       25.186      -66.473       -3.103       44.638       33.206       24.663     1992.566     1102.606      608.270        0.438        0.185       71.085        9.170        0.017      337.478        9.478      868.529
12/22/2013  13:53:00      -27.984      -69.820      -19.966       34.397       35.175       25.647     1183.164     1237.302      657.788        0.457        0.154       75.220       13.371        0.032      337.520        9.550      868.526
12/22/2013  13:54:00        6.381       -4.816       38.821       31.099       52.633       30.128      967.166     2770.200      907.685        0.311        0.232        7.994       26.331       10.849      337.507        9.527      868.522
12/22/2013  13:55:00       -3.996       -3.552       22.185       14.279       26.084       20.000      203.903      680.360      400.004        0.090        0.064        5.347       17.754       11.026      337.719        9.883      868.528
12/22/2013  13:56:00       24.028      -60.526       11.324       45.956       44.699       37.196     2111.955     1997.963     1383.570        0.493        0.275       65.121       19.249        0.087      337.420        9.382      868.539
12/22/2013  13:57:00       14.269       39.579       47.839       30.325       31.677       23.769      919.587     1003.425      564.971        0.327        0.124       42.073       20.878        0.246      337.456        9.442      868.562
12/22/2013  13:58:00       11.500       37.639       25.056       25.658       26.497       22.119      658.350      702.105      489.270        0.201        0.092       39.357       11.316        0.083      337.550        9.601      868.580
12/22/2013  13:59:00       13.226       25.149       30.143       20.197       28.958       19.828      407.934      838.559      393.143        0.168        0.082       28.415       19.871        0.489      337.615        9.709      868.587
12/22/2013  14:00:00       18.241       23.859      -10.414       14.522       29.218       13.333      210.903      853.695      177.762        0.113        0.062       30.033       12.185        0.165      337.377        9.310      868.580
12/22/2013  14:01:00       -4.394       -3.063       14.382        9.582       10.783       10.067       91.805      116.283      101.342        0.027        0.015        5.356        6.039        1.271      337.941       10.255      868.582
12/22/2013  14:02:00       10.053      -11.996      -10.942        7.168       10.163       10.370       51.378      103.286      107.545        0.031        0.013       15.652        5.115        0.107      337.611        9.701      868.576
12/22/2013  14:03:00       25.279       14.132      -11.691       13.434       13.296        9.999      180.481      176.783       99.975        0.072        0.023       28.961        7.769        0.072      337.418        9.380      868.562
12/22/2013  14:04:00       47.119       23.184       -2.728       13.768       29.455       16.064      189.564      867.612      258.051        0.204        0.066       52.514       13.637        0.067      337.346        9.257      868.537
12/22/2013  14:05:00       27.785       19.311        0.380       25.627       11.799       20.141      656.719      139.210      405.665        0.117        0.060       33.837       15.025        0.197      337.529        9.564      868.520
12/22/2013  14:06:00       27.350       16.990       12.138       39.128       27.356       30.215     1531.009      748.352      912.949        0.219        0.160       32.198       17.662        0.301      337.767        9.964      868.513
12/22/2013  14:07:00       63.105       19.947        8.537       36.853       43.160       28.325     1358.148     1862.789      802.300        0.424        0.201       66.183       18.681        0.080      337.531        9.568      868.509
12/22/2013  14:08:00       69.788       41.583        8.442       51.977       36.736       27.397     2701.660     1349.565      750.617        0.574        0.240       81.238       23.928        0.087      337.519        9.549      868.504
12/22/2013  14:09:00       61.451       64.972       24.047       30.541       36.717       35.826      932.763     1348.128     1283.520        0.607        0.178       89.429        5.072        0.003      337.450        9.433      868.515
12/22/2013  14:10:00       37.785       66.916       45.091       37.919       26.535       33.055     1437.821      704.089     1092.604        0.559        0.162       76.847       23.537        0.094      337.697        9.845      868.518
12/22/2013  14:11:00       -6.573       92.291      110.819       22.448       37.605       27.250      503.922     1414.167      742.559        1.175        0.133       92.525       24.000        0.067      337.619        9.715      868.513
12/22/2013  14:12:00       49.866       61.225       51.319       63.022       49.170       49.101     3971.767     2417.708     2410.951        0.883        0.440       78.963       48.534        0.378      337.543        9.587      868.512
12/22/2013  14:13:00      112.381       87.961       12.991       40.677       37.698       36.545     1654.594     1421.106     1335.531        1.247        0.221      142.712       30.641        0.046      337.386        9.325      868.520
12/22/2013  14:14:00       61.768       46.329       21.091       15.961       19.227       17.921      254.751      369.687      321.164        0.368        0.047       77.211       12.156        0.025      337.403        9.353      868.512
12/22/2013  14:15:00       99.633       54.382       20.460       28.225       22.599       27.848      796.660      510.716      775.491        0.769        0.104      113.508       12.645        0.012      337.511        9.535      868.506
12/22/2013  14:16:00       55.200       49.647       53.380       56.031       35.242       29.816     3139.440     1242.027      888.975        0.682        0.264       74.242       29.730        0.160      337.728        9.897      868.508
12/22/2013  14:17:00       66.045       62.014       57.840       67.778       51.006       57.792     4593.831     2601.653     3339.892        1.104        0.527       90.596       52.883        0.341      337.452        9.436      868.529
12/22/2013  14:18:00      102.183       63.725       45.659       54.032       44.791       39.048     2919.475     2006.196     1524.757        1.152        0.323      120.426       28.740        0.057      337.450        9.433      868.533
12/22/2013  14:19:00       96.482       50.248       52.688       44.503       54.220       40.301     1980.544     2939.855     1624.160        1.058        0.327      108.783       27.936        0.066      337.513        9.537      868.548
12/22/2013  14:20:00       85.933       71.652       48.909       45.109       33.196       37.217     2034.830     1101.943     1385.111        0.972        0.226      111.887       25.509        0.052      337.534        9.574      868.579
12/22/2013  14:21:00       30.382       80.589       83.741       40.362       37.638       28.822     1629.090     1416.642      830.701        0.915        0.194       86.126       22.629        0.069      337.584        9.657      868.608
12/22/2013  14:22:00       64.448       65.852       38.857       32.019       32.412       34.517     1025.204     1050.546     1191.409        0.663        0.163       92.141       25.097        0.074      337.419        9.380      868.631
12/22/2013  14:23:00       70.422       64.957       49.869       54.198       27.192       34.942     2937.438      739.407     1220.927        0.828        0.245       95.805       33.419        0.122      337.505        9.523      868.648
12/22/2013  14:24:00       19.823       23.477       11.050       26.163       20.509       24.098      684.518      420.631      580.713        0.138        0.084       30.727       16.346        0.283      337.574        9.639      868.658
12/22/2013  14:25:00       27.207       -6.468       25.496       34.093       39.427       34.098     1162.320     1554.470     1162.652        0.266        0.194       27.965       20.935        0.560      337.765        9.961      868.660
12/22/2013  14:26:00       40.597       42.096       41.931       57.698       39.292       36.044     3329.083     1543.844     1299.176        0.567        0.309       58.482       34.957        0.357      337.691        9.835      868.668
12/22/2013  14:27:00       46.648       35.089       -5.683       28.891       17.487       16.514      834.669      305.780      272.711        0.243        0.071       58.372       14.874        0.065      337.636        9.743      868.661
12/22/2013  14:28:00       37.486      -87.706       -9.877       52.790       59.637       25.770     2786.778     3556.530      664.072        0.810        0.350       95.381        9.228        0.009      337.696        9.844      868.654
12/22/2013  14:29:00       25.940      -60.350       16.263       52.368       55.074       47.583     2742.459     3033.152     2264.186        0.631        0.402       65.689       37.270        0.322      337.762        9.954      868.635
12/22/2013  14:30:00       40.250      -64.384       12.704       37.710       58.604       33.125     1422.053     3434.484     1097.234        0.594        0.298       75.930       31.284        0.170      337.737        9.913      868.635
12/22/2013  14:31:00       50.805     -139.171      -20.930       24.509       33.513       26.125      600.695     1123.111      682.529        1.240        0.120      148.155       22.834        0.024      337.529        9.563      868.640
12/22/2013  14:32:00       46.491     -135.714      -16.603       20.228       31.821       27.283      409.190     1012.553      744.350        1.151        0.108      143.456       22.593        0.025      337.574        9.640      868.637
12/22/2013  14:33:00       36.901      -58.887       -7.311       19.454       49.074       27.237      378.446     2408.257      741.867        0.421        0.176       69.494       29.729        0.183      337.693        9.838      868.635
12/22/2013  14:34:00       27.221       19.884       21.895       22.561       14.319       15.175      508.981      205.031      230.275        0.128        0.047       33.710       14.477        0.184      337.678        9.815      868.634
12/22/2013  14:35:00       -5.699        8.911       18.153       13.518        9.745       11.002      182.729       94.959      121.039        0.042        0.020       10.578        9.205        0.757      338.048       10.436      868.641
12/22/2013  14:36:00       -8.626       -7.620       11.754       25.974       16.293       13.267      674.623      265.468      176.024        0.069        0.056       11.509        8.046        0.489      338.123       10.560      868.645
12/22/2013  14:37:00      -32.181       14.872        9.306       26.814       14.221       15.246      719.009      202.224      232.429        0.125        0.058       35.451       12.282        0.120      338.082       10.492      868.649
12/22/2013  14:38:00      -43.247        2.157        3.160       19.849       20.734       12.802      393.981      429.884      163.899        0.144        0.049       43.301        8.508        0.039      338.037       10.416      868.638
12/22/2013  14:39:00      -54.588      -30.441        0.938       30.775       28.620       16.961      947.095      819.079      287.666        0.298        0.103       62.502       18.132        0.084      338.010       10.372      868.634
12/22/2013  14:40:00      -74.994      -38.869      -16.010       15.116       22.513       10.198      228.492      506.826      104.003        0.412        0.042       84.469        3.283        0.002      337.638        9.749      868.634
12/22/2013  14:41:00      -18.816       10.242       -5.851       15.031        7.367       10.587      225.923       54.270      112.081        0.044        0.020       21.423        9.897        0.213      337.903       10.191      868.634
12/22/2013  14:42:00        3.420        6.019        6.649       10.457        6.209        8.304      109.344       38.546       68.948        0.015        0.011        6.923        5.595        0.653      338.185       10.665      868.638
12/22/2013  14:43:00       38.519      -13.003        1.294       19.709       13.507       13.532      388.438      182.444      183.114        0.120        0.038       40.655       10.588        0.068      337.893       10.175      868.644
12/22/2013  14:44:00       -4.970        7.708        4.029       13.442        7.626        7.574      180.684       58.161       57.359        0.020        0.015        9.172        6.851        0.558      338.050       10.438      868.643
12/22/2013  14:45:00       -8.514       28.265       19.903       22.140       18.442       16.965      490.189      340.094      287.811        0.119        0.056       29.519       14.030        0.226      338.044       10.428      868.654
12/22/2013  14:46:00      -23.944       25.391       -3.001       22.979       21.105       15.107      528.041      445.423      228.218        0.121        0.060       34.900       12.759        0.134      338.045       10.430      868.667
12/22/2013  14:47:00       37.454       26.537        3.808       10.932       12.081       12.586      119.518      145.951      158.398        0.127        0.021       45.902        6.757        0.022      337.993       10.343      868.685
12/22/2013  14:48:00       29.106       18.442        1.966       11.734       10.420       10.796      137.684      108.569      116.543        0.078        0.018       34.457        7.345        0.045      337.992       10.342      868.697
12/22/2013  14:49:00       33.656       26.691       12.980       26.596       17.209       10.152      707.368      296.139      103.062        0.156        0.055       42.955        7.915        0.034      338.072       10.474      868.695
12/22/2013  14:50:00       59.274       37.271       32.397       56.062       34.553       29.721     3142.971     1193.924      883.354        0.559        0.261       70.018       32.585        0.217      338.060       10.455      868.695
12/22/2013  14:51:00       86.504       57.263        6.888       41.840       43.874       21.345     1750.593     1924.915      455.611        0.747        0.207      103.740        8.098        0.006      337.872       10.139      868.697
12/22/2013  14:52:00       46.673       39.419        5.620       49.856       38.921       21.158     2485.618     1514.860      447.679        0.411        0.222       61.092       18.638        0.093      337.914       10.210      868.699
12/22/2013  14:53:00       61.411       32.289       -2.893       44.973       30.750       21.678     2022.606      945.563      469.946        0.413        0.172       69.382        8.360        0.015      337.882       10.157      868.696
12/22/2013  14:54:00       40.277       28.769        2.673       25.805       28.408       21.095      665.913      807.036      445.015        0.219        0.096       49.496       17.131        0.120      337.877       10.148      868.695
12/22/2013  14:55:00       22.895       53.927        7.808       38.508       36.119       26.066     1482.894     1304.553      679.435        0.348        0.173       58.586       23.029        0.155      337.827       10.063      868.690
12/22/2013  14:56:00        6.534       83.829      -12.047       15.391       16.639       16.135      236.881      276.855      260.347        0.399        0.039       84.083        8.594        0.010      337.852       10.107      868.697
12/22/2013  14:57:00       11.733       72.481      -12.049       13.183       26.729       11.240      173.784      714.458      126.330        0.328        0.051       73.424        3.901        0.003      337.846       10.096      868.713
12/22/2013  14:58:00       31.057       42.479       -1.595       29.223       32.234       19.917      854.006     1039.029      396.670        0.253        0.114       52.621       16.849        0.103      337.913       10.208      868.718
12/22/2013  14:59:00       62.848       16.512       17.533       26.763       38.295       25.072      716.234     1466.519      628.613        0.367        0.141       64.981       17.649        0.074      337.892       10.173      868.723
12/22/2013  15:00:00       23.646       21.481       33.891       26.409       26.251       22.505      697.437      689.115      506.495        0.203        0.095       31.946       21.762        0.464      338.053       10.444      868.726
12/22/2013  15:01:00       71.587       57.217       49.087       41.215       30.202       25.744     1698.676      912.186      662.736        0.704        0.164       91.643       18.230        0.040      338.021       10.390      868.734
12/22/2013  15:02:00        6.309       22.394       31.810       25.793       34.128       26.079      665.278     1164.718      680.124        0.203        0.126       23.265       24.860        1.142      338.153       10.612      868.747
12/22/2013  15:03:00       28.862       37.526       21.388       25.570       30.885       28.411      653.823      953.913      807.164        0.256        0.121       47.342       13.919        0.086      338.060       10.455      868.751
12/22/2013  15:04:00       48.549       30.331       -4.897       17.348       16.295       19.171      300.965      265.525      367.524        0.212        0.047       57.245       12.668        0.049      337.954       10.277      868.744
12/22/2013  15:05:00       40.690       22.302       13.030       32.099       32.234       18.910     1030.319     1039.012      357.584        0.237        0.121       46.401       15.283        0.108      337.981       10.321      868.748
12/22/2013  15:06:00       43.618       23.425        2.642       26.261       20.851       16.486      689.666      434.764      271.779        0.193        0.070       49.510       10.657        0.046      337.957       10.283      868.763
12/22/2013  15:07:00       57.754       53.887        1.367       27.846       18.384       21.319      775.386      337.985      454.479        0.390        0.078       78.990       16.478        0.044      337.882       10.156      868.780
12/22/2013  15:08:00       22.674       30.047        4.079       22.776       26.996       18.330      518.745      728.801      335.998        0.151        0.079       37.642       11.341        0.091      338.004       10.361      868.797
12/22/2013  15:09:00       63.609       31.342       17.197       28.429       25.204       21.011      808.228      635.253      441.468        0.360        0.094       70.911        8.184        0.013      337.940       10.254      868.812
12/22/2013  15:10:00       80.184       31.600       21.034       30.582       21.527       19.457      935.232      463.419      378.580        0.482        0.089       86.186       10.286        0.014      338.012       10.375      868.826
12/22/2013  15:11:00       52.862       29.961       10.077       31.350       13.981       19.499      982.844      195.463      380.222        0.268        0.078       60.762       16.772        0.076      337.996       10.349      868.849
12/22/2013  15:12:00       57.071       55.889       35.058       18.728       18.540       27.302      350.729      343.719      745.398        0.452        0.072       79.879       11.510        0.021      338.038       10.420      868.870
12/22/2013  15:13:00       27.728       30.072       27.044       24.408       34.618       35.186      595.754     1198.390     1238.030        0.272        0.152       40.905       31.165        0.580      338.034       10.411      868.895
12/22/2013  15:14:00       15.791       20.079       26.248       19.832       16.677       13.256      393.305      278.112      175.715        0.109        0.042       25.544       10.007        0.153      338.177       10.650      868.904
12/22/2013  15:15:00        6.431       20.956       26.150       17.711       19.228       11.706      313.689      369.720      137.023        0.099        0.041       21.921       10.596        0.234      338.228       10.738      868.902
12/22/2013  15:16:00       12.675       20.183       26.885       19.139       14.459       12.232      366.287      209.070      149.611        0.101        0.036       23.833        6.634        0.077      338.256       10.784      868.902
12/22/2013  15:17:00       37.179       59.517       44.736       40.765       25.199       27.273     1661.778      634.982      743.798        0.498        0.152       70.175       22.169        0.100      338.042       10.425      868.901
12/22/2013  15:18:00       57.427       60.265       41.364       25.026       27.097       22.232      626.306      734.251      494.264        0.525        0.093       83.245        7.521        0.008      337.973       10.311      868.899
12/22/2013  15:19:00       28.688       61.277       55.946       30.424       28.330       21.562      925.646      802.571      464.940        0.495        0.110       67.660       17.164        0.064      338.078       10.485      868.897
12/22/2013  15:20:00       54.788       48.155       43.655       37.271       26.742       32.906     1389.135      715.146     1082.835        0.521        0.159       72.942       27.435        0.141      337.994       10.345      868.901
12/22/2013  15:21:00       75.738       46.317       35.080       28.456       29.595       25.383      809.769      875.840      644.277        0.572        0.116       88.777       18.191        0.042      337.986       10.331      868.902
12/22/2013  15:22:00       47.681      -25.370       -1.613       29.214       25.256       18.735      853.471      637.844      350.994        0.238        0.092       54.010       11.974        0.049      338.024       10.396      868.897
12/22/2013  15:23:00       16.717       37.633       47.510       32.580       39.748       31.893     1061.482     1579.931     1017.142        0.381        0.183       41.179       26.633        0.418      338.212       10.710      868.895
12/22/2013  15:24:00       38.441       63.434       55.655       27.740       27.780       26.211      769.527      771.727      687.030        0.541        0.111       74.172       23.184        0.098      337.994       10.345      868.905
12/22/2013  15:25:00       67.877       54.283       33.524       28.820       21.645       25.381      830.575      468.516      644.212        0.531        0.097       86.913       18.404        0.045      337.959       10.286      868.916
12/22/2013  15:26:00       65.589       19.701       26.139       27.983       25.419       25.240      783.042      646.126      637.059        0.372        0.103       68.484       10.685        0.024      337.961       10.289      868.923
12/22/2013  15:27:00       56.518       46.965       18.788       10.408       14.019       11.987      108.333      196.521      143.693        0.310        0.022       73.485        8.961        0.015      338.017       10.384      868.925
12/22/2013  15:28:00       76.831       38.963       17.504       32.256       18.897       16.362     1040.441      357.100      267.725        0.470        0.083       86.146        8.135        0.009      338.016       10.382      868.924
12/22/2013  15:29:00       25.978       26.146       19.127       32.176       17.861       11.563     1035.273      319.003      133.695        0.161        0.074       36.857        8.311        0.051      338.058       10.452      868.929
12/22/2013  15:30:00       -0.680       20.857       30.931       11.517       19.621       15.083      132.647      384.972      227.497        0.107        0.037       20.868       11.076        0.282      338.255       10.782      868.935
12/22/2013  15:31:00       38.991      -20.697        6.395       38.561       20.846       13.678     1486.957      434.547      187.094        0.205        0.105       44.143       12.083        0.075      338.086       10.499      868.944
12/22/2013  15:32:00       10.543       -3.398        6.652       12.204        9.152       13.659      148.931       83.762      186.573        0.029        0.021       11.077        9.994        0.814      338.231       10.742      868.950
12/22/2013  15:33:00       35.285       25.716        3.847       14.868       13.128       11.594      221.053      172.345      134.426        0.122        0.026       43.661        6.536        0.022      338.009       10.370      868.964
12/22/2013  15:34:00       37.771       36.596        1.006       30.568       29.034       21.122      934.404      842.984      446.139        0.249        0.111       52.592       16.468        0.098      338.074       10.478      868.977
12/22/2013  15:35:00       -1.943       12.069       -3.168       21.778       26.535       12.656      474.279      704.084      160.175        0.075        0.067       12.224       12.691        1.078      338.124       10.562      868.993
12/22/2013  15:36:00        2.127      -10.968        5.082       27.000       18.735       18.043      728.983      351.003      325.533        0.078        0.070       11.173       15.492        1.923      338.254       10.781      868.995
12/22/2013  15:37:00        6.317        8.527        4.845       20.613       16.807       14.788      424.891      282.459      218.695        0.053        0.046       10.612       13.041        1.510      338.259       10.790      868.991
12/22/2013  15:38:00        0.020      -16.322       14.429       13.679       19.399       11.579      187.124      376.336      134.071        0.059        0.035       16.322        8.409        0.265      338.402       11.029      868.981
12/22/2013  15:39:00        0.083      -37.318       10.875       17.663       15.716       17.122      311.996      247.005      293.147        0.118        0.043       37.318       11.026        0.087      338.357       10.954      868.981
12/22/2013  15:40:00        0.083       10.276       23.817       16.929       22.708       11.596      286.580      515.652      134.460        0.080        0.047       10.276       11.455        1.243      338.325       10.899      868.972
12/22/2013  15:41:00       59.957      -89.606      -12.928       49.584       39.085       26.993     2458.544     1527.667      728.627        0.825        0.236      107.815       31.168        0.084      338.152       10.610      868.970
12/22/2013  15:42:00       13.778      -13.579       38.719       35.859       61.333       36.929     1285.864     3761.677     1363.749        0.414        0.321       19.345       39.251        4.117      338.194       10.680      868.982
12/22/2013  15:43:00       13.825       36.327       67.261       31.106       54.351       30.357      967.606     2953.991      921.538        0.544        0.242       38.869       35.862        0.851      338.145       10.598      868.993
12/22/2013  15:44:00       32.516      -41.068       14.891       34.004       47.466       22.931     1156.300     2253.056      525.826        0.345        0.197       52.382       25.094        0.230      338.162       10.627      868.997
12/22/2013  15:45:00       -2.928       36.156       53.342       12.730       26.346       14.854      162.058      694.114      220.655        0.262        0.054       36.274       16.634        0.210      338.156       10.617      868.998
12/22/2013  15:46:00        7.600       21.523       38.481       20.322       26.960       27.262      412.969      726.837      743.207        0.194        0.094       22.825       17.352        0.578      338.119       10.554      868.991
12/22/2013  15:47:00       20.868       -4.079       10.829       32.281       22.272       20.497     1042.093      496.040      420.139        0.126        0.098       21.263       22.341        1.104      338.171       10.641      868.996
12/22/2013  15:48:00       39.089      -41.142        3.243       36.891       36.530       21.136     1360.977     1334.469      446.729        0.319        0.157       56.750       21.625        0.145      338.196       10.683      868.995
12/22/2013  15:49:00        4.789      -49.427       -2.905       34.342       28.245       23.454     1179.397      797.765      550.083        0.250        0.126       49.658       18.097        0.133      338.217       10.718      868.991
12/22/2013  15:50:00       10.811      -57.322        6.915       36.769       43.533       21.871     1351.926     1895.144      478.321        0.359        0.186       58.332       24.653        0.179      338.304       10.864      868.985
12/22/2013  15:51:00       16.630      -78.007       -6.769       47.409       26.985       22.365     2247.651      728.212      500.208        0.494        0.174       79.760       12.382        0.024      338.237       10.750      868.980
12/22/2013  15:52:00        6.719      -13.039       14.205       24.186       23.160       21.972      584.944      536.365      482.771        0.101        0.080       14.669       13.932        0.902      338.248       10.769      868.983
12/22/2013  15:53:00       25.496       -0.195       24.002       29.147       29.070       22.663      849.542      845.046      513.626        0.172        0.110       25.497       19.698        0.597      338.141       10.591      868.984
12/22/2013  15:54:00      -24.630       -3.106       14.242       20.565       25.364       16.683      422.916      643.329      278.326        0.108        0.067       24.825       15.689        0.399      338.146       10.599      868.982
12/22/2013  15:55:00        1.785       11.990       24.542       13.249       25.388       20.383      175.525      644.536      415.460        0.099        0.062       12.122       20.315        2.809      338.205       10.698      868.986
12/22/2013  15:56:00        5.351        9.201       21.508       20.516       19.991       15.221      420.904      399.631      231.682        0.081        0.053       10.644       13.222        1.543      338.166       10.635      868.996
12/22/2013  15:57:00      -11.748       24.776       40.502       11.353       19.399       13.527      128.896      376.306      182.974        0.154        0.034       27.420       10.136        0.137      338.140       10.589      868.999
12/22/2013  15:58:00        7.823       -8.541       20.703       23.406       26.231       19.952      547.852      688.057      398.078        0.110        0.082       11.582       11.836        1.044      338.150       10.607      869.006
12/22/2013  15:59:00        2.072       18.309       32.129       18.035       25.950       14.164      325.244      673.414      200.618        0.129        0.060       18.426       11.832        0.412      338.085       10.496      869.019
12/22/2013  16:00:00       -8.543       24.821       48.670       16.448       25.304       21.094      270.545      640.296      444.944        0.221        0.068       26.250       10.805        0.169      338.135       10.581      869.029
12/22/2013  16:01:00       -6.748       34.893       41.340       20.682       23.238       16.986      427.759      540.028      288.518        0.211        0.063       35.540       10.740        0.091      338.110       10.541      869.038
12/22/2013  16:02:00       -5.606        4.133       23.073       20.610       19.387       13.738      424.782      375.849      188.744        0.078        0.049        6.965       12.329        3.133      338.166       10.633      869.035
12/22/2013  16:03:00       -1.521       22.162       38.833       19.051       30.522       25.985      362.957      931.608      675.203        0.199        0.098       22.215       19.331        0.757      338.054       10.444      869.037
12/22/2013  16:04:00       -6.128       30.799       45.500       12.667       21.266       16.432      160.461      452.243      270.018        0.197        0.044       31.402       14.971        0.227      338.099       10.520      869.036
12/22/2013  16:05:00        0.956       23.697       44.610       14.074       20.602       12.926      198.068      424.459      167.094        0.167        0.039       23.716        9.769        0.170      338.163       10.627      869.045
12/22/2013  16:06:00        0.789       26.022       35.681       15.653       22.292       10.423      245.001      496.914      108.637        0.140        0.043       26.034        7.913        0.092      338.131       10.574      869.047
12/22/2013  16:07:00       10.637       15.153       20.940       19.078       20.237       14.774      363.955      409.517      218.271        0.089        0.050       18.514       14.481        0.612      338.076       10.481      869.054
12/22/2013  16:08:00        2.590      -11.032       -4.918       18.420       19.115       12.658      339.301      365.392      160.218        0.051        0.043       11.332       10.793        0.907      338.059       10.455      869.063
12/22/2013  16:09:00       -7.521        3.011       16.894       14.630       14.415        9.873      214.027      207.792       97.468        0.044        0.026        8.101       10.367        1.638      338.192       10.677      869.064
12/22/2013  16:10:00       13.352       18.004       35.756       25.930       21.160       13.797      672.358      447.761      190.349        0.155        0.066       22.415       15.890        0.503      338.115       10.546      869.080
12/22/2013  16:11:00        4.093        3.316       20.557       20.086       17.154       14.943      403.432      294.246      223.295        0.069        0.046        5.268       10.969        4.336      338.053       10.443      869.093
12/22/2013  16:12:00       28.605       14.510       26.476       24.976       19.464       17.764      623.805      378.840      315.561        0.152        0.066       32.074       14.917        0.216      338.000       10.355      869.094
12/22/2013  16:13:00       26.526       27.030       32.847       23.828       21.137       19.289      567.794      446.788      372.067        0.195        0.069       37.871       13.114        0.120      337.962       10.290      869.094
12/22/2013  16:14:00        8.897       19.442       26.565       15.360       17.528       15.711      235.933      307.227      246.837        0.098        0.039       21.381       12.848        0.361      337.903       10.190      869.098
12/22/2013  16:15:00       29.843        3.673       15.430       23.103       26.240       15.440      533.768      688.520      238.393        0.130        0.073       30.069       15.188        0.255      337.854       10.109      869.092
12/22/2013  16:16:00       37.856       32.082       21.658       27.576       24.183       20.073      760.449      584.822      402.917        0.234        0.087       49.622       13.373        0.073      337.785        9.995      869.098
12/22/2013  16:17:00       52.222       20.522       19.749       28.937       18.026       15.776      837.334      324.950      248.883        0.247        0.071       56.109       12.117        0.047      337.830       10.069      869.116
12/22/2013  16:18:00       68.477       35.979       13.068       21.164       13.675       13.396      447.930      186.995      179.453        0.348        0.041       77.354        9.200        0.014      337.848       10.101      869.143
12/22/2013  16:19:00       49.640       37.074        2.983       16.538       13.424       11.046      273.490      180.195      122.012        0.221        0.029       61.957       10.420        0.028      337.747        9.930      869.162
12/22/2013  16:20:00       54.163       42.243        6.735       11.452       13.317        9.435      131.148      177.348       89.017        0.258        0.020       68.689        6.037        0.008      337.712        9.872      869.179
12/22/2013  16:21:00       34.730       25.701       10.454       20.432       12.652       10.589      417.466      160.065      112.134        0.133        0.034       43.206        4.614        0.011      337.659        9.782      869.191
12/22/2013  16:22:00       39.553       28.072        6.662       13.175       13.823        9.099      173.578      191.087       82.784        0.142        0.022       48.502        6.479        0.018      337.701        9.853      869.197
12/22/2013  16:23:00       36.046       25.450        3.345       16.007       15.384        9.104      256.240      236.656       82.880        0.127        0.029       44.125        8.180        0.034      337.701        9.853      869.208
12/22/2013  16:24:00       35.921       25.392        1.725       16.486       14.998       12.324      271.784      224.949      151.890        0.129        0.032       43.990        6.089        0.019      337.744        9.925      869.217
12/22/2013  16:25:00       42.862       35.227        1.533       25.337       15.564       10.284      641.945      242.251      105.766        0.204        0.049       55.481       10.601        0.037      337.803       10.024      869.222
12/22/2013  16:26:00       31.205       29.361        1.213       21.382       11.460       12.188      457.206      131.328      148.538        0.129        0.037       42.847        6.964        0.026      337.804       10.026      869.213
12/22/2013  16:27:00       17.089       20.503        3.328       14.112       13.160        9.674      199.151      173.194       93.587        0.059        0.023       26.691        5.280        0.039      337.770        9.969      869.216
12/22/2013  16:28:00       23.311       23.626        1.487       16.052       13.627       10.796      257.679      185.706      116.562        0.083        0.028       33.190        8.380        0.064      337.700        9.851      869.214
12/22/2013  16:29:00       22.997       25.344        2.362       13.807       11.748       11.254      190.631      138.013      126.646        0.082        0.023       34.223        7.971        0.054      337.619        9.714      869.214
12/22/2013  16:30:00       35.023       24.746        4.475       15.107        7.947        9.458      228.219       63.160       89.452        0.112        0.019       42.884        4.716        0.012      337.681        9.818      869.230
12/22/2013  16:31:00       38.016       19.100        2.187        9.248       12.198        6.591       85.522      148.782       43.439        0.105        0.014       42.545        5.527        0.017      337.680        9.817      869.231
12/22/2013  16:32:00       22.720       16.741       -0.614       11.190        8.556        8.335      125.221       73.203       69.469        0.053        0.013       28.222        3.718        0.017      337.612        9.704      869.234
12/22/2013  16:33:00       27.349       13.456        1.015        7.293        7.447        6.616       53.195       55.450       43.771        0.054        0.008       30.480        3.990        0.017      337.617        9.712      869.231
12/22/2013  16:34:00       16.082       11.743       -1.701       15.413        8.906        6.906      237.570       79.321       47.695        0.038        0.018       19.913        7.816        0.154      337.693        9.841      869.230
12/22/2013  16:35:00       10.679        9.453        1.250        9.983        7.847        5.415       99.668       61.571       29.322        0.020        0.010       14.262        4.853        0.116      337.653        9.773      869.230
12/22/2013  16:36:00       16.530        6.572       -0.674        7.682        9.337        5.847       59.013       87.187       34.187        0.025        0.009       17.789        5.797        0.106      337.707        9.862      869.242
12/22/2013  16:37:00       27.750        6.238        3.387        9.955        7.659        5.137       99.110       58.653       26.385        0.050        0.009       28.442        2.693        0.009      337.626        9.727      869.240
12/22/2013  16:38:00       41.306       18.498       11.774       15.598        7.588        7.904      243.309       57.581       62.468        0.128        0.018       45.259        6.930        0.023      337.606        9.693      869.254
12/22/2013  16:39:00       61.404       19.715        9.721       18.981        9.061        8.148      360.270       82.110       66.397        0.238        0.025       64.492        5.017        0.006      337.576        9.641      869.260
12/22/2013  16:40:00       56.494       20.401       11.999       15.128       11.222       11.275      228.849      125.929      127.127        0.212        0.024       60.064        7.182        0.014      337.536        9.576      869.253
12/22/2013  16:41:00       48.127       23.689       10.119       15.333       10.698        8.466      235.094      114.446       71.677        0.170        0.021       53.641        5.332        0.010      337.504        9.523      869.251
12/22/2013  16:42:00       49.601       30.548       13.417        9.101        8.854        7.144       82.819       78.390       51.039        0.189        0.011       58.254        4.289        0.005      337.566        9.626      869.246
12/22/2013  16:43:00       51.421       31.936        7.450       10.745       13.429       15.111      115.465      180.334      228.333        0.212        0.026       60.531        9.744        0.026      337.568        9.630      869.244
12/22/2013  16:44:00       40.987       28.994        1.667       19.121       14.365       12.644      365.628      206.355      159.880        0.163        0.037       50.206        9.488        0.036      337.552        9.603      869.252
12/22/2013  16:45:00       18.466       22.935        2.732       21.350       15.368       12.233      455.836      236.183      149.634        0.086        0.042       29.445       11.953        0.165      337.531        9.567      869.266
12/22/2013  16:46:00       15.382       11.124       -3.427       16.342       17.294       11.016      267.048      299.083      121.342        0.053        0.034       18.983       10.921        0.331      337.526        9.559      869.268
12/22/2013  16:47:00        8.723       14.284        3.897       21.645       13.738       10.279      468.485      188.737      105.651        0.053        0.038       16.737        7.719        0.213      337.467        9.459      869.270
12/22/2013  16:48:00        3.984       35.439       -7.994       12.428       15.594        7.602      154.443      243.186       57.795        0.090        0.023       35.662        5.553        0.024      337.489        9.497      869.282
12/22/2013  16:49:00       -0.678       19.970       -2.430        8.852       17.304        5.569       78.362      299.416       31.014        0.041        0.020       19.982        3.392        0.029      337.478        9.480      869.288
12/22/2013  16:50:00      -24.435       -9.364       -5.528       21.421       26.445        7.481      458.854      699.364       55.968        0.096        0.061       26.168        3.293        0.016      336.984        8.652      869.293
12/22/2013  16:51:00      -58.460      -38.962      -15.042       12.237       12.617       10.140      149.742      159.193      102.826        0.279        0.021       70.254        5.884        0.007      336.458        7.774      869.303
12/22/2013  16:52:00      -71.551      -22.536      -14.237       13.347       15.170       10.991      178.130      230.130      120.810        0.318        0.026       75.017        3.996        0.003      336.604        8.017      869.308
12/22/2013  16:53:00     -103.622       -3.383      -17.029       26.493       15.753       12.698      701.905      248.149      161.244        0.607        0.056      103.677        7.789        0.006      336.302        7.512      869.311
12/22/2013  16:54:00     -127.136       -8.495      -20.445       10.420       10.094        8.927      108.580      101.882       79.683        0.847        0.015      127.419        3.089        0.001      336.259        7.440      869.317
12/22/2013  16:55:00     -137.075      -11.929      -19.869       14.177       12.769        8.432      200.985      163.035       71.101        0.988        0.022      137.593        6.778        0.002      336.463        7.780      869.325
12/22/2013  16:56:00     -123.150       -3.969      -11.668       12.313       11.374        8.825      151.613      129.364       77.876        0.784        0.018      123.214        4.950        0.002      336.600        8.011      869.327
12/22/2013  16:57:00     -125.863      -12.600      -17.806       15.008       18.102        9.479      225.231      327.679       89.847        0.848        0.032      126.492        5.019        0.002      336.449        7.759      869.335
12/22/2013  16:58:00     -109.792      -19.158      -14.368       23.775       15.383       12.092      565.261      236.629      146.215        0.679        0.047      111.451       13.196        0.014      336.395        7.669      869.345
12/22/2013  16:59:00     -129.175        4.300      -17.547       21.720       16.671       12.248      471.774      277.927      150.010        0.896        0.045      129.246        7.392        0.003      336.426        7.721      869.352
12/22/2013  17:00:00     -101.071      -16.125      -13.779       21.196       22.896       17.232      449.281      524.237      296.947        0.597        0.064      102.349       12.428        0.015      336.403        7.682      869.363
12/22/2013  17:01:00      -83.625      -53.442      -12.973       19.577       22.384       19.427      383.266      501.041      377.421        0.564        0.063       99.243       15.139        0.023      336.122        7.211      869.381
12/22/2013  17:02:00      -88.838      -27.899       -1.124       31.597       29.708       20.721      998.341      882.553      429.372        0.549        0.116       93.116       16.957        0.033      336.020        7.041      869.392
12/22/2013  17:03:00      -95.828       -4.007       -1.696       52.382       26.843       20.763     2743.849      720.532      431.093        0.655        0.195       95.912       25.121        0.069      336.153        7.264      869.405
12/22/2013  17:04:00      -69.179       -8.723       -1.660       20.090       24.601       14.326      403.592      605.207      205.234        0.304        0.061       69.727       11.272        0.026      336.185        7.317      869.415
12/22/2013  17:05:00      -81.177       -8.016      -13.139       34.127       21.832       16.561     1164.620      476.650      274.281        0.437        0.096       81.572       15.683        0.037      336.169        7.290      869.417
12/22/2013  17:06:00      -83.426        7.033      -13.989       36.498       29.391       20.138     1332.081      863.839      405.537        0.490        0.130       83.721       14.930        0.032      336.218        7.372      869.421
12/22/2013  17:07:00      -97.017       24.154      -13.083       61.148       35.513       24.334     3739.024     1261.175      592.147        0.788        0.280       99.979       19.838        0.039      336.304        7.516      869.425
12/22/2013  17:08:00     -118.334       -7.191      -11.919       47.425       31.688       25.112     2249.169     1004.099      630.605        0.904        0.194      118.553       25.686        0.047      336.147        7.253      869.433
12/22/2013  17:09:00     -117.586      -41.835       -8.459       42.567       36.986       22.903     1811.979     1367.954      524.534        0.968        0.185      124.807       12.093        0.009      335.864        6.782      869.440
12/22/2013  17:10:00      -53.677      -38.236       -7.844       40.308       43.741       26.078     1624.713     1913.291      680.053        0.431        0.211       65.903       22.649        0.118      335.733        6.563      869.440
12/22/2013  17:11:00      -46.867      -22.011       -3.034       39.810       35.165       21.114     1584.861     1236.548      445.802        0.298        0.163       51.778       18.928        0.134      335.715        6.533      869.453
12/22/2013  17:12:00      -43.434      -29.733       -9.009       49.688       23.045       22.834     2468.930      531.059      521.410        0.319        0.176       52.636       21.139        0.161      335.656        6.435      869.468
12/22/2013  17:13:00       10.510      -26.582        5.112       19.619       16.543       20.926      384.891      273.664      437.877        0.097        0.055       28.584       12.982        0.206      335.737        6.569      869.478
12/22/2013  17:14:00      -12.835      -36.085       -8.405       20.601       18.458       16.013      424.392      340.701      256.406        0.128        0.051       38.300        5.292        0.019      335.696        6.503      869.497
12/22/2013  17:15:00      -59.110        0.366      -12.285       17.039       17.009       10.098      290.335      289.291      101.968        0.216        0.034       59.111        5.996        0.010      335.721        6.544      869.519
12/22/2013  17:16:00      -76.190       -1.879      -16.710       22.275       16.628       13.194      496.172      276.482      174.090        0.352        0.047       76.213       12.657        0.028      335.733        6.563      869.536
12/22/2013  17:17:00      -82.902      -15.631      -14.239       22.567       25.826       11.211      509.255      666.959      125.697        0.431        0.065       84.363       13.479        0.026      335.775        6.635      869.545
12/22/2013  17:18:00      -76.494      -18.032      -15.986       20.976       19.013       13.434      440.009      361.497      180.480        0.371        0.049       78.591        8.038        0.010      335.672        6.463      869.551
12/22/2013  17:19:00      -64.479      -20.561      -10.731       19.202       16.711       17.163      368.716      279.270      294.571        0.282        0.047       67.678       12.767        0.036      335.658        6.438      869.558
12/22/2013  17:20:00      -73.448      -26.800       -8.879       48.290       19.986       21.601     2331.928      399.422      466.619        0.469        0.160       78.185       22.916        0.086      335.586        6.319      869.562
12/22/2013  17:21:00      -88.539      -41.734       -7.121       26.414       35.725       20.947      697.675     1276.246      438.777        0.602        0.121       97.882       11.597        0.014      335.567        6.287      869.568
12/22/2013  17:22:00     -104.492      -39.316      -10.357       33.743       38.651       24.308     1138.572     1493.907      590.887        0.790        0.161      111.643       11.566        0.011      335.528        6.223      869.574
12/22/2013  17:23:00     -117.062      -47.639       -5.938       42.668       37.392       25.193     1820.522     1398.143      634.694        0.993        0.193      126.384       20.996        0.028      335.514        6.199      869.583
12/22/2013  17:24:00     -144.275      -43.979       -7.012       48.638       44.460       25.535     2365.672     1976.720      652.044        1.390        0.250      150.829       19.578        0.017      335.536        6.236      869.594
12/22/2013  17:25:00     -127.085      -10.380       -3.576       46.934       41.287       27.817     2202.819     1704.648      773.805        1.048        0.234      127.509       26.923        0.045      335.487        6.154      869.608
12/22/2013  17:26:00     -138.772      -11.712      -13.271       47.855       30.819       26.002     2290.105      949.835      676.123        1.174        0.196      139.265       26.142        0.035      335.479        6.141      869.616
12/22/2013  17:27:00     -123.655      -18.535       -5.684       36.834       25.875       21.381     1356.751      669.513      457.163        0.907        0.124      125.037       20.570        0.027      335.448        6.089      869.614
12/22/2013  17:28:00     -128.924      -15.578       -9.645       43.417       19.209       16.181     1885.076      368.986      261.828        0.974        0.126      129.862       18.222        0.020      335.522        6.212      869.617
12/22/2013  17:29:00     -123.138       -9.587      -10.897       34.129       29.099       21.541     1164.773      846.777      463.997        0.892        0.124      123.511       17.685        0.021      335.528        6.221      869.619
12/22/2013  17:30:00     -141.675      -25.461      -14.336       27.578       25.711       16.455      760.532      661.076      270.762        1.131        0.085      143.944        8.236        0.003      335.459        6.107      869.626
12/22/2013  17:31:00     -125.194      -23.901       -8.454       31.454       17.294       15.177      989.344      299.091      230.341        0.892        0.076      127.455       14.824        0.014      335.489        6.156      869.627
12/22/2013  17:32:00     -126.851      -16.986       -8.566       50.601       26.402       20.398     2560.417      697.055      416.089        1.006        0.184      127.983       24.693        0.037      335.495        6.167      869.642
12/22/2013  17:33:00     -132.955        2.690       -6.459       42.903       36.215       23.618     1840.695     1311.497      557.801        1.072        0.185      132.982       24.593        0.034      335.510        6.192      869.653
12/22/2013  17:34:00     -137.465       26.272      -17.901       50.539       39.956       22.922     2554.193     1596.508      525.409        1.229        0.234      139.953       19.790        0.020      335.526        6.219      869.661
12/22/2013  17:35:00     -116.986       28.242       -9.975       58.065       33.697       22.465     3371.539     1135.457      504.655        0.980        0.251      120.347       17.975        0.022      335.508        6.188      869.673
12/22/2013  17:36:00     -133.797       35.917      -11.552       52.766       43.379       29.186     2784.303     1881.765      851.794        1.242        0.276      138.534       25.940        0.035      335.483        6.147      869.677
12/22/2013  17:37:00     -162.696       42.667      -17.361       53.024       32.117       24.172     2811.565     1031.483      584.296        1.651        0.221      168.197       13.525        0.006      335.417        6.036      869.672
12/22/2013  17:38:00     -174.182       54.722      -21.392       42.983       35.044       25.569     1847.538     1228.066      653.762        1.876        0.186      182.575       15.549        0.007      335.432        6.060      869.678
12/22/2013  17:39:00     -161.886       52.544      -17.060       61.054       35.150       31.460     3727.586     1235.538      989.713        1.760        0.298      170.200       16.427        0.009      335.453        6.094      869.682
12/22/2013  17:40:00     -206.753       79.928      -13.081       68.590       39.110       38.067     4704.586     1529.618     1449.095        2.849        0.384      221.665       31.761        0.021      335.472        6.124      869.693
12/22/2013  17:41:00     -210.129       55.976      -15.661       39.751       45.068       28.848     1580.153     2031.106      832.197        2.599        0.222      217.457       17.344        0.006      335.395        5.997      869.698
12/22/2013  17:42:00     -203.127       51.055      -20.489       47.330       36.340       24.161     2240.163     1320.612      583.773        2.422        0.207      209.445       16.704        0.006      335.339        5.904      869.708
12/22/2013  17:43:00     -132.547      -10.666      -13.617       53.151       40.052       29.123     2824.982     1604.156      848.143        1.157        0.264      132.975       24.156        0.033      335.336        5.901      869.714
12/22/2013  17:44:00     -144.939      -25.351      -26.186       35.230       37.889       21.808     1241.188     1435.577      475.603        1.274        0.158      147.139       16.214        0.012      335.300        5.841      869.715
12/22/2013  17:45:00     -149.275      -69.913       -9.197       39.192       46.038       32.268     1536.000     2119.483     1041.247        1.598        0.235      164.835       19.104        0.013      335.147        5.587      869.716
12/22/2013  17:46:00     -169.201      -62.694      -13.625       39.247       40.965       26.663     1540.340     1678.134      710.915        1.834        0.196      180.443       14.127        0.006      335.111        5.528      869.713
12/22/2013  17:47:00     -103.418      -46.431        9.404       76.961       33.963       33.299     5922.957     1153.497     1108.817        1.056        0.409      113.363       43.355        0.146      335.089        5.491      869.715
12/22/2013  17:48:00     -139.802      -67.374       -8.117       36.425       45.363       23.834     1326.777     2057.792      568.039        1.405        0.198      155.190       14.809        0.009      335.016        5.372      869.715
12/22/2013  17:49:00     -158.605       -3.635       -7.227       53.185       44.563       29.126     2828.679     1985.828      848.328        1.544        0.283      158.647       23.883        0.023      335.008        5.357      869.717
12/22/2013  17:50:00     -154.828       -8.387      -16.452       28.589       45.859       20.743      817.344     2103.009      430.253        1.383        0.168      155.055       13.754        0.008      335.008        5.358      869.714
12/22/2013  17:51:00     -138.041      -16.839       -9.058       46.941       37.789       31.090     2203.459     1428.019      966.573        1.201        0.230      139.064       30.840        0.049      334.996        5.339      869.729
12/22/2013  17:52:00     -133.268       -7.505      -11.830       39.253       43.048       19.570     1540.828     1853.169      382.977        1.087        0.189      133.480       15.591        0.014      334.998        5.341      869.743
12/22/2013  17:53:00     -145.027       -1.616      -17.407       38.127       46.372       25.654     1453.685     2150.362      658.132        1.280        0.213      145.036       17.318        0.014      335.052        5.431      869.746
12/22/2013  17:54:00     -175.923       22.943      -19.662       45.368       35.475       28.800     2058.263     1258.475      829.423        1.800        0.207      177.413       25.225        0.020      335.107        5.522      869.757
12/22/2013  17:55:00     -126.512       35.467       -9.178       50.546       43.732       28.100     2554.947     1912.468      789.633        1.130        0.263      131.390       24.948        0.036      335.078        5.475      869.758
12/22/2013  17:56:00     -122.113       44.567      -12.422       54.200       36.884       26.982     2937.626     1360.454      728.011        1.104        0.251      129.992       24.645        0.036      335.084        5.484      869.753
12/22/2013  17:57:00     -167.423       58.310      -17.331       69.881       43.289       35.566     4883.403     1873.966     1264.936        1.988        0.401      177.286       28.885        0.027      335.107        5.520      869.751
12/22/2013  17:58:00     -147.491       32.646       -7.550       47.748       38.533       24.753     2279.870     1484.803      612.735        1.363        0.219      151.061       20.447        0.018      335.110        5.526      869.751
12/22/2013  17:59:00     -192.418       27.044      -16.520       33.979       33.230       25.398     1154.540     1104.248      645.058        2.047        0.145      194.310       19.514        0.010      335.137        5.571      869.747
12/22/2013  18:00:00     -172.788       18.696      -16.880       62.488       50.894       28.378     3904.754     2590.242      805.325        1.889        0.365      173.796       33.281        0.037      335.061        5.444      869.737
12/22/2013  18:01:00     -159.699        4.126      -19.481       62.773       44.633       25.029     3940.417     1992.075      626.433        1.623        0.328      159.752       17.101        0.011      334.981        5.312      869.736
12/22/2013  18:02:00     -138.130      -16.229       -7.818       48.079       44.411       28.281     2311.585     1972.359      799.795        1.224        0.254      139.080       24.642        0.031      334.927        5.221      869.733
12/22/2013  18:03:00      -96.445      -59.993        1.019       75.801       43.125       30.836     5745.745     1859.733      950.879        1.073        0.428      113.582       29.846        0.069      334.892        5.163      869.739
12/22/2013  18:04:00     -147.076      -42.207      -11.591       43.702       47.647       25.056     1909.868     2270.217      627.825        1.418        0.240      153.012       14.203        0.009      334.823        5.050      869.755
12/22/2013  18:05:00     -110.353      -68.288       -2.584       45.697       43.339       26.548     2088.210     1878.259      704.820        1.076        0.234      129.773       20.385        0.025      334.838        5.075      869.761
12/22/2013  18:06:00      -98.002      -45.494       -9.792       32.615       42.046       27.650     1063.729     1767.874      764.528        0.768        0.180      108.047       17.617        0.027      334.796        5.004      869.752
12/22/2013  18:07:00      -96.605      -48.011       -3.933       46.917       47.726       25.434     2201.240     2277.818      646.879        0.839        0.256      107.878       21.607        0.040      334.755        4.939      869.743
12/22/2013  18:08:00     -151.093      -44.521      -13.369       57.647       43.052       28.175     3323.125     1853.474      793.806        1.548        0.299      157.516       28.008        0.032      334.775        4.969      869.738
12/22/2013  18:09:00      -94.491      -47.435       -0.953       41.643       45.279       23.858     1734.144     2050.208      569.206        0.777        0.218      105.729       14.045        0.018      334.752        4.933      869.751
12/22/2013  18:10:00     -109.835      -32.362      -17.898       47.290       37.258       29.747     2236.337     1388.139      884.890        0.897        0.225      114.504       13.431        0.014      334.797        5.005      869.759
12/22/2013  18:11:00     -101.800      -62.951      -11.271       42.488       31.274       21.247     1805.197      978.039      451.451        0.884        0.162      119.692       13.350        0.012      334.761        4.946      869.779
12/22/2013  18:12:00      -57.650      -21.545       -4.480       32.830       26.639       24.744     1077.822      709.622      612.283        0.310        0.120       61.545       18.676        0.092      334.792        4.999      869.795
12/22/2013  18:13:00      -34.732       -7.995        0.503       32.272       17.870       18.928     1041.507      319.354      358.259        0.149        0.086       35.640       19.210        0.291      334.796        5.004      869.817
12/22/2013  18:14:00      -68.971      -27.555       -1.332       51.865       31.417       25.117     2689.992      987.049      630.853        0.491        0.215       74.272       28.628        0.149      334.760        4.944      869.837
12/22/2013  18:15:00      -86.851      -31.985      -15.029       43.794       27.515       21.315     1917.911      757.084      454.325        0.596        0.156       92.553        6.182        0.004      334.803        5.017      869.863
12/22/2013  18:16:00      -48.963      -21.193       -3.908       56.882       34.511       27.387     3235.517     1190.992      750.023        0.402        0.259       53.353       34.319        0.414      334.777        4.974      869.890
12/22/2013  18:17:00      -69.873      -31.229       -7.844       49.550       44.619       25.800     2455.177     1990.845      665.625        0.551        0.256       76.534       28.405        0.138      334.767        4.956      869.919
12/22/2013  18:18:00      -44.840      -35.000      -16.729       48.544       27.179       23.957     2356.491      738.700      573.941        0.359        0.183       56.883       15.908        0.078      334.772        4.966      869.943
12/22/2013  18:19:00      -91.957      -38.237       -3.577       72.886       25.957       23.830     5312.339      673.748      567.881        0.824        0.328       99.590       29.605        0.088      334.714        4.869      869.963
12/22/2013  18:20:00      -55.889      -42.521       -3.541       73.078       35.107       26.420     5340.381     1232.533      698.028        0.611        0.364       70.226       34.187        0.237      334.733        4.900      869.967
12/22/2013  18:21:00      -33.951      -17.480        1.280       44.632       36.867       33.161     1992.024     1359.141     1099.672        0.295        0.223       38.187       20.931        0.300      334.763        4.952      869.970
12/22/2013  18:22:00     -119.462      -33.525      -14.026       41.123       39.610       29.722     1691.130     1568.976      883.381        0.987        0.207      124.077       24.715        0.040      334.733        4.899      869.976
12/22/2013  18:23:00      -41.602      -43.775        8.116       63.479       32.275       26.790     4029.643     1041.706      717.713        0.475        0.289       60.390       31.461        0.271      334.721        4.880      869.980
12/22/2013  18:24:00      -59.823      -61.896        0.704       69.367       41.239       25.560     4811.824     1700.680      653.335        0.729        0.358       86.081       29.545        0.118      334.684        4.819      869.994
12/22/2013  18:25:00      -42.936      -26.894       -2.684       48.203       26.808       25.679     2323.514      718.681      659.433        0.314        0.185       50.664       27.884        0.303      334.664        4.785      870.003
12/22/2013  18:26:00      -56.297      -23.135       -5.419       33.888       27.740       13.345     1148.384      769.511      178.097        0.291        0.105       60.866       11.292        0.034      334.618        4.709      870.024
12/22/2013  18:27:00      -87.262      -37.602       -9.200       23.831       22.880       14.964      567.920      523.517      223.919        0.521        0.066       95.019       13.310        0.020      334.692        4.832      870.029
12/22/2013  18:28:00      -46.445      -10.362       -5.802       26.653       18.379       17.753      710.371      337.776      315.159        0.183        0.068       47.587       13.351        0.079      334.665        4.788      870.040
12/22/2013  18:29:00      -49.134      -30.400       -0.903       56.502       34.523       18.501     3192.427     1191.816      342.295        0.403        0.236       57.778       11.932        0.043      334.690        4.828      870.030
12/22/2013  18:30:00      -73.894      -48.706        0.497       44.735       36.666       26.429     2001.187     1344.373      698.510        0.594        0.202       88.502       23.165        0.069      334.660        4.780      870.026
12/22/2013  18:31:00     -123.120      -66.995       -2.368       43.841       23.186       17.757     1922.045      537.597      315.307        1.121        0.139      140.167       15.708        0.013      334.681        4.814      870.043
12/22/2013  18:32:00      -22.621      -31.207        5.590       37.400       29.163       22.860     1398.728      850.508      522.562        0.214        0.139       38.544       24.378        0.400      334.663        4.785      870.061
12/22/2013  18:33:00       15.476       -2.311        1.117       19.359       11.674        9.969      374.754      136.276       99.387        0.043        0.031       15.648        5.608        0.128      334.719        4.876      870.078
12/22/2013  18:34:00      -59.386      -22.613       -6.598       16.730       17.195        9.523      279.889      295.670       90.683        0.237        0.033       63.546        7.056        0.012      334.689        4.828      870.108
12/22/2013  18:35:00      -42.050      -32.508       -0.662       23.332       12.306       10.748      544.399      151.449      115.510        0.182        0.041       53.150       11.153        0.044      334.859        5.109      870.117
12/22/2013  18:36:00      -68.302      -25.843       -3.866       21.832       23.273       21.046      476.642      541.618      442.923        0.340        0.073       73.027       17.396        0.057      334.826        5.055      870.124
12/22/2013  18:37:00     -111.329      -32.694      -17.867       17.484       29.141       12.580      305.679      849.199      158.267        0.755        0.066      116.030        7.696        0.004      334.861        5.114      870.121
12/22/2013  18:38:00     -131.320      -51.928      -15.449       32.013       21.108       16.322     1024.825      445.531      266.393        1.096        0.087      141.214       17.791        0.016      334.820        5.042      870.116
12/22/2013  18:39:00     -101.255      -46.580      -16.053       21.391       16.911       14.987      457.586      285.992      224.619        0.682        0.048      111.455        8.827        0.006      334.755        4.936      870.126
12/22/2013  18:40:00     -113.481      -18.012      -16.239       17.919       18.959       15.088      321.083      359.447      227.657        0.719        0.045      114.902        8.069        0.005      334.717        4.873      870.133
12/22/2013  18:41:00     -153.832        6.296      -22.055       21.685       25.679       14.639      470.230      659.431      214.298        1.277        0.067      153.961        8.354        0.003      334.672        4.798      870.141
12/22/2013  18:42:00     -137.262      -15.461      -14.382       26.723       24.334       22.960      714.092      592.168      527.176        1.056        0.092      138.130       16.152        0.014      334.582        4.649      870.153
12/22/2013  18:43:00      -77.562      -30.483       -8.704       28.436       28.883       15.945      808.598      834.208      254.255        0.446        0.095       83.337       12.249        0.022      334.521        4.549      870.170
12/22/2013  18:44:00      -73.417      -12.890       -7.307       42.095       23.368       18.760     1771.987      546.082      351.952        0.414        0.134       74.540       21.561        0.084      334.491        4.497      870.173
12/22/2013  18:45:00      -92.648      -41.802      -17.921       20.469       23.741       12.120      418.973      563.649      146.896        0.589        0.056      101.642        5.412        0.003      334.481        4.483      870.178
12/22/2013  18:46:00      -94.669      -37.208      -11.773       25.823       25.020       18.151      666.812      626.021      329.460        0.605        0.081      101.718       11.312        0.012      334.487        4.492      870.181
12/22/2013  18:47:00     -102.246      -21.347      -12.866       30.774       25.598       17.418      947.019      655.254      303.381        0.649        0.095      104.451       14.941        0.020      334.436        4.407      870.188
12/22/2013  18:48:00      -85.998      -26.994      -16.390       20.126       21.355       12.908      405.048      456.015      166.604        0.471        0.051       90.135        9.088        0.010      334.369        4.296      870.210
12/22/2013  18:49:00      -78.252      -11.002      -17.720       15.842       15.800       11.255      250.966      249.636      126.670        0.359        0.031       79.021        7.458        0.009      334.398        4.344      870.233
12/22/2013  18:50:00      -71.645      -16.515      -11.209       13.534       15.709        9.999      183.166      246.763       99.984        0.303        0.026       73.524        7.255        0.010      334.520        4.545      870.252
12/22/2013  18:51:00      -56.006       -9.648       -8.881       12.348       13.957       13.263      152.472      194.797      175.913        0.192        0.026       56.831       11.348        0.040      334.641        4.747      870.270
12/22/2013  18:52:00      -45.387      -26.505       -5.556       11.725        9.464        8.213      137.476       89.569       67.460        0.154        0.015       52.559        4.934        0.009      334.779        4.977      870.279
12/22/2013  18:53:00      -44.003      -27.905       -7.338       13.807       10.499        8.534      190.646      110.228       72.826        0.157        0.019       52.105        4.059        0.006      334.660        4.779      870.289
12/22/2013  18:54:00      -62.058      -14.096      -11.385       10.925        9.104        8.728      119.362       82.877       76.170        0.223        0.014       63.638        5.042        0.006      334.672        4.799      870.300
12/22/2013  18:55:00      -89.522       -6.851      -18.818       12.065        9.950        8.774      145.576       98.994       76.980        0.437        0.016       89.784        5.075        0.003      334.424        4.387      870.310
12/22/2013  18:56:00     -109.638       -2.979      -19.908       11.134       10.144        8.746      123.969      102.908       76.494        0.636        0.015      109.679        2.645        0.001      334.406        4.359      870.315
12/22/2013  18:57:00     -115.959       -3.715      -18.654       20.949       16.787       11.842      438.847      281.802      140.244        0.733        0.043      116.018       10.753        0.009      334.432        4.402      870.346
12/22/2013  18:58:00      -90.499      -21.183      -15.552       25.410       24.118       17.688      645.660      581.674      312.852        0.521        0.077       92.945       14.448        0.024      334.398        4.345      870.369
12/22/2013  18:59:00     -101.018       -1.818       -9.856       16.577       14.568       10.674      274.807      212.215      113.930        0.545        0.030      101.034        8.891        0.008      334.429        4.397      870.389
12/22/2013  19:00:00      -80.017      -15.271       -9.793       23.037       20.809       14.954      530.694      432.998      223.626        0.396        0.059       81.461       14.002        0.030      334.445        4.424      870.412
12/22/2013  19:01:00      -78.409       -8.075      -13.469       17.158       15.828       12.058      294.384      250.517      145.388        0.354        0.035       78.824        7.960        0.010      334.478        4.477      870.423
12/22/2013  19:02:00      -83.857       -1.545      -14.681       16.283       18.816        9.540      265.133      354.046       91.007        0.398        0.036       83.871        9.436        0.013      334.478        4.477      870.426
12/22/2013  19:03:00      -85.802        0.588      -14.366        9.091        9.613        8.880       82.649       92.418       78.849        0.391        0.013       85.804        3.666        0.002      334.476        4.474      870.430
12/22/2013  19:04:00      -57.515      -23.814       -8.528       13.253       14.189       10.187      175.652      201.317      103.765        0.221        0.024       62.250        5.124        0.007      334.469        4.463      870.429
12/22/2013  19:05:00      -56.893      -24.341       -6.722       16.177       19.432       11.070      261.702      377.621      122.539        0.232        0.038       61.882        8.345        0.018      334.463        4.453      870.421
12/22/2013  19:06:00      -88.337       -9.302      -12.537       21.999       19.039       12.468      483.973      362.473      155.460        0.452        0.050       88.825       14.555        0.027      334.517        4.541      870.439
12/22/2013  19:07:00      -85.203       -8.202      -12.801       16.093       16.950        9.813      258.972      287.316       96.304        0.407        0.032       85.597        9.023        0.011      334.461        4.449      870.438
12/22/2013  19:08:00      -74.217      -15.732      -11.226       10.789       14.027        8.433      116.395      196.762       71.118        0.313        0.019       75.866        7.037        0.009      334.470        4.462      870.436
12/22/2013  19:09:00      -77.525      -21.537      -15.128       10.648       11.500        6.359      113.390      132.245       40.431        0.349        0.014       80.461        4.995        0.004      334.474        4.471      870.446
12/22/2013  19:10:00      -92.129      -19.870      -15.063       13.577       13.117        9.612      184.346      172.049       92.388        0.478        0.022       94.247        8.622        0.008      334.378        4.311      870.439
12/22/2013  19:11:00      -95.850      -19.193      -10.341       14.880       16.851       10.155      221.429      283.963      103.130        0.514        0.030       97.753       10.670        0.012      334.364        4.289      870.429
12/22/2013  19:12:00      -84.333      -24.360      -11.579       15.100       16.323       11.276      228.021      266.435      127.155        0.423        0.031       87.781        6.550        0.006      334.346        4.258      870.434
12/22/2013  19:13:00      -90.567      -15.216       -8.232       19.840       17.231       12.358      393.622      296.900      152.711        0.467        0.042       91.836       10.793        0.014      334.323        4.221      870.437
12/22/2013  19:14:00     -118.090      -18.003      -20.222       26.523       15.700       13.124      703.460      246.475      172.247        0.790        0.056      119.455       13.590        0.013      334.307        4.194      870.432
12/22/2013  19:15:00     -110.193      -30.452      -14.705       15.870       13.044       13.202      251.843      170.153      174.283        0.694        0.030      114.323       11.070        0.009      334.340        4.248      870.417
12/22/2013  19:16:00     -133.885      -25.635      -20.236       11.558       11.376        8.542      133.588      129.409       72.970        0.966        0.017      136.317        3.663        0.001      334.315        4.206      870.415
12/22/2013  19:17:00     -125.483      -24.307      -16.099       13.361       16.264       10.210      178.521      264.509      104.253        0.857        0.027      127.816        7.267        0.003      334.271        4.135      870.408
12/22/2013  19:18:00     -116.841      -37.797      -11.316       14.539       12.170        9.894      211.380      148.117       97.888        0.783        0.023      122.802        8.690        0.005      334.265        4.123      870.404
12/22/2013  19:19:00     -108.681      -40.489      -11.101       11.205       10.991        7.707      125.560      120.803       59.394        0.694        0.015      115.978        5.775        0.002      334.352        4.269      870.422
12/22/2013  19:20:00     -108.040      -34.082      -15.455        7.362        9.174        6.917       54.194       84.171       47.849        0.663        0.009      113.289        4.236        0.001      334.400        4.350      870.433
12/22/2013  19:21:00     -106.264      -32.139      -15.231       11.116       10.333        9.368      123.564      106.780       87.753        0.644        0.016      111.018        6.484        0.003      334.420        4.384      870.430
12/22/2013  19:22:00     -108.313      -16.283      -17.540        9.840       10.331        8.162       96.818      106.736       66.625        0.629        0.014      109.530        5.394        0.002      334.389        4.329      870.426
12/22/2013  19:23:00      -99.469      -13.227      -16.181        8.407        8.844        8.160       70.683       78.208       66.578        0.527        0.011      100.344        3.432        0.001      334.389        4.330      870.439
12/22/2013  19:24:00     -105.331       -7.752      -18.708       14.857       11.808        7.215      220.731      139.428       52.058        0.596        0.021      105.616        5.044        0.002      334.421        4.383      870.450
12/22/2013  19:25:00      -39.841       -0.059      -15.336       18.573       12.822       10.144      344.952      164.392      102.901        0.122        0.031       39.841       10.084        0.064      334.499        4.512      870.473
12/22/2013  19:26:00      -54.087      -15.349      -11.374       18.067       22.287       16.041      326.421      496.692      257.300        0.219        0.054       56.223       12.941        0.053      334.523        4.553      870.494
12/22/2013  19:27:00      -61.438       -8.506       -6.836       17.267       20.856       11.832      298.163      434.990      139.997        0.238        0.044       62.024        9.803        0.025      334.551        4.598      870.503
12/22/2013  19:28:00      -55.818      -29.959      -14.259       12.024       13.177       10.559      144.573      173.628      111.493        0.232        0.021       63.350        4.566        0.005      334.459        4.445      870.505
12/22/2013  19:29:00      -68.087      -38.636      -15.290       11.009       11.776       11.350      121.208      138.684      128.831        0.338        0.019       78.285        4.845        0.004      334.338        4.245      870.513
12/22/2013  19:30:00      -84.054      -22.735      -14.947       30.392       23.776       12.578      923.687      565.279      158.197        0.473        0.082       87.074        9.268        0.011      334.258        4.112      870.528
12/22/2013  19:31:00      -80.142      -24.194      -13.332       27.673       18.375       17.570      765.788      337.655      308.713        0.430        0.071       83.715       15.957        0.036      334.237        4.079      870.534
12/22/2013  19:32:00     -103.983      -25.218      -11.689       25.720       17.313       13.213      661.541      299.726      174.579        0.636        0.057      106.997       10.670        0.010      334.096        3.843      870.546
12/22/2013  19:33:00     -144.870      -17.877      -19.652       26.718       19.737       15.432      713.834      389.567      238.132        1.152        0.067      145.969       16.495        0.013      334.129        3.898      870.556
12/22/2013  19:34:00     -103.078      -44.482       -9.710       36.657       23.369       21.121     1343.726      546.107      446.089        0.752        0.117      112.266       21.961        0.038      334.037        3.744      870.575
12/22/2013  19:35:00      -87.673      -22.850       -9.892       33.448       25.121       17.441     1118.775      631.068      304.195        0.518        0.103       90.601       18.215        0.040      334.093        3.838      870.584
12/22/2013  19:36:00      -80.475      -13.893      -11.078       26.266       22.247       19.166      689.905      494.916      367.322        0.417        0.078       81.665       11.898        0.021      334.115        3.875      870.608
12/22/2013  19:37:00      -70.105      -27.047       -7.913       22.528       24.836       19.007      507.494      616.833      361.251        0.360        0.074       75.141       17.633        0.055      334.154        3.938      870.633
12/22/2013  19:38:00      -81.659      -21.626      -16.655       23.560       27.119       19.286      555.097      735.461      371.962        0.454        0.083       84.475       15.355        0.033      334.173        3.971      870.655
12/22/2013  19:39:00     -108.264      -22.986      -16.744       31.919       27.614       14.232     1018.849      762.512      202.546        0.726        0.099      110.677       12.809        0.013      334.136        3.909      870.663
12/22/2013  19:40:00      -64.375      -36.415       -7.394       22.424       22.526       15.541      502.836      507.434      241.533        0.339        0.063       73.961       12.585        0.029      334.117        3.877      870.677
12/22/2013  19:41:00      -80.064      -26.993       -6.722       29.208       30.574       14.522      853.132      934.764      210.883        0.459        0.100       84.492       14.093        0.028      334.046        3.761      870.689
12/22/2013  19:42:00      -82.256      -33.194       -2.588       26.164       28.709       16.887      684.571      824.226      285.173        0.483        0.090       88.701       12.396        0.020      334.125        3.892      870.697
12/22/2013  19:43:00      -83.143      -26.512      -15.549       19.624       22.975       14.710      385.091      527.855      216.386        0.449        0.056       87.268       11.413        0.017      334.154        3.941      870.701
12/22/2013  19:44:00      -64.677      -24.645      -13.295       26.229       25.056       15.479      687.939      627.825      239.590        0.326        0.078       69.213       15.667        0.051      334.211        4.035      870.709
12/22/2013  19:45:00      -77.650       -9.104       -8.983       16.387       18.812       14.079      268.542      353.893      198.219        0.351        0.041       78.182        9.912        0.016      334.239        4.081      870.725
12/22/2013  19:46:00      -52.964       -7.607       -8.714       19.259       14.783        8.704      370.916      218.546       75.762        0.180        0.033       53.507        6.221        0.014      334.198        4.014      870.737
12/22/2013  19:47:00      -55.906       25.544       -8.513       15.990       11.678        6.777      255.695      136.375       45.924        0.214        0.022       61.465        3.722        0.004      334.417        4.376      870.741
12/22/2013  19:48:00      -70.462        3.345      -10.506       10.923        7.641        8.600      119.319       58.388       73.964        0.267        0.013       70.542        4.929        0.005      334.333        4.236      870.747
12/22/2013  19:49:00      -74.111        2.313       -8.354       10.156        8.979        7.791      103.142       80.616       60.697        0.291        0.012       74.147        4.634        0.004      334.259        4.115      870.762
12/22/2013  19:50:00      -80.241        2.287      -15.950       16.757       12.863       11.197      280.803      165.446      125.378        0.363        0.029       80.273       10.461        0.017      334.208        4.028      870.765
12/22/2013  19:51:00      -91.011       -9.490      -17.611       13.577       15.425        9.403      184.338      237.929       88.421        0.460        0.026       91.505        7.024        0.006      334.102        3.854      870.768
12/22/2013  19:52:00      -92.894      -17.893      -16.508       24.524       24.308       14.977      601.413      590.868      224.306        0.532        0.071       94.602       12.441        0.017      334.015        3.709      870.787
12/22/2013  19:53:00      -96.061      -26.533      -14.829       24.048       25.212       18.022      578.289      635.668      324.801        0.584        0.077       99.658       10.226        0.011      333.967        3.629      870.798
12/22/2013  19:54:00      -84.446      -31.770       -1.160       26.148       27.287       20.947      683.741      744.601      438.797        0.500        0.093       90.224       12.020        0.018      333.901        3.521      870.809
12/22/2013  19:55:00      -80.733      -38.849       -6.363       32.647       23.955       18.160     1065.818      573.833      329.780        0.502        0.098       89.594       14.171        0.025      333.903        3.523      870.822
12/22/2013  19:56:00      -95.818      -27.074      -18.146       15.316       19.195       13.188      234.578      368.452      173.925        0.551        0.039       99.569        8.687        0.008      333.857        3.447      870.836
12/22/2013  19:57:00     -104.565      -20.594      -17.447       23.803       13.486       12.246      566.581      181.879      149.971        0.628        0.045      106.574       12.803        0.014      333.907        3.531      870.855
12/22/2013  19:58:00     -101.283      -25.243      -19.863       25.025       24.690       14.870      626.229      609.621      221.116        0.637        0.073      104.381       18.742        0.032      333.960        3.617      870.864
12/22/2013  19:59:00      -78.605      -47.837       -8.370       17.370       27.752       13.015      301.729      770.158      169.397        0.489        0.062       92.017       11.393        0.015      333.836        3.413      870.867
12/22/2013  20:00:00     -112.077      -13.614      -17.800       17.517       24.720       13.476      306.856      611.094      181.598        0.708        0.055      112.901       10.211        0.008      333.955        3.610      870.872
12/22/2013  20:01:00     -105.620      -41.431      -11.937       29.008       28.003       18.991      841.454      784.153      360.661        0.750        0.099      113.456       19.183        0.029      333.939        3.583      870.875
12/22/2013  20:02:00      -90.820      -40.461       -6.231       16.227       21.716       16.270      263.318      471.590      264.703        0.546        0.050       99.425       14.569        0.021      333.898        3.516      870.870
12/22/2013  20:03:00     -110.948      -20.338      -11.033       25.172       23.252       13.849      633.614      540.642      191.801        0.711        0.068      112.797        9.306        0.007      333.893        3.507      870.860
12/22/2013  20:04:00     -103.254      -12.474      -14.420       24.997       23.518       16.929      624.834      553.118      286.583        0.624        0.073      104.004       11.931        0.013      333.921        3.554      870.863
12/22/2013  20:05:00      -77.653      -19.003      -15.690       13.782       17.447       12.194      189.955      304.394      148.703        0.364        0.032       79.944        9.462        0.014      333.901        3.521      870.868
12/22/2013  20:06:00      -79.758       -9.700      -14.592       16.008       15.755       13.346      256.262      248.215      178.123        0.368        0.034       80.345       12.070        0.023      333.981        3.653      870.876
12/22/2013  20:07:00     -100.049       -2.588      -19.061       19.677       16.446       14.897      387.190      270.460      221.925        0.563        0.044      100.082       13.257        0.018      334.141        3.917      870.875
12/22/2013  20:08:00      -96.768      -10.485      -14.028       21.251       23.806       18.454      451.603      566.703      340.566        0.551        0.068       97.335       15.997        0.027      334.099        3.848      870.878
12/22/2013  20:09:00      -88.570      -29.587      -13.490       22.027       24.145       17.564      485.196      582.971      308.502        0.514        0.069       93.381       13.644        0.021      333.972        3.639      870.869
12/22/2013  20:10:00      -85.099      -46.792       -2.485       21.761       25.766       21.691      473.555      663.871      470.500        0.552        0.080       97.115       14.964        0.024      333.902        3.522      870.855
12/22/2013  20:11:00      -58.147      -47.151       -2.435       34.009       26.024       18.281     1156.642      677.253      334.211        0.389        0.108       74.861       16.042        0.046      333.880        3.485      870.846
12/22/2013  20:12:00      -92.493      -49.537      -19.324       18.241       21.618       16.070      332.729      467.349      258.257        0.622        0.053      104.923       14.170        0.018      333.825        3.394      870.859
12/22/2013  20:13:00      -67.438      -48.634       -9.629       37.560       24.805       14.410     1410.763      615.302      207.653        0.462        0.112       83.146       10.159        0.015      333.861        3.454      870.865
12/22/2013  20:14:00      -93.206      -50.341       -5.913       28.916       23.799       16.257      836.122      566.410      264.282        0.646        0.083      105.932       15.563        0.022      333.779        3.318      870.871
12/22/2013  20:15:00      -80.793      -65.388       -6.502       27.760       20.208       15.470      770.627      408.344      239.333        0.613        0.071      103.938        7.186        0.005      333.812        3.372      870.878
12/22/2013  20:16:00      -97.015      -71.593       -9.001       19.320       17.875       15.191      373.266      319.529      230.781        0.777        0.046      120.571       12.204        0.010      333.687        3.166      870.899
12/22/2013  20:17:00     -108.111      -66.116       -7.551       22.244       19.656       12.979      494.777      386.377      168.466        0.858        0.052      126.726        9.501        0.006      333.707        3.198      870.903
12/22/2013  20:18:00     -122.880      -55.166       -7.806       17.603       18.935       14.028      309.868      358.539      196.781        0.953        0.043      134.695        9.316        0.005      333.707        3.198      870.903
12/22/2013  20:19:00     -128.567      -29.933      -14.633       19.691       13.850       15.727      387.740      191.827      247.339        0.923        0.041      132.005       10.741        0.007      333.748        3.266      870.903
12/22/2013  20:20:00     -106.816      -41.406       -7.404       24.230       29.697       15.460      587.110      881.899      238.998        0.744        0.085      114.561       11.499        0.010      333.777        3.313      870.907
12/22/2013  20:21:00      -89.583      -35.600       -2.731       50.384       29.267       19.046     2538.527      856.572      362.737        0.653        0.188       96.397       24.017        0.062      333.841        3.420      870.902
12/22/2013  20:22:00     -103.936      -49.344       -6.201       29.995       26.733       19.190      899.681      714.673      368.273        0.763        0.099      115.055       14.623        0.016      333.788        3.332      870.892
12/22/2013  20:23:00      -96.266      -61.552       -3.043       30.098       35.769       21.338      905.866     1279.453      455.317        0.785        0.132      114.261       18.608        0.027      333.724        3.225      870.887
12/22/2013  20:24:00      -86.743      -46.225      -15.578       22.632       21.377       14.515      512.200      456.966      210.697        0.554        0.059       98.291        5.462        0.003      333.693        3.176      870.880
12/22/2013  20:25:00      -82.932      -43.890       -9.758       40.570       31.147       18.934     1645.904      970.157      358.510        0.594        0.149       93.830       17.018        0.033      333.723        3.226      870.869
12/22/2013  20:26:00     -101.161      -23.437       -5.963       28.769       32.588       18.296      827.654     1062.000      334.743        0.652        0.111      103.841       15.512        0.022      333.603        3.025      870.871
12/22/2013  20:27:00     -112.209      -58.871       -4.340       36.804       36.601       18.616     1354.524     1339.611      346.570        0.956        0.152      126.715       18.344        0.021      333.604        3.028      870.886
12/22/2013  20:28:00      -94.038      -39.472       -5.771       38.126       29.341       18.545     1453.626      860.908      343.913        0.655        0.133      101.986       14.880        0.021      333.568        2.967      870.885
12/22/2013  20:29:00     -108.181      -33.721       -2.025       44.229       35.656       22.303     1956.239     1271.320      497.435        0.828        0.186      113.315       19.604        0.030      333.628        3.067      870.892
12/22/2013  20:30:00     -122.250      -36.607       -3.806       43.518       39.984       22.507     1893.818     1598.720      506.543        1.015        0.200      127.613       15.778        0.015      333.602        3.023      870.907
12/22/2013  20:31:00     -104.300      -22.713       -8.511       47.307       36.691       22.772     2237.954     1346.217      518.582        0.778        0.205      106.744       22.538        0.045      333.671        3.138      870.915
12/22/2013  20:32:00     -106.449      -10.149        0.323       37.870       32.727       20.657     1434.113     1071.029      426.728        0.718        0.147      106.932       19.157        0.032      333.672        3.140      870.922
12/22/2013  20:33:00      -65.363      -30.738       -1.163       30.692       41.971       19.311      941.980     1761.583      372.898        0.415        0.154       72.230       19.235        0.071      333.701        3.188      870.934
12/22/2013  20:34:00      -77.771      -49.350       -5.848       21.712       19.322       12.398      471.420      373.358      153.714        0.476        0.050       92.108        4.790        0.003      333.763        3.291      870.944
12/22/2013  20:35:00      -63.089      -45.693       -7.998       23.476       22.413       11.389      551.121      502.332      129.719        0.366        0.059       77.897       11.510        0.022      333.733        3.241      870.951
12/22/2013  20:36:00      -57.374      -35.478       -1.482       24.271       12.274       11.156      589.058      150.648      124.464        0.271        0.043       67.457        7.371        0.012      333.799        3.350      870.945
12/22/2013  20:37:00      -81.282      -37.935       -9.189       11.026       11.141        7.588      121.563      124.114       57.585        0.422        0.015       89.698        6.046        0.005      333.774        3.310      870.934
12/22/2013  20:38:00      -72.438      -41.536       -7.986       15.098       12.662       10.584      227.953      160.328      112.016        0.377        0.025       83.502        9.481        0.013      333.858        3.448      870.938
12/22/2013  20:39:00      -85.337      -57.519      -12.081       12.438       15.946       10.537      154.703      254.266      111.018        0.563        0.026      102.912        3.967        0.001      333.849        3.432      870.923
12/22/2013  20:40:00      -85.766      -52.051      -13.553       16.532       15.684       10.026      273.299      245.990      100.527        0.543        0.031      100.325       11.129        0.012      333.920        3.552      870.912
12/22/2013  20:41:00      -76.747      -49.250       -8.673       16.078       11.182        9.195      258.507      125.039       84.552        0.443        0.023       91.190        5.928        0.004      333.878        3.481      870.919
12/22/2013  20:42:00     -101.199      -45.797      -11.448       11.306       11.116        8.616      127.819      123.574       74.239        0.640        0.016      111.079        4.613        0.002      333.890        3.503      870.923
12/22/2013  20:43:00     -115.277      -59.020      -10.404       16.841       16.515       12.780      283.604      272.733      163.319        0.880        0.036      129.507       12.213        0.009      333.902        3.523      870.926
12/22/2013  20:44:00     -110.666      -47.060      -10.698       24.248       15.085       17.161      587.960      227.556      294.499        0.784        0.056      120.256       14.465        0.014      333.900        3.518      870.921
12/22/2013  20:45:00      -85.895      -42.457      -15.042       16.556       15.043        8.760      274.085      226.278       76.744        0.499        0.029       95.815        5.180        0.003      333.912        3.540      870.925
12/22/2013  20:46:00      -77.209      -24.685      -14.974        9.600        9.540        7.383       92.163       91.018       54.515        0.352        0.012       81.059        5.269        0.004      333.919        3.551      870.925
12/22/2013  20:47:00      -91.133      -27.463      -14.882       10.324        8.682        6.910      106.588       75.372       47.752        0.476        0.011       95.181        4.829        0.003      333.956        3.612      870.930
12/22/2013  20:48:00      -92.248      -23.098      -12.182       22.094       13.154       11.284      488.152      173.037      127.338        0.499        0.039       95.096       11.139        0.014      333.879        3.484      870.917
12/22/2013  20:49:00     -102.574      -23.917      -13.857       17.204       11.805       10.275      295.988      139.347      105.575        0.591        0.027      105.325        8.526        0.007      333.864        3.458      870.901
12/22/2013  20:50:00     -104.407      -23.354      -14.532       31.114       15.769       12.791      968.072      248.677      163.616        0.652        0.069      106.987       12.948        0.015      333.878        3.481      870.894
12/22/2013  20:51:00      -82.525      -16.863      -10.431       17.306       17.579       11.199      299.501      309.006      125.417        0.397        0.037       84.230        8.871        0.011      333.829        3.400      870.898
12/22/2013  20:52:00      -69.149       -2.527      -14.923       13.794       14.315       12.488      190.275      204.923      155.949        0.278        0.028       69.195       10.111        0.021      333.928        3.564      870.915
12/22/2013  20:53:00      -82.316       -7.015      -16.912       25.431       20.184       14.499      646.749      407.391      210.214        0.419        0.063       82.614       13.831        0.028      333.968        3.631      870.933
12/22/2013  20:54:00      -77.306       -5.979      -12.344       15.445       16.554        7.778      238.553      274.026       60.496        0.337        0.029       77.537        3.720        0.002      333.857        3.447      870.933
12/22/2013  20:55:00      -62.896      -13.142      -10.245       14.092       12.726       10.543      198.571      161.939      111.158        0.235        0.024       64.254        7.301        0.013      333.803        3.356      870.924
12/22/2013  20:56:00      -48.836      -25.890      -11.580       11.025       10.249        6.882      121.551      105.038       47.365        0.173        0.014       55.274        3.721        0.005      333.858        3.448      870.918
12/22/2013  20:57:00      -49.564      -14.686       -7.621        9.069       10.009        6.724       82.251      100.175       45.216        0.148        0.011       51.694        5.513        0.011      333.907        3.531      870.923
12/22/2013  20:58:00      -47.504      -17.442       -2.114       12.184       11.952       10.253      148.448      142.848      105.127        0.148        0.020       50.605        6.495        0.016      333.924        3.558      870.920
12/22/2013  20:59:00      -84.060       -9.435      -17.221       12.744        9.539        7.760      162.397       90.995       60.218        0.388        0.016       84.588        1.924        0.001      333.881        3.487      870.919
12/22/2013  21:00:00      -92.058      -21.704      -15.924        9.140       14.703        7.114       83.543      216.190       50.611        0.477        0.018       94.582        4.414        0.002      333.703        3.192      870.929
12/22/2013  21:01:00     -108.600      -34.565      -11.992       12.737       11.786        6.786      162.237      138.916       46.047        0.674        0.017      113.968        6.244        0.003      333.693        3.175      870.936
12/22/2013  21:02:00     -108.081      -29.667      -10.735       19.643       18.474       11.184      385.840      341.280      125.092        0.676        0.043      112.078        8.389        0.006      333.719        3.219      870.950
12/22/2013  21:03:00     -114.313      -29.376      -11.047       19.830       14.551       13.633      393.232      211.722      185.849        0.742        0.040      118.027       11.350        0.009      333.661        3.122      870.954
12/22/2013  21:04:00     -143.824      -50.645      -13.129       22.065       20.733       11.533      486.853      429.846      133.018        1.224        0.052      152.480        9.599        0.004      333.634        3.076      870.961
12/22/2013  21:05:00     -127.214      -42.559      -17.341       12.927       16.698       10.645      167.095      278.816      113.323        0.943        0.028      134.144        6.461        0.002      333.573        2.976      870.975
12/22/2013  21:06:00      -93.486      -36.364       -8.045       22.293       17.482       13.159      496.960      305.632      173.156        0.555        0.049      100.309        9.556        0.009      333.519        2.886      870.997
12/22/2013  21:07:00      -99.403      -48.297       -8.642       23.008       17.242       14.727      529.361      297.292      216.888        0.667        0.052      110.515       13.003        0.014      333.475        2.813      871.010
12/22/2013  21:08:00     -121.153      -59.656      -10.722       12.355       15.553       11.960      152.646      241.900      143.049        0.944        0.027      135.044        8.314        0.004      333.489        2.834      871.018
12/22/2013  21:09:00     -121.839      -55.070      -10.158       11.778       11.736        8.357      138.732      137.741       69.833        0.916        0.017      133.707        5.737        0.002      333.474        2.809      871.018
12/22/2013  21:10:00     -128.200      -52.377      -13.282       16.413       16.939       10.718      269.381      286.943      114.873        1.001        0.034      138.487        5.510        0.002      333.494        2.842      871.024
12/22/2013  21:11:00     -121.757      -54.696       -9.979       11.709       13.714        9.479      137.109      188.063       89.854        0.917        0.021      133.478        6.902        0.003      333.399        2.686      871.017
12/22/2013  21:12:00     -130.239      -60.506      -17.836       13.922       16.406       10.185      193.820      269.155      103.743        1.075        0.028      143.608        6.650        0.002      333.428        2.735      871.010
12/22/2013  21:13:00     -120.103      -58.132      -11.635       10.739       14.950       12.016      115.335      223.508      144.392        0.921        0.024      133.432        6.417        0.002      333.401        2.691      871.010
12/22/2013  21:14:00     -116.929      -65.811       -8.947       14.099       20.926       10.995      198.791      437.888      120.892        0.942        0.038      134.177        6.935        0.003      333.341        2.594      871.006
12/22/2013  21:15:00      -98.288      -55.819       -3.533       34.084       22.158       15.372     1161.714      490.977      236.312        0.734        0.094      113.032       16.320        0.021      333.328        2.571      871.006
12/22/2013  21:16:00     -113.218      -63.966      -11.810       15.625       15.812       12.865      244.145      250.027      165.496        0.885        0.033      130.038        9.204        0.005      333.345        2.600      871.014
12/22/2013  21:17:00      -98.631      -55.030       -4.774       15.640       17.724       10.702      244.613      314.143      114.535        0.673        0.034      112.944        7.795        0.005      333.312        2.544      871.028
12/22/2013  21:18:00      -76.235      -54.890       -1.881       28.086       25.066       13.955      788.827      628.324      194.745        0.522        0.081       93.940       11.060        0.014      333.325        2.564      871.060
12/22/2013  21:19:00      -72.544      -57.940        0.022       29.771       23.326       16.941      886.306      544.119      286.994        0.517        0.086       92.843       16.264        0.031      333.294        2.513      871.074
12/22/2013  21:20:00      -93.757      -49.226       -7.901       23.506       15.022       12.394      552.521      225.651      153.620        0.610        0.047      105.894       11.532        0.012      333.319        2.555      871.089
12/22/2013  21:21:00      -93.750      -51.727       -8.126       13.549       15.929       11.503      183.583      253.744      132.325        0.605        0.028      107.073        7.410        0.005      333.283        2.496      871.088
12/22/2013  21:22:00      -86.830      -53.312       -6.112       11.645       11.364        9.461      135.612      129.147       89.505        0.539        0.018      101.890        6.495        0.004      333.283        2.495      871.080
12/22/2013  21:23:00      -70.914      -36.048       -3.133       16.930       13.589       10.354      286.629      184.666      107.200        0.346        0.029       79.550        9.064        0.013      333.273        2.479      871.071
12/22/2013  21:24:00      -70.035      -33.109       -9.914       11.282       13.803        8.119      127.294      190.535       65.921        0.324        0.019       77.467        6.018        0.006      333.283        2.497      871.064
12/22/2013  21:25:00      -47.485      -25.783        2.097       21.339       17.669       13.304      455.372      312.185      177.000        0.193        0.047       54.033       11.789        0.048      333.260        2.457      871.056
12/22/2013  21:26:00      -47.090      -34.103       -3.721       17.465       11.400       14.196      305.016      129.967      201.530        0.202        0.032       58.142       11.081        0.036      333.325        2.565      871.056
12/22/2013  21:27:00      -81.784      -33.072      -11.295       21.156       10.939        8.470      447.581      119.671       71.746        0.427        0.032       88.218        7.178        0.007      333.351        2.607      871.051
12/22/2013  21:28:00     -102.899      -42.332      -13.636       15.275       11.054        9.651      233.340      122.181       93.144        0.651        0.022      111.266        9.154        0.007      333.370        2.642      871.054
12/22/2013  21:29:00     -120.534      -33.898      -20.675       10.005       10.448        9.740      100.108      109.159       94.863        0.820        0.015      125.210        8.683        0.005      333.416        2.715      871.050
12/22/2013  21:30:00     -111.080      -31.445      -15.696        9.834       10.334        9.633       96.717      106.796       92.803        0.694        0.015      115.445        6.523        0.003      333.373        2.647      871.048
12/22/2013  21:31:00     -106.557      -48.278      -12.595       10.231       14.304        7.348      104.672      204.595       53.997        0.710        0.018      116.984        4.619        0.002      333.332        2.578      871.043
12/22/2013  21:32:00     -105.616      -43.817      -13.573        8.452        7.941        6.034       71.439       63.063       36.411        0.671        0.009      114.345        4.004        0.001      333.354        2.614      871.047
12/22/2013  21:33:00     -106.232      -48.077       -5.209       12.820       12.631        7.561      164.353      159.547       57.170        0.700        0.019      116.604        3.921        0.001      333.401        2.692      871.050
12/22/2013  21:34:00     -117.128      -63.929      -10.619       16.165       16.361       10.497      261.298      267.671      110.195        0.928        0.032      133.439        8.505        0.004      333.417        2.717      871.061
12/22/2013  21:35:00     -102.115      -54.563       -4.523       28.510       19.495       15.830      812.814      380.064      250.593        0.743        0.072      115.778       16.550        0.020      333.403        2.695      871.057
12/22/2013  21:36:00      -79.002      -51.744       -2.458       28.279       18.396       15.457      799.712      338.411      238.908        0.515        0.069       94.439        2.344        0.001      333.293        2.512      871.057
12/22/2013  21:37:00     -111.283      -52.965       -5.658       25.209       20.030       14.674      635.480      401.199      215.321        0.824        0.063      123.245        7.642        0.004      333.228        2.406      871.058
12/22/2013  21:38:00     -135.258      -50.130      -15.594       14.985       17.813        9.398      224.556      317.298       88.321        1.084        0.032      144.249        5.125        0.001      333.141        2.259      871.068
12/22/2013  21:39:00     -139.114      -53.005       -3.076       21.719       22.459       16.269      471.736      504.410      264.678        1.171        0.062      148.870       11.804        0.006      333.130        2.243      871.092
12/22/2013  21:40:00     -131.511      -65.561       -5.641       19.002       16.092       13.153      361.062      258.942      173.003        1.121        0.040      146.947       10.924        0.006      333.093        2.182      871.098
12/22/2013  21:41:00     -143.026      -43.971       -7.453       23.597       20.260       14.625      556.835      410.453      213.902        1.181        0.059      149.632       11.565        0.006      333.127        2.239      871.105
12/22/2013  21:42:00     -144.577      -52.453       -1.286       36.482       23.985       20.336     1330.958      575.265      413.542        1.299        0.116      153.798       20.765        0.018      333.065        2.137      871.103
12/22/2013  21:43:00     -152.547      -66.945       -2.289       28.761       28.211       16.765      827.170      795.841      281.057        1.483        0.095      166.590       14.453        0.008      333.086        2.172      871.109
12/22/2013  21:44:00     -140.404      -62.016       -8.494       23.196       22.861       15.036      538.033      522.646      226.088        1.246        0.064      153.490       11.942        0.006      332.994        2.020      871.122
12/22/2013  21:45:00     -142.129      -45.129      -13.273       24.173       21.150       16.804      584.352      447.306      282.385        1.186        0.066      149.122       13.571        0.008      333.023        2.066      871.132
12/22/2013  21:46:00     -155.052      -46.606      -14.506       18.300       19.017       15.578      334.907      361.643      242.687        1.368        0.047      161.906        8.839        0.003      333.026        2.072      871.137
12/22/2013  21:47:00     -120.459      -33.376       -2.335       38.936       32.132       19.700     1515.989     1032.434      388.083        0.928        0.147      124.998       14.823        0.014      333.053        2.116      871.130
12/22/2013  21:48:00      -99.621      -18.450        1.410       42.411       30.019       21.744     1798.669      901.133      472.797        0.672        0.159      101.315       17.759        0.031      333.039        2.093      871.131
12/22/2013  21:49:00     -121.696      -20.363       -6.021       41.356       34.350       26.947     1710.280     1179.949      726.119        0.944        0.181      123.388       24.057        0.038      333.047        2.106      871.139
12/22/2013  21:50:00     -113.506       -9.605        1.607       60.450       38.821       28.177     3654.257     1507.083      793.966        0.947        0.298      113.912       33.071        0.084      332.968        1.976      871.146
12/22/2013  21:51:00      -98.104      -13.589        3.148       40.792       35.901       24.161     1663.946     1288.885      583.777        0.668        0.177       99.040       23.056        0.054      332.956        1.955      871.137
12/22/2013  21:52:00     -104.511      -27.608        3.201       60.143       41.109       25.499     3617.175     1689.911      650.207        0.883        0.298      108.096       29.525        0.075      332.959        1.961      871.132
12/22/2013  21:53:00      -73.866       -9.109       -1.551       44.878       37.468       19.140     2014.031     1403.887      366.350        0.466        0.189       74.425       20.268        0.074      332.943        1.933      871.139
12/22/2013  21:54:00      -80.102      -19.264       -4.835       33.354       37.237       20.593     1112.495     1386.599      424.090        0.487        0.146       82.386       16.710        0.041      332.913        1.885      871.149
12/22/2013  21:55:00      -87.076      -33.916       -7.295       21.190       18.006       13.839      448.997      324.214      191.513        0.488        0.048       93.448        8.984        0.009      332.913        1.886      871.159
12/22/2013  21:56:00      -81.948      -12.339       -7.769       33.163       29.078       19.325     1099.767      845.512      373.465        0.462        0.116       82.872       12.474        0.023      332.935        1.923      871.161
12/22/2013  21:57:00     -123.014      -18.783       -7.110       44.113       27.368       22.062     1945.933      748.983      486.723        0.936        0.159      124.440       20.877        0.028      332.909        1.879      871.162
12/22/2013  21:58:00     -103.245      -26.094       -7.811       34.213       35.171       19.523     1170.508     1237.024      381.164        0.709        0.139      106.491       10.270        0.009      332.929        1.911      871.169
12/22/2013  21:59:00      -46.645      -55.380        7.551       57.726       36.079       26.812     3332.248     1301.688      718.906        0.533        0.268       72.407       31.612        0.191      332.878        1.827      871.173
12/22/2013  22:00:00      -93.596      -45.571       -0.841       32.862       30.875       22.640     1079.909      953.277      512.561        0.669        0.127      104.100       17.126        0.027      332.876        1.823      871.186
12/22/2013  22:01:00      -94.113      -35.234      -10.164       45.199       32.223       22.352     2042.919     1038.329      499.616        0.689        0.179      100.492       11.046        0.012      332.890        1.848      871.210
12/22/2013  22:02:00     -101.138      -42.962        1.162       35.076       41.120       23.056     1230.318     1690.841      531.556        0.776        0.173      109.885       10.399        0.009      332.908        1.877      871.240
12/22/2013  22:03:00      -71.060      -36.226       -3.948       37.640       36.304       20.255     1416.755     1317.976      410.270        0.476        0.157       79.761       16.426        0.042      332.934        1.921      871.265
12/22/2013  22:04:00      -94.052      -55.200        3.599       52.905       48.534       27.119     2798.970     2355.507      735.447        0.890        0.294      109.054       26.069        0.057      332.954        1.953      871.273
12/22/2013  22:05:00      -94.021      -42.156       -0.678       52.213       34.834       24.219     2726.188     1213.419      586.582        0.757        0.226      103.040       19.033        0.034      332.924        1.904      871.280
12/22/2013  22:06:00      -54.307      -49.543        6.183       46.213       44.807       22.937     2135.644     2007.633      526.126        0.505        0.233       73.510       22.478        0.094      332.918        1.894      871.279
12/22/2013  22:07:00      -85.565      -45.898       -1.092       56.642       40.450       25.189     3208.313     1636.168      634.469        0.745        0.274       97.097       25.582        0.069      332.927        1.908      871.269
12/22/2013  22:08:00      -53.387      -28.685       -4.899       39.256       28.778       20.560     1541.022      828.159      422.717        0.324        0.140       60.605        4.440        0.005      332.956        1.956      871.258
12/22/2013  22:09:00      -61.980      -27.553      -15.603       44.634       28.669       17.844     1992.161      821.936      318.422        0.399        0.157       67.828       22.442        0.109      332.905        1.873      871.262
12/22/2013  22:10:00      -65.603       -5.028        4.908       49.544       26.467       20.441     2454.571      700.481      417.820        0.396        0.179       65.796       24.804        0.142      332.875        1.823      871.276
12/22/2013  22:11:00      -65.733      -31.730       -2.063       36.900       23.956       21.381     1361.598      573.910      457.165        0.386        0.120       72.991       20.656        0.080      332.910        1.880      871.275
12/22/2013  22:12:00      -76.764      -19.729      -11.755       25.540       27.140       19.089      652.299      736.578      364.404        0.409        0.088       79.259       10.155        0.016      332.906        1.873      871.274
12/22/2013  22:13:00      -60.398      -18.518       -6.973       36.795       34.080       19.196     1353.889     1161.467      368.490        0.346        0.144       63.173       22.830        0.131      332.971        1.981      871.274
12/22/2013  22:14:00      -87.934      -35.996      -16.594       18.533       23.383       20.836      343.486      546.785      434.119        0.531        0.066       95.017       12.416        0.017      333.000        2.027      871.276
12/22/2013  22:15:00     -107.595      -40.953       -4.781       21.547       27.058       22.797      464.278      732.155      519.718        0.750        0.086      115.125       16.749        0.021      333.035        2.086      871.285
12/22/2013  22:16:00     -115.601      -18.031      -14.949       16.420       17.627       14.647      269.608      310.707      214.538        0.735        0.040      116.999       10.014        0.007      333.092        2.181      871.290
12/22/2013  22:17:00      -96.614      -38.552      -10.057       20.414       14.022       12.120      416.750      196.608      146.895        0.584        0.038      104.022       10.576        0.010      332.967        1.974      871.294
12/22/2013  22:18:00     -104.230      -45.887      -16.106        9.331       18.068       12.147       87.060      326.439      147.555        0.689        0.028      113.884        6.506        0.003      332.966        1.971      871.308
12/22/2013  22:19:00     -124.854      -70.654      -14.579       10.932       13.319        9.338      119.499      177.402       87.191        1.059        0.019      143.459        2.649        0.000      332.983        1.999      871.324
12/22/2013  22:20:00     -132.203      -80.502      -14.214       20.384       15.876       16.463      415.515      252.057      271.028        1.255        0.047      154.785        8.932        0.003      332.923        1.903      871.347
12/22/2013  22:21:00     -130.896      -66.460      -17.349       26.292       22.973       16.299      691.251      527.751      265.662        1.167        0.074      146.802       12.768        0.008      332.880        1.830      871.356
12/22/2013  22:22:00     -137.617      -78.661       -5.459       32.864       27.498       18.770     1080.033      756.122      352.309        1.367        0.109      158.512       14.211        0.008      332.848        1.778      871.360
12/22/2013  22:23:00     -155.906      -70.347      -12.252       28.608       22.323       17.101      818.418      498.332      292.456        1.551        0.080      171.042       15.202        0.008      332.775        1.658      871.369
12/22/2013  22:24:00     -130.813      -69.325      -13.416       33.861       25.625       19.900     1146.546      656.617      396.004        1.215        0.110      148.048       13.171        0.008      332.772        1.654      871.378
12/22/2013  22:25:00     -132.593      -57.845       -4.540       36.558       22.924       17.215     1336.466      525.527      296.367        1.155        0.108      144.662       11.923        0.007      332.788        1.681      871.384
12/22/2013  22:26:00     -149.772      -55.008       -2.066       36.157       31.701       22.477     1307.324     1004.970      505.235        1.414        0.141      159.554       21.647        0.018      332.766        1.643      871.387
12/22/2013  22:27:00     -151.363      -42.659       -0.841       44.613       32.885       24.487     1990.279     1081.419      599.609        1.420        0.184      157.260       25.559        0.026      332.736        1.592      871.376
12/22/2013  22:28:00     -159.163      -64.431       -1.034       34.082       23.812       15.921     1161.604      567.032      253.481        1.573        0.099      171.710       15.983        0.009      332.744        1.605      871.366
12/22/2013  22:29:00     -122.781      -67.666       -0.268       40.795       30.148       21.899     1664.248      908.898      479.553        1.135        0.153      140.192       20.519        0.021      332.753        1.621      871.354
12/22/2013  22:30:00     -130.288      -58.669       -0.248       40.888       27.816       22.881     1671.804      773.743      523.550        1.169        0.148      142.888       24.078        0.028      332.755        1.625      871.349
12/22/2013  22:31:00     -117.469      -28.191       -4.792       38.364       28.359       16.097     1471.803      804.217      259.120        0.858        0.127      120.804       18.955        0.025      332.773        1.654      871.337
12/22/2013  22:32:00     -101.588      -28.920       -4.330       29.196       21.207       15.959      852.420      449.730      254.683        0.637        0.078      105.624       15.972        0.023      332.738        1.597      871.319
12/22/2013  22:33:00      -80.570       -7.263       -2.293       35.985       20.789       15.412     1294.919      432.170      237.527        0.426        0.098       80.897       15.963        0.039      332.750        1.615      871.317
12/22/2013  22:34:00      -98.928       18.447       -9.778       36.185       20.625       14.224     1309.334      425.383      202.322        0.608        0.097      100.634       12.351        0.015      332.745        1.609      871.310
12/22/2013  22:35:00      -88.513       14.996      -11.548       20.798       17.770       10.115      432.575      315.785      102.309        0.452        0.043       89.774        3.863        0.002      332.954        1.953      871.314
12/22/2013  22:36:00      -37.830      -25.670       -4.901       26.302        9.048        8.507      691.820       81.869       72.374        0.148        0.042       45.717        6.903        0.023      332.925        1.906      871.323
12/22/2013  22:37:00        5.915      -39.399       -6.053       13.943       13.802       11.822      194.409      190.502      139.759        0.107        0.026       39.840       10.822        0.074      332.962        1.966      871.330
12/22/2013  22:38:00       -9.194      -22.133       -1.456       13.310       12.285       10.967      177.149      150.914      120.274        0.051        0.022       23.966        8.369        0.122      332.970        1.979      871.332
12/22/2013  22:39:00       -6.393       -7.607       11.299       15.722       10.433        9.653      247.178      108.849       93.177        0.034        0.022        9.936        9.073        0.834      332.816        1.726      871.330
12/22/2013  22:40:00       -5.071      -16.123       -4.703       10.598        9.687        9.270      112.318       93.843       85.941        0.030        0.015       16.902        3.721        0.048      332.786        1.676      871.337
12/22/2013  22:41:00       -7.572      -20.451       10.459        8.011       12.770       11.462       64.170      163.085      131.378        0.047        0.018       21.808        9.143        0.176      332.904        1.870      871.364
12/22/2013  22:42:00       -9.621      -19.272       15.627        8.520       11.652       11.657       72.587      135.778      135.893        0.053        0.017       21.540        6.654        0.095      333.026        2.072      871.397
12/22/2013  22:43:00      -25.083      -16.573       -0.533        9.911       10.816        4.967       98.227      116.983       24.668        0.057        0.012       30.064        1.714        0.003      332.904        1.870      871.410
12/22/2013  22:44:00      -36.436       -2.771       -7.536        8.370        8.014        5.091       70.055       64.225       25.923        0.078        0.008       36.541        3.612        0.010      332.871        1.816      871.415
12/22/2013  22:45:00      -31.968        5.476        0.530        8.457        8.822        5.739       71.517       77.829       32.932        0.062        0.009       32.434        4.419        0.019      332.811        1.718      871.425
12/22/2013  22:46:00      -36.574       -2.733        0.841        7.384        4.015        5.404       54.531       16.122       29.200        0.072        0.005       36.676        5.269        0.021      332.862        1.801      871.428
12/22/2013  22:47:00      -20.419       -5.425       -5.051        6.494        8.157        6.111       42.174       66.544       37.349        0.031        0.007       21.128        5.055        0.057      332.885        1.841      871.431
12/22/2013  22:48:00      -38.408       -9.331       -7.527       14.439        8.595        4.924      208.480       73.870       24.250        0.096        0.015       39.526        4.350        0.012      332.921        1.896      871.447
12/22/2013  22:49:00      -57.804        0.301       -8.049        6.435        5.447        5.902       41.410       29.675       34.833        0.176        0.005       57.805        2.757        0.002      332.891        1.852      871.459
12/22/2013  22:50:00      -63.814       -8.958       -8.495        6.613        7.575        6.356       43.727       57.373       40.400        0.218        0.007       64.440        2.944        0.002      332.891        1.851      871.465
12/22/2013  22:51:00      -71.229      -14.918       -9.970       11.987        9.008        9.219      143.681       81.146       84.998        0.285        0.015       72.774        7.631        0.011      332.835        1.757      871.474
12/22/2013  22:52:00      -81.440       -8.733      -13.300        9.957        7.579        6.767       99.141       57.446       45.795        0.354        0.010       81.907        2.757        0.001      332.824        1.738      871.496
12/22/2013  22:53:00      -93.752        1.369      -16.616       12.598       11.208        5.920      158.708      125.623       35.041        0.469        0.016       93.762        4.958        0.003      332.780        1.667      871.517
12/22/2013  22:54:00      -86.507        0.159      -16.416       11.526        6.285        5.861      132.843       39.505       34.352        0.398        0.010       86.507        3.820        0.002      332.787        1.679      871.530
12/22/2013  22:55:00      -64.898      -13.978      -16.321        7.333       10.158        5.510       53.771      103.186       30.357        0.243        0.009       66.387        4.338        0.004      332.824        1.738      871.545
12/22/2013  22:56:00      -67.957      -20.804       -9.035       10.439       14.007        7.392      108.977      196.184       54.647        0.275        0.018       71.070        4.848        0.005      332.631        1.418      871.545
12/22/2013  22:57:00      -91.757       -4.297      -13.618       10.034        6.637        7.341      100.677       44.046       53.888        0.441        0.010       91.858        1.940        0.000      332.644        1.442      871.533
12/22/2013  22:58:00      -63.657       -4.073      -10.285       10.093       10.778        9.450      101.876      116.169       89.309        0.224        0.015       63.787        5.993        0.009      332.581        1.338      871.519
12/22/2013  22:59:00      -41.620       15.008       -7.217       31.208       14.824        9.995      973.960      219.755       99.898        0.165        0.065       44.243       13.290        0.090      333.082        2.164      871.509
12/22/2013  23:00:00       -3.560       14.244        1.219       14.596       10.809        8.976      213.054      116.828       80.566        0.031        0.021       14.682        6.676        0.207      333.435        2.748      871.500
12/22/2013  23:01:00       16.763       72.011      -10.145       17.355       18.123        7.948      301.213      328.436       63.176        0.313        0.035       73.937        2.103        0.001      333.544        2.928      871.510
12/22/2013  23:02:00       20.579       79.229      -13.336       13.371       16.150       10.403      178.785      260.810      108.219        0.371        0.027       81.858        7.301        0.008      333.484        2.828      871.514
12/22/2013  23:03:00       18.986       80.622      -15.128       19.058       18.478       10.088      363.191      341.433      101.772        0.395        0.040       82.827        6.628        0.006      333.416        2.715      871.515
12/22/2013  23:04:00       17.998       56.876       -8.206       12.772       20.214       11.198      163.118      408.609      125.395        0.216        0.035       59.656       10.355        0.030      333.397        2.685      871.508
12/22/2013  23:05:00       -5.896       40.731       -5.041        8.765        9.120        4.906       76.828       83.166       24.070        0.095        0.009       41.156        5.320        0.017      333.417        2.720      871.502
12/22/2013  23:06:00       -4.632       28.640        2.733        7.247        8.813        4.334       52.519       77.671       18.783        0.050        0.007       29.012        1.518        0.003      333.378        2.653      871.498
12/22/2013  23:07:00        4.296       32.290       -1.712        4.493        7.924        4.122       20.186       62.784       16.994        0.058        0.005       32.575        4.614        0.020      333.411        2.709      871.504
12/22/2013  23:08:00       25.880       30.387        1.554       16.877       15.511       15.013      284.827      240.585      225.379        0.117        0.038       39.914       12.048        0.091      333.335        2.582      871.518
12/22/2013  23:09:00       44.673       42.015        4.308       22.660       13.675       14.570      513.492      187.000      212.295        0.235        0.046       61.327       11.858        0.037      333.279        2.488      871.524
12/22/2013  23:10:00       25.227       52.053       -9.655       14.641       15.759       11.014      214.351      248.345      121.308        0.201        0.029       57.844       10.485        0.033      333.296        2.516      871.529
12/22/2013  23:11:00       25.470       38.104       -4.915       15.145       13.673       13.490      229.375      186.958      181.976        0.136        0.030       45.833        6.968        0.023      333.198        2.355      871.532
12/22/2013  23:12:00       40.354       30.883        0.574       12.178        9.096        9.538      148.316       82.734       90.968        0.145        0.016       50.815        6.188        0.015      333.240        2.423      871.535
12/22/2013  23:13:00       39.543       30.737        3.247        8.698        9.474       11.670       75.655       89.751      136.194        0.141        0.015       50.084        3.649        0.005      333.208        2.369      871.529
12/22/2013  23:14:00       -3.788       11.906       18.960       10.398       17.571        8.078      108.120      308.739       65.252        0.050        0.024       12.494        5.147        0.170      333.025        2.069      871.521
12/22/2013  23:15:00      -10.825       -4.562        3.582        8.379       10.661        5.908       70.206      113.664       34.901        0.018        0.011       11.747        4.874        0.172      332.914        1.886      871.513
12/22/2013  23:16:00      -45.095      -12.844       -7.328       11.542        8.058        7.417      133.207       64.924       55.008        0.125        0.013       46.889        4.912        0.011      332.614        1.392      871.495
12/22/2013  23:17:00      -60.055      -15.177      -12.684        6.886        6.760        5.559       47.415       45.702       30.898        0.206        0.006       61.943        2.940        0.002      332.602        1.372      871.478
12/22/2013  23:18:00      -69.585      -20.540      -11.378        9.381        6.517        6.198       88.002       42.475       38.420        0.278        0.008       72.553        5.360        0.005      332.626        1.408      871.467
12/22/2013  23:19:00      -62.482      -17.368      -14.227        7.442        9.114        6.227       55.386       83.057       38.773        0.229        0.009       64.851        4.377        0.005      332.676        1.495      871.458
12/22/2013  23:20:00      -65.662      -34.677       -7.922       10.476       10.775        5.552      109.745      116.092       30.828        0.292        0.013       74.256        4.190        0.003      332.636        1.428      871.460
12/22/2013  23:21:00      -68.383      -26.400      -11.863       10.521       14.840        9.163      110.693      220.220       83.964        0.296        0.021       73.302        3.187        0.002      332.591        1.353      871.463
12/22/2013  23:22:00      -88.838      -52.038       -4.938       19.429       11.933       13.497      377.487      142.402      182.181        0.566        0.035      102.957       12.314        0.014      332.502        1.206      871.465
12/22/2013  23:23:00      -78.574      -38.248       -1.095       24.564       15.783       13.886      603.383      249.091      192.834        0.434        0.052       87.389       12.585        0.021      332.555        1.294      871.459
12/22/2013  23:24:00      -60.989      -37.390        3.677       25.857       20.508       15.335      668.585      420.589      235.174        0.323        0.066       71.538       16.459        0.053      332.498        1.200      871.468
12/22/2013  23:25:00      -66.215      -19.606       -1.718       20.154       17.954       11.554      406.190      322.340      133.505        0.282        0.043       69.057        8.876        0.017      332.473        1.156      871.465
12/22/2013  23:26:00      -68.120      -16.172       -2.928       19.410       12.229       12.308      376.730      149.549      151.487        0.279        0.034       70.013       12.732        0.033      332.487        1.180      871.456
12/22/2013  23:27:00      -80.298      -11.946        2.392       21.443       20.146       14.978      459.802      405.877      224.337        0.384        0.055       81.181       12.206        0.023      332.447        1.113      871.441
12/22/2013  23:28:00      -94.960       -4.860       -5.871       27.060       16.915       12.585      732.237      286.127      158.375        0.513        0.059       95.084       12.088        0.016      332.499        1.202      871.428
12/22/2013  23:29:00     -101.330        6.998       -8.361       18.528       12.077        7.829      343.285      145.853       61.288        0.547        0.028      101.572        7.055        0.005      332.661        1.467      871.411
12/22/2013  23:30:00      -95.527        6.716      -11.130       14.545       10.181        9.146      211.569      103.656       83.642        0.485        0.020       95.763        6.258        0.004      332.826        1.744      871.407
12/22/2013  23:31:00      -69.044       -9.700       -9.317       19.167       14.130       11.476      367.383      199.650      131.696        0.282        0.035       69.722       11.825        0.029      332.874        1.821      871.400
12/22/2013  23:32:00      -50.725      -29.586       -1.689       14.755       13.332        7.271      217.721      177.740       52.865        0.195        0.022       58.723        5.729        0.010      332.767        1.646      871.405
12/22/2013  23:33:00      -58.664      -32.986       -8.095       19.732       13.460        8.224      389.370      181.166       67.640        0.262        0.032       67.302        7.472        0.012      332.683        1.506      871.399
12/22/2013  23:34:00      -87.244      -31.613      -12.930       13.349       15.071        9.642      178.185      227.129       92.962        0.464        0.025       92.795        7.304        0.006      332.538        1.266      871.397
12/22/2013  23:35:00      -93.665      -23.673       -8.802       24.504       18.961       11.157      600.461      359.522      124.476        0.525        0.054       96.610        7.557        0.006      332.328        0.920      871.391
12/22/2013  23:36:00     -109.520      -36.664      -15.287       19.289       16.614       11.784      372.082      276.038      138.874        0.718        0.039      115.494        8.125        0.005      332.299        0.871      871.396
12/22/2013  23:37:00     -104.117      -48.987       -9.107       24.416       18.044       14.750      596.164      325.602      217.570        0.723        0.057      115.065       14.559        0.016      332.240        0.775      871.407
12/22/2013  23:38:00     -110.691      -31.319      -11.517       19.877       20.091       15.142      395.109      403.668      229.291        0.720        0.051      115.036       11.729        0.010      332.251        0.793      871.412
12/22/2013  23:39:00     -119.346      -18.857      -19.864       22.035       21.649       14.866      485.531      468.673      220.997        0.808        0.059      120.827       11.967        0.010      332.257        0.802      871.412
12/22/2013  23:40:00     -109.699        1.618       -6.588       25.353       21.347       16.107      642.752      455.697      259.433        0.672        0.068      109.711       14.552        0.018      332.305        0.882      871.394
12/22/2013  23:41:00      -68.492      -13.231       -2.912       26.263       22.759       16.745      689.753      517.965      280.406        0.318        0.074       69.758       13.340        0.037      332.404        1.044      871.372
12/22/2013  23:42:00      -69.889      -10.264       -7.741       22.665       22.453       14.521      513.700      504.154      210.865        0.314        0.061       70.639       12.427        0.031      332.515        1.227      871.353
12/22/2013  23:43:00      -50.914       -2.131       -7.953       26.444       13.857       12.525      699.302      192.018      156.873        0.185        0.052       50.958       11.128        0.048      332.609        1.384      871.341
12/22/2013  23:44:00      -66.695       -1.666       -6.999       22.563       15.124       12.630      509.095      228.740      159.509        0.270        0.045       66.715       10.341        0.024      332.734        1.589      871.330
12/22/2013  23:45:00      -77.667      -21.442       -8.151       15.367       22.295       13.282      236.145      497.052      176.405        0.373        0.045       80.573       10.075        0.016      332.682        1.502      871.334
12/22/2013  23:46:00      -72.111      -24.536       -5.397       26.220       22.977       16.347      687.481      527.959      267.219        0.366        0.074       76.171       13.481        0.031      332.525        1.245      871.342
12/22/2013  23:47:00      -63.144      -25.401       -2.758       25.239       23.102       14.013      636.985      533.724      196.370        0.300        0.068       68.062       11.082        0.027      332.382        1.006      871.351
12/22/2013  23:48:00      -72.012      -13.542       -8.652       29.792       21.668       14.679      887.539      469.519      215.480        0.351        0.079       73.274       11.569        0.025      332.429        1.085      871.367
12/22/2013  23:49:00      -66.707      -17.632       -5.470       18.263       24.347       11.451      333.534      592.798      131.135        0.292        0.053       68.998        8.389        0.015      332.329        0.921      871.384
12/22/2013  23:50:00      -70.753      -22.701       -9.134       24.405       22.640       14.599      595.615      512.567      213.138        0.346        0.066       74.305       14.193        0.036      332.313        0.894      871.390
12/22/2013  23:51:00      -58.925      -15.695       -9.051       19.363       21.139       13.233      374.912      446.846      175.121        0.240        0.050       60.980       13.616        0.050      332.398        1.034      871.386
12/22/2013  23:52:00      -58.035      -16.987       -6.337       17.019       25.004        9.227      289.632      625.216       85.129        0.235        0.050       60.470        7.590        0.016      332.379        1.002      871.376
12/22/2013  23:53:00      -56.360       -8.604      -12.156       15.446       14.860        9.063      238.582      220.811       82.142        0.197        0.027       57.013        2.004        0.001      332.415        1.062      871.362
12/22/2013  23:54:00      -65.272      -18.534       -5.487       18.769       19.104       13.907      352.271      364.947      193.409        0.277        0.046       67.853       11.225        0.027      332.418        1.065      871.337
12/22/2013  23:55:00      -47.855       -8.550       -9.073       27.933       11.198        8.132      780.241      125.404       66.131        0.171        0.049       48.613        8.203        0.028      332.523        1.239      871.319
12/22/2013  23:56:00      -55.853      -15.573      -10.889       18.016       12.772        7.911      324.575      163.136       62.580        0.202        0.028       57.983        7.607        0.017      332.488        1.183      871.311
12/22/2013  23:57:00      -84.196      -12.561      -10.254        9.321       12.340        7.712       86.880      152.264       59.476        0.383        0.015       85.128        7.065        0.007      332.359        0.969      871.305
12/22/2013  23:58:00      -94.263      -11.641      -13.626       16.542       10.801        8.033      273.635      116.666       64.536        0.483        0.023       94.979        2.966        0.001      332.348        0.952      871.291
12/22/2013  23:59:00      -92.303      -12.539      -11.369       16.157       14.179       12.445      261.059      201.041      154.868        0.471        0.031       93.150        9.718        0.011      332.362        0.974      871.277
